<?xml version="1.0" encoding="UTF-8" standalone="no" ?>
<gpx xmlns="http://www.topografix.com/GPX/1/1" xmlns:xsi="http://www.w3.org/2001/XMLSchema-instance" xsi:schemaLocation="http://www.topografix.com/GPX/1/1 http://www.topografix.com/GPX/1/1/gpx.xsd" version="1.1" creator="VisuGPX - https://www.visugpx.com">
  <metadata>
    <name>10 juin 2019 14:44:55</name>
    <desc><![CDATA[Ûuuuuuuiii de te prendre iné à une prochaine fois ]]></desc>
  </metadata>
  <trk>
    <name><![CDATA[10 juin 2019 14:44:55]]></name>
    <trkseg>
      <trkpt lat="43.61227" lon="1.43462">
        <ele>198.25</ele>
        <time>2019-06-10T12:41:08.425Z</time>
      </trkpt>
      <trkpt lat="43.61217" lon="1.43458">
        <ele>186.92</ele>
        <time>2019-06-10T12:41:14.000Z</time>
      </trkpt>
      <trkpt lat="43.61205" lon="1.43459">
        <ele>187.34</ele>
        <time>2019-06-10T12:41:18.000Z</time>
      </trkpt>
      <trkpt lat="43.61195" lon="1.43458">
        <ele>190.76</ele>
        <time>2019-06-10T12:41:21.000Z</time>
      </trkpt>
      <trkpt lat="43.61186" lon="1.43463">
        <ele>194.48</ele>
        <time>2019-06-10T12:41:25.000Z</time>
      </trkpt>
      <trkpt lat="43.61182" lon="1.43475">
        <ele>192.2</ele>
        <time>2019-06-10T12:41:28.000Z</time>
      </trkpt>
      <trkpt lat="43.61175" lon="1.43483">
        <ele>191.49</ele>
        <time>2019-06-10T12:41:31.000Z</time>
      </trkpt>
      <trkpt lat="43.61167" lon="1.43489">
        <ele>190.15</ele>
        <time>2019-06-10T12:41:35.000Z</time>
      </trkpt>
      <trkpt lat="43.61154" lon="1.43501">
        <ele>195.34</ele>
        <time>2019-06-10T12:41:40.000Z</time>
      </trkpt>
      <trkpt lat="43.61143" lon="1.43502">
        <ele>196.01</ele>
        <time>2019-06-10T12:41:45.000Z</time>
      </trkpt>
      <trkpt lat="43.61137" lon="1.43514">
        <ele>197.61</ele>
        <time>2019-06-10T12:41:52.000Z</time>
      </trkpt>
      <trkpt lat="43.61132" lon="1.43525">
        <ele>202.39</ele>
        <time>2019-06-10T12:41:58.000Z</time>
      </trkpt>
      <trkpt lat="43.61115" lon="1.43522">
        <ele>203.05</ele>
        <time>2019-06-10T12:42:01.000Z</time>
      </trkpt>
      <trkpt lat="43.61106" lon="1.43526">
        <ele>203.16</ele>
        <time>2019-06-10T12:42:02.000Z</time>
      </trkpt>
      <trkpt lat="43.61101" lon="1.43537">
        <ele>203.33</ele>
        <time>2019-06-10T12:42:05.000Z</time>
      </trkpt>
      <trkpt lat="43.61102" lon="1.43552">
        <ele>203.33</ele>
        <time>2019-06-10T12:42:08.000Z</time>
      </trkpt>
      <trkpt lat="43.61098" lon="1.43566">
        <ele>203.07</ele>
        <time>2019-06-10T12:42:12.000Z</time>
      </trkpt>
      <trkpt lat="43.61094" lon="1.43579">
        <ele>202.82</ele>
        <time>2019-06-10T12:42:22.000Z</time>
      </trkpt>
      <trkpt lat="43.61083" lon="1.43587">
        <ele>202.7</ele>
        <time>2019-06-10T12:42:25.000Z</time>
      </trkpt>
      <trkpt lat="43.61072" lon="1.43594">
        <ele>202.62</ele>
        <time>2019-06-10T12:42:27.000Z</time>
      </trkpt>
      <trkpt lat="43.61063" lon="1.436">
        <ele>202.54</ele>
        <time>2019-06-10T12:42:29.000Z</time>
      </trkpt>
      <trkpt lat="43.6105" lon="1.43606">
        <ele>202.44</ele>
        <time>2019-06-10T12:42:32.000Z</time>
      </trkpt>
      <trkpt lat="43.61039" lon="1.43614">
        <ele>202.35</ele>
        <time>2019-06-10T12:42:35.000Z</time>
      </trkpt>
      <trkpt lat="43.61029" lon="1.43624">
        <ele>202.27</ele>
        <time>2019-06-10T12:42:38.000Z</time>
      </trkpt>
      <trkpt lat="43.61018" lon="1.43629">
        <ele>202.21</ele>
        <time>2019-06-10T12:42:41.000Z</time>
      </trkpt>
      <trkpt lat="43.61007" lon="1.43636">
        <ele>202.03</ele>
        <time>2019-06-10T12:42:44.000Z</time>
      </trkpt>
      <trkpt lat="43.60994" lon="1.43641">
        <ele>202.01</ele>
        <time>2019-06-10T12:42:47.000Z</time>
      </trkpt>
      <trkpt lat="43.60983" lon="1.43645">
        <ele>202.01</ele>
        <time>2019-06-10T12:42:50.000Z</time>
      </trkpt>
      <trkpt lat="43.60973" lon="1.43651">
        <ele>202.04</ele>
        <time>2019-06-10T12:42:53.000Z</time>
      </trkpt>
      <trkpt lat="43.60963" lon="1.43654">
        <ele>202.08</ele>
        <time>2019-06-10T12:42:56.000Z</time>
      </trkpt>
      <trkpt lat="43.60952" lon="1.43656">
        <ele>202.13</ele>
        <time>2019-06-10T12:42:59.000Z</time>
      </trkpt>
      <trkpt lat="43.60942" lon="1.43659">
        <ele>202.16</ele>
        <time>2019-06-10T12:43:02.000Z</time>
      </trkpt>
      <trkpt lat="43.60933" lon="1.43663">
        <ele>202.19</ele>
        <time>2019-06-10T12:43:05.000Z</time>
      </trkpt>
      <trkpt lat="43.60923" lon="1.43667">
        <ele>202.2</ele>
        <time>2019-06-10T12:43:08.000Z</time>
      </trkpt>
      <trkpt lat="43.6091" lon="1.4367">
        <ele>202.1</ele>
        <time>2019-06-10T12:43:11.000Z</time>
      </trkpt>
      <trkpt lat="43.60899" lon="1.43677">
        <ele>202.04</ele>
        <time>2019-06-10T12:43:14.000Z</time>
      </trkpt>
      <trkpt lat="43.60886" lon="1.43679">
        <ele>201.51</ele>
        <time>2019-06-10T12:43:17.000Z</time>
      </trkpt>
      <trkpt lat="43.60875" lon="1.43685">
        <ele>201.43</ele>
        <time>2019-06-10T12:43:20.000Z</time>
      </trkpt>
      <trkpt lat="43.60865" lon="1.43694">
        <ele>201.32</ele>
        <time>2019-06-10T12:43:23.000Z</time>
      </trkpt>
      <trkpt lat="43.60856" lon="1.43701">
        <ele>201.17</ele>
        <time>2019-06-10T12:43:26.000Z</time>
      </trkpt>
      <trkpt lat="43.60846" lon="1.43706">
        <ele>200.52</ele>
        <time>2019-06-10T12:43:29.000Z</time>
      </trkpt>
      <trkpt lat="43.60835" lon="1.43716">
        <ele>199.58</ele>
        <time>2019-06-10T12:43:32.000Z</time>
      </trkpt>
      <trkpt lat="43.60826" lon="1.4372">
        <ele>198.93</ele>
        <time>2019-06-10T12:43:34.000Z</time>
      </trkpt>
      <trkpt lat="43.60817" lon="1.43724">
        <ele>198.46</ele>
        <time>2019-06-10T12:43:36.000Z</time>
      </trkpt>
      <trkpt lat="43.60807" lon="1.4373">
        <ele>198.42</ele>
        <time>2019-06-10T12:43:39.000Z</time>
      </trkpt>
      <trkpt lat="43.60799" lon="1.43734">
        <ele>198.24</ele>
        <time>2019-06-10T12:43:41.000Z</time>
      </trkpt>
      <trkpt lat="43.60786" lon="1.43738">
        <ele>198.21</ele>
        <time>2019-06-10T12:43:44.000Z</time>
      </trkpt>
      <trkpt lat="43.60775" lon="1.43741">
        <ele>198.18</ele>
        <time>2019-06-10T12:43:47.000Z</time>
      </trkpt>
      <trkpt lat="43.60764" lon="1.43747">
        <ele>198.04</ele>
        <time>2019-06-10T12:43:50.000Z</time>
      </trkpt>
      <trkpt lat="43.60753" lon="1.43755">
        <ele>198</ele>
        <time>2019-06-10T12:43:53.000Z</time>
      </trkpt>
      <trkpt lat="43.60745" lon="1.43761">
        <ele>197.97</ele>
        <time>2019-06-10T12:43:55.000Z</time>
      </trkpt>
      <trkpt lat="43.60737" lon="1.43769">
        <ele>197.71</ele>
        <time>2019-06-10T12:43:57.000Z</time>
      </trkpt>
      <trkpt lat="43.6073" lon="1.43777">
        <ele>197.5</ele>
        <time>2019-06-10T12:43:59.000Z</time>
      </trkpt>
      <trkpt lat="43.6072" lon="1.43789">
        <ele>197.26</ele>
        <time>2019-06-10T12:44:02.000Z</time>
      </trkpt>
      <trkpt lat="43.60713" lon="1.43797">
        <ele>197.15</ele>
        <time>2019-06-10T12:44:04.000Z</time>
      </trkpt>
      <trkpt lat="43.60706" lon="1.43805">
        <ele>196.96</ele>
        <time>2019-06-10T12:44:06.000Z</time>
      </trkpt>
      <trkpt lat="43.60697" lon="1.43811">
        <ele>196.84</ele>
        <time>2019-06-10T12:44:08.000Z</time>
      </trkpt>
      <trkpt lat="43.60688" lon="1.43818">
        <ele>196.8</ele>
        <time>2019-06-10T12:44:10.000Z</time>
      </trkpt>
      <trkpt lat="43.6068" lon="1.43824">
        <ele>196.79</ele>
        <time>2019-06-10T12:44:12.000Z</time>
      </trkpt>
      <trkpt lat="43.60672" lon="1.43831">
        <ele>196.76</ele>
        <time>2019-06-10T12:44:14.000Z</time>
      </trkpt>
      <trkpt lat="43.60664" lon="1.43838">
        <ele>196.73</ele>
        <time>2019-06-10T12:44:16.000Z</time>
      </trkpt>
      <trkpt lat="43.60656" lon="1.43846">
        <ele>196.7</ele>
        <time>2019-06-10T12:44:18.000Z</time>
      </trkpt>
      <trkpt lat="43.60649" lon="1.43853">
        <ele>196.65</ele>
        <time>2019-06-10T12:44:20.000Z</time>
      </trkpt>
      <trkpt lat="43.60637" lon="1.4385">
        <ele>196.57</ele>
        <time>2019-06-10T12:44:23.000Z</time>
      </trkpt>
      <trkpt lat="43.60626" lon="1.43841">
        <ele>196.45</ele>
        <time>2019-06-10T12:44:26.000Z</time>
      </trkpt>
      <trkpt lat="43.60615" lon="1.43832">
        <ele>196.32</ele>
        <time>2019-06-10T12:44:29.000Z</time>
      </trkpt>
      <trkpt lat="43.60608" lon="1.43826">
        <ele>196.27</ele>
        <time>2019-06-10T12:44:31.000Z</time>
      </trkpt>
      <trkpt lat="43.606" lon="1.4382">
        <ele>196.21</ele>
        <time>2019-06-10T12:44:33.000Z</time>
      </trkpt>
      <trkpt lat="43.60591" lon="1.43814">
        <ele>196.13</ele>
        <time>2019-06-10T12:44:35.000Z</time>
      </trkpt>
      <trkpt lat="43.6058" lon="1.43806">
        <ele>195.99</ele>
        <time>2019-06-10T12:44:38.000Z</time>
      </trkpt>
      <trkpt lat="43.60568" lon="1.43797">
        <ele>195.89</ele>
        <time>2019-06-10T12:44:41.000Z</time>
      </trkpt>
      <trkpt lat="43.60558" lon="1.43787">
        <ele>195.74</ele>
        <time>2019-06-10T12:44:44.000Z</time>
      </trkpt>
      <trkpt lat="43.60549" lon="1.43777">
        <ele>195.64</ele>
        <time>2019-06-10T12:44:47.000Z</time>
      </trkpt>
      <trkpt lat="43.6054" lon="1.43768">
        <ele>195.56</ele>
        <time>2019-06-10T12:44:50.000Z</time>
      </trkpt>
      <trkpt lat="43.60531" lon="1.43757">
        <ele>195.51</ele>
        <time>2019-06-10T12:44:53.000Z</time>
      </trkpt>
      <trkpt lat="43.60521" lon="1.43746">
        <ele>195.48</ele>
        <time>2019-06-10T12:44:56.000Z</time>
      </trkpt>
      <trkpt lat="43.60514" lon="1.43735">
        <ele>195.48</ele>
        <time>2019-06-10T12:44:59.000Z</time>
      </trkpt>
      <trkpt lat="43.60502" lon="1.43726">
        <ele>195.46</ele>
        <time>2019-06-10T12:45:02.000Z</time>
      </trkpt>
      <trkpt lat="43.60494" lon="1.43719">
        <ele>195.47</ele>
        <time>2019-06-10T12:45:04.000Z</time>
      </trkpt>
      <trkpt lat="43.60486" lon="1.43713">
        <ele>195.47</ele>
        <time>2019-06-10T12:45:06.000Z</time>
      </trkpt>
      <trkpt lat="43.60479" lon="1.43705">
        <ele>195.48</ele>
        <time>2019-06-10T12:45:08.000Z</time>
      </trkpt>
      <trkpt lat="43.60468" lon="1.43695">
        <ele>195.49</ele>
        <time>2019-06-10T12:45:11.000Z</time>
      </trkpt>
      <trkpt lat="43.60458" lon="1.43683">
        <ele>195.49</ele>
        <time>2019-06-10T12:45:14.000Z</time>
      </trkpt>
      <trkpt lat="43.60448" lon="1.43671">
        <ele>195.46</ele>
        <time>2019-06-10T12:45:17.000Z</time>
      </trkpt>
      <trkpt lat="43.60437" lon="1.4366">
        <ele>195.4</ele>
        <time>2019-06-10T12:45:20.000Z</time>
      </trkpt>
      <trkpt lat="43.60427" lon="1.4365">
        <ele>195.38</ele>
        <time>2019-06-10T12:45:23.000Z</time>
      </trkpt>
      <trkpt lat="43.6042" lon="1.43642">
        <ele>195.38</ele>
        <time>2019-06-10T12:45:25.000Z</time>
      </trkpt>
      <trkpt lat="43.60413" lon="1.43633">
        <ele>195.41</ele>
        <time>2019-06-10T12:45:27.000Z</time>
      </trkpt>
      <trkpt lat="43.60405" lon="1.43624">
        <ele>195.45</ele>
        <time>2019-06-10T12:45:29.000Z</time>
      </trkpt>
      <trkpt lat="43.60398" lon="1.43615">
        <ele>195.47</ele>
        <time>2019-06-10T12:45:31.000Z</time>
      </trkpt>
      <trkpt lat="43.6039" lon="1.43608">
        <ele>195.48</ele>
        <time>2019-06-10T12:45:33.000Z</time>
      </trkpt>
      <trkpt lat="43.60381" lon="1.436">
        <ele>195.5</ele>
        <time>2019-06-10T12:45:35.000Z</time>
      </trkpt>
      <trkpt lat="43.60373" lon="1.43594">
        <ele>195.52</ele>
        <time>2019-06-10T12:45:37.000Z</time>
      </trkpt>
      <trkpt lat="43.6036" lon="1.43592">
        <ele>195.53</ele>
        <time>2019-06-10T12:45:40.000Z</time>
      </trkpt>
      <trkpt lat="43.60348" lon="1.43589">
        <ele>195.54</ele>
        <time>2019-06-10T12:45:43.000Z</time>
      </trkpt>
      <trkpt lat="43.60337" lon="1.43587">
        <ele>195.54</ele>
        <time>2019-06-10T12:45:46.000Z</time>
      </trkpt>
      <trkpt lat="43.60324" lon="1.43588">
        <ele>195.54</ele>
        <time>2019-06-10T12:45:49.000Z</time>
      </trkpt>
      <trkpt lat="43.60311" lon="1.43591">
        <ele>195.56</ele>
        <time>2019-06-10T12:45:52.000Z</time>
      </trkpt>
      <trkpt lat="43.60299" lon="1.43595">
        <ele>195.56</ele>
        <time>2019-06-10T12:45:55.000Z</time>
      </trkpt>
      <trkpt lat="43.6029" lon="1.43603">
        <ele>195.56</ele>
        <time>2019-06-10T12:45:58.000Z</time>
      </trkpt>
      <trkpt lat="43.6028" lon="1.43616">
        <ele>195.58</ele>
        <time>2019-06-10T12:46:01.000Z</time>
      </trkpt>
      <trkpt lat="43.60273" lon="1.43627">
        <ele>195.59</ele>
        <time>2019-06-10T12:46:04.000Z</time>
      </trkpt>
      <trkpt lat="43.60265" lon="1.43638">
        <ele>195.6</ele>
        <time>2019-06-10T12:46:07.000Z</time>
      </trkpt>
      <trkpt lat="43.60258" lon="1.43652">
        <ele>195.62</ele>
        <time>2019-06-10T12:46:11.000Z</time>
      </trkpt>
      <trkpt lat="43.60252" lon="1.43666">
        <ele>195.63</ele>
        <time>2019-06-10T12:46:13.000Z</time>
      </trkpt>
      <trkpt lat="43.60244" lon="1.43679">
        <ele>195.65</ele>
        <time>2019-06-10T12:46:16.000Z</time>
      </trkpt>
      <trkpt lat="43.60237" lon="1.43691">
        <ele>195.68</ele>
        <time>2019-06-10T12:46:19.000Z</time>
      </trkpt>
      <trkpt lat="43.60227" lon="1.43706">
        <ele>195.71</ele>
        <time>2019-06-10T12:46:22.000Z</time>
      </trkpt>
      <trkpt lat="43.6022" lon="1.43717">
        <ele>195.74</ele>
        <time>2019-06-10T12:46:24.000Z</time>
      </trkpt>
      <trkpt lat="43.60213" lon="1.43729">
        <ele>195.77</ele>
        <time>2019-06-10T12:46:26.000Z</time>
      </trkpt>
      <trkpt lat="43.60206" lon="1.4374">
        <ele>195.8</ele>
        <time>2019-06-10T12:46:28.000Z</time>
      </trkpt>
      <trkpt lat="43.602" lon="1.4375">
        <ele>195.84</ele>
        <time>2019-06-10T12:46:30.000Z</time>
      </trkpt>
      <trkpt lat="43.60195" lon="1.43763">
        <ele>195.88</ele>
        <time>2019-06-10T12:46:32.000Z</time>
      </trkpt>
      <trkpt lat="43.60188" lon="1.43777">
        <ele>195.92</ele>
        <time>2019-06-10T12:46:34.000Z</time>
      </trkpt>
      <trkpt lat="43.6018" lon="1.43793">
        <ele>195.99</ele>
        <time>2019-06-10T12:46:37.000Z</time>
      </trkpt>
      <trkpt lat="43.60175" lon="1.43803">
        <ele>196.03</ele>
        <time>2019-06-10T12:46:39.000Z</time>
      </trkpt>
      <trkpt lat="43.60171" lon="1.43817">
        <ele>196.06</ele>
        <time>2019-06-10T12:46:41.000Z</time>
      </trkpt>
      <trkpt lat="43.60172" lon="1.43832">
        <ele>196.1</ele>
        <time>2019-06-10T12:46:43.000Z</time>
      </trkpt>
      <trkpt lat="43.60177" lon="1.43844">
        <ele>196.13</ele>
        <time>2019-06-10T12:46:45.000Z</time>
      </trkpt>
      <trkpt lat="43.60182" lon="1.43855">
        <ele>196.16</ele>
        <time>2019-06-10T12:46:47.000Z</time>
      </trkpt>
      <trkpt lat="43.60188" lon="1.43864">
        <ele>196.19</ele>
        <time>2019-06-10T12:46:49.000Z</time>
      </trkpt>
      <trkpt lat="43.60193" lon="1.43877">
        <ele>196.22</ele>
        <time>2019-06-10T12:46:51.000Z</time>
      </trkpt>
      <trkpt lat="43.60192" lon="1.43891">
        <ele>196.42</ele>
        <time>2019-06-10T12:46:53.000Z</time>
      </trkpt>
      <trkpt lat="43.60188" lon="1.43904">
        <ele>196.51</ele>
        <time>2019-06-10T12:46:55.000Z</time>
      </trkpt>
      <trkpt lat="43.60183" lon="1.43914">
        <ele>196.57</ele>
        <time>2019-06-10T12:46:57.000Z</time>
      </trkpt>
      <trkpt lat="43.60176" lon="1.43929">
        <ele>196.61</ele>
        <time>2019-06-10T12:47:00.000Z</time>
      </trkpt>
      <trkpt lat="43.60168" lon="1.43943">
        <ele>196.65</ele>
        <time>2019-06-10T12:47:03.000Z</time>
      </trkpt>
      <trkpt lat="43.60162" lon="1.43953">
        <ele>196.66</ele>
        <time>2019-06-10T12:47:05.000Z</time>
      </trkpt>
      <trkpt lat="43.60153" lon="1.43966">
        <ele>196.66</ele>
        <time>2019-06-10T12:47:08.000Z</time>
      </trkpt>
      <trkpt lat="43.60144" lon="1.43975">
        <ele>196.68</ele>
        <time>2019-06-10T12:47:11.000Z</time>
      </trkpt>
      <trkpt lat="43.60132" lon="1.43974">
        <ele>196.7</ele>
        <time>2019-06-10T12:47:14.000Z</time>
      </trkpt>
      <trkpt lat="43.60125" lon="1.43966">
        <ele>196.7</ele>
        <time>2019-06-10T12:47:17.000Z</time>
      </trkpt>
      <trkpt lat="43.60118" lon="1.43955">
        <ele>196.7</ele>
        <time>2019-06-10T12:47:20.000Z</time>
      </trkpt>
      <trkpt lat="43.6011" lon="1.43944">
        <ele>196.69</ele>
        <time>2019-06-10T12:47:22.000Z</time>
      </trkpt>
      <trkpt lat="43.60102" lon="1.43935">
        <ele>196.68</ele>
        <time>2019-06-10T12:47:24.000Z</time>
      </trkpt>
      <trkpt lat="43.60091" lon="1.43928">
        <ele>196.68</ele>
        <time>2019-06-10T12:47:27.000Z</time>
      </trkpt>
      <trkpt lat="43.60081" lon="1.43931">
        <ele>196.67</ele>
        <time>2019-06-10T12:47:30.000Z</time>
      </trkpt>
      <trkpt lat="43.60072" lon="1.43941">
        <ele>196.67</ele>
        <time>2019-06-10T12:47:33.000Z</time>
      </trkpt>
      <trkpt lat="43.60062" lon="1.43953">
        <ele>196.66</ele>
        <time>2019-06-10T12:47:36.000Z</time>
      </trkpt>
      <trkpt lat="43.60052" lon="1.43962">
        <ele>196.65</ele>
        <time>2019-06-10T12:47:39.000Z</time>
      </trkpt>
      <trkpt lat="43.60042" lon="1.43972">
        <ele>196.65</ele>
        <time>2019-06-10T12:47:42.000Z</time>
      </trkpt>
      <trkpt lat="43.60035" lon="1.43981">
        <ele>196.64</ele>
        <time>2019-06-10T12:47:44.000Z</time>
      </trkpt>
      <trkpt lat="43.60026" lon="1.43989">
        <ele>196.64</ele>
        <time>2019-06-10T12:47:47.000Z</time>
      </trkpt>
      <trkpt lat="43.60017" lon="1.43997">
        <ele>196.64</ele>
        <time>2019-06-10T12:47:50.000Z</time>
      </trkpt>
      <trkpt lat="43.60007" lon="1.44007">
        <ele>196.63</ele>
        <time>2019-06-10T12:47:53.000Z</time>
      </trkpt>
      <trkpt lat="43.59999" lon="1.44015">
        <ele>196.63</ele>
        <time>2019-06-10T12:47:55.000Z</time>
      </trkpt>
      <trkpt lat="43.59988" lon="1.44024">
        <ele>196.61</ele>
        <time>2019-06-10T12:47:58.000Z</time>
      </trkpt>
      <trkpt lat="43.5998" lon="1.44032">
        <ele>196.6</ele>
        <time>2019-06-10T12:48:01.000Z</time>
      </trkpt>
      <trkpt lat="43.5997" lon="1.44039">
        <ele>196.58</ele>
        <time>2019-06-10T12:48:05.000Z</time>
      </trkpt>
      <trkpt lat="43.59961" lon="1.4404">
        <ele>196.45</ele>
        <time>2019-06-10T12:48:31.000Z</time>
      </trkpt>
      <trkpt lat="43.59952" lon="1.44047">
        <ele>196.4</ele>
        <time>2019-06-10T12:48:37.000Z</time>
      </trkpt>
      <trkpt lat="43.59942" lon="1.44051">
        <ele>195.67</ele>
        <time>2019-06-10T13:00:50.000Z</time>
      </trkpt>
      <trkpt lat="43.59927" lon="1.44049">
        <ele>196.1</ele>
        <time>2019-06-10T13:00:55.000Z</time>
      </trkpt>
      <trkpt lat="43.59914" lon="1.44047">
        <ele>196.81</ele>
        <time>2019-06-10T13:00:58.000Z</time>
      </trkpt>
      <trkpt lat="43.59901" lon="1.44045">
        <ele>197.13</ele>
        <time>2019-06-10T13:01:01.000Z</time>
      </trkpt>
      <trkpt lat="43.59892" lon="1.44043">
        <ele>196.66</ele>
        <time>2019-06-10T13:01:03.000Z</time>
      </trkpt>
      <trkpt lat="43.59881" lon="1.4404">
        <ele>196</ele>
        <time>2019-06-10T13:01:06.000Z</time>
      </trkpt>
      <trkpt lat="43.59869" lon="1.44035">
        <ele>195.51</ele>
        <time>2019-06-10T13:01:09.000Z</time>
      </trkpt>
      <trkpt lat="43.59856" lon="1.44031">
        <ele>195.22</ele>
        <time>2019-06-10T13:01:12.000Z</time>
      </trkpt>
      <trkpt lat="43.59846" lon="1.44027">
        <ele>195.18</ele>
        <time>2019-06-10T13:01:15.000Z</time>
      </trkpt>
      <trkpt lat="43.59832" lon="1.44025">
        <ele>194.97</ele>
        <time>2019-06-10T13:01:18.000Z</time>
      </trkpt>
      <trkpt lat="43.5982" lon="1.44022">
        <ele>194.98</ele>
        <time>2019-06-10T13:01:21.000Z</time>
      </trkpt>
      <trkpt lat="43.59806" lon="1.44018">
        <ele>194.93</ele>
        <time>2019-06-10T13:01:24.000Z</time>
      </trkpt>
      <trkpt lat="43.59793" lon="1.44017">
        <ele>194.08</ele>
        <time>2019-06-10T13:01:26.000Z</time>
      </trkpt>
      <trkpt lat="43.59782" lon="1.44015">
        <ele>193.94</ele>
        <time>2019-06-10T13:01:28.000Z</time>
      </trkpt>
      <trkpt lat="43.59771" lon="1.44015">
        <ele>193.22</ele>
        <time>2019-06-10T13:01:30.000Z</time>
      </trkpt>
      <trkpt lat="43.5976" lon="1.44017">
        <ele>193.52</ele>
        <time>2019-06-10T13:01:32.000Z</time>
      </trkpt>
      <trkpt lat="43.59747" lon="1.44018">
        <ele>193.54</ele>
        <time>2019-06-10T13:01:35.000Z</time>
      </trkpt>
      <trkpt lat="43.59733" lon="1.4402">
        <ele>193.67</ele>
        <time>2019-06-10T13:01:38.000Z</time>
      </trkpt>
      <trkpt lat="43.59724" lon="1.44021">
        <ele>193.81</ele>
        <time>2019-06-10T13:01:40.000Z</time>
      </trkpt>
      <trkpt lat="43.59713" lon="1.44023">
        <ele>193.92</ele>
        <time>2019-06-10T13:01:42.000Z</time>
      </trkpt>
      <trkpt lat="43.59703" lon="1.44024">
        <ele>193.88</ele>
        <time>2019-06-10T13:01:44.000Z</time>
      </trkpt>
      <trkpt lat="43.5969" lon="1.44026">
        <ele>193.87</ele>
        <time>2019-06-10T13:01:47.000Z</time>
      </trkpt>
      <trkpt lat="43.59681" lon="1.44028">
        <ele>193.88</ele>
        <time>2019-06-10T13:01:49.000Z</time>
      </trkpt>
      <trkpt lat="43.5967" lon="1.44032">
        <ele>193.93</ele>
        <time>2019-06-10T13:01:52.000Z</time>
      </trkpt>
      <trkpt lat="43.59658" lon="1.44034">
        <ele>193.82</ele>
        <time>2019-06-10T13:01:55.000Z</time>
      </trkpt>
      <trkpt lat="43.59644" lon="1.44035">
        <ele>193.66</ele>
        <time>2019-06-10T13:01:58.000Z</time>
      </trkpt>
      <trkpt lat="43.59633" lon="1.44033">
        <ele>193.55</ele>
        <time>2019-06-10T13:02:01.000Z</time>
      </trkpt>
      <trkpt lat="43.5962" lon="1.44035">
        <ele>193.46</ele>
        <time>2019-06-10T13:02:04.000Z</time>
      </trkpt>
      <trkpt lat="43.59606" lon="1.44036">
        <ele>193.39</ele>
        <time>2019-06-10T13:02:07.000Z</time>
      </trkpt>
      <trkpt lat="43.59596" lon="1.44038">
        <ele>193.39</ele>
        <time>2019-06-10T13:02:09.000Z</time>
      </trkpt>
      <trkpt lat="43.59587" lon="1.44039">
        <ele>193.59</ele>
        <time>2019-06-10T13:02:11.000Z</time>
      </trkpt>
      <trkpt lat="43.59574" lon="1.4404">
        <ele>193.62</ele>
        <time>2019-06-10T13:02:14.000Z</time>
      </trkpt>
      <trkpt lat="43.5956" lon="1.44043">
        <ele>193.61</ele>
        <time>2019-06-10T13:02:17.000Z</time>
      </trkpt>
      <trkpt lat="43.59549" lon="1.44043">
        <ele>193.5</ele>
        <time>2019-06-10T13:02:20.000Z</time>
      </trkpt>
      <trkpt lat="43.59536" lon="1.44044">
        <ele>193.3</ele>
        <time>2019-06-10T13:02:23.000Z</time>
      </trkpt>
      <trkpt lat="43.59523" lon="1.44047">
        <ele>193.18</ele>
        <time>2019-06-10T13:02:26.000Z</time>
      </trkpt>
      <trkpt lat="43.59514" lon="1.4405">
        <ele>193.12</ele>
        <time>2019-06-10T13:02:28.000Z</time>
      </trkpt>
      <trkpt lat="43.59501" lon="1.44053">
        <ele>193.03</ele>
        <time>2019-06-10T13:02:31.000Z</time>
      </trkpt>
      <trkpt lat="43.59489" lon="1.44058">
        <ele>192.82</ele>
        <time>2019-06-10T13:02:34.000Z</time>
      </trkpt>
      <trkpt lat="43.59478" lon="1.4406">
        <ele>192.43</ele>
        <time>2019-06-10T13:02:37.000Z</time>
      </trkpt>
      <trkpt lat="43.59468" lon="1.44059">
        <ele>190.71</ele>
        <time>2019-06-10T13:02:39.000Z</time>
      </trkpt>
      <trkpt lat="43.59459" lon="1.44059">
        <ele>190.54</ele>
        <time>2019-06-10T13:02:41.000Z</time>
      </trkpt>
      <trkpt lat="43.59448" lon="1.44056">
        <ele>190.32</ele>
        <time>2019-06-10T13:02:44.000Z</time>
      </trkpt>
      <trkpt lat="43.59438" lon="1.44056">
        <ele>190.18</ele>
        <time>2019-06-10T13:02:47.000Z</time>
      </trkpt>
      <trkpt lat="43.59428" lon="1.44058">
        <ele>190.1</ele>
        <time>2019-06-10T13:02:50.000Z</time>
      </trkpt>
      <trkpt lat="43.59417" lon="1.44059">
        <ele>190.01</ele>
        <time>2019-06-10T13:02:53.000Z</time>
      </trkpt>
      <trkpt lat="43.59407" lon="1.44061">
        <ele>189.94</ele>
        <time>2019-06-10T13:02:56.000Z</time>
      </trkpt>
      <trkpt lat="43.59396" lon="1.44062">
        <ele>189.86</ele>
        <time>2019-06-10T13:02:59.000Z</time>
      </trkpt>
      <trkpt lat="43.59385" lon="1.44064">
        <ele>189.79</ele>
        <time>2019-06-10T13:03:02.000Z</time>
      </trkpt>
      <trkpt lat="43.59374" lon="1.44065">
        <ele>189.72</ele>
        <time>2019-06-10T13:03:05.000Z</time>
      </trkpt>
      <trkpt lat="43.59364" lon="1.44066">
        <ele>189.66</ele>
        <time>2019-06-10T13:03:08.000Z</time>
      </trkpt>
      <trkpt lat="43.59353" lon="1.44067">
        <ele>189.41</ele>
        <time>2019-06-10T13:03:11.000Z</time>
      </trkpt>
      <trkpt lat="43.5934" lon="1.44069">
        <ele>188.94</ele>
        <time>2019-06-10T13:03:14.000Z</time>
      </trkpt>
      <trkpt lat="43.59327" lon="1.4407">
        <ele>188.59</ele>
        <time>2019-06-10T13:03:17.000Z</time>
      </trkpt>
      <trkpt lat="43.59314" lon="1.44076">
        <ele>188.51</ele>
        <time>2019-06-10T13:03:20.000Z</time>
      </trkpt>
      <trkpt lat="43.59305" lon="1.44078">
        <ele>188.76</ele>
        <time>2019-06-10T13:03:22.000Z</time>
      </trkpt>
      <trkpt lat="43.59296" lon="1.44079">
        <ele>188.91</ele>
        <time>2019-06-10T13:03:24.000Z</time>
      </trkpt>
      <trkpt lat="43.59286" lon="1.4408">
        <ele>189.04</ele>
        <time>2019-06-10T13:03:26.000Z</time>
      </trkpt>
      <trkpt lat="43.59275" lon="1.44076">
        <ele>189.19</ele>
        <time>2019-06-10T13:03:29.000Z</time>
      </trkpt>
      <trkpt lat="43.59266" lon="1.44077">
        <ele>189.31</ele>
        <time>2019-06-10T13:03:33.000Z</time>
      </trkpt>
      <trkpt lat="43.59257" lon="1.4408">
        <ele>189.44</ele>
        <time>2019-06-10T13:03:37.000Z</time>
      </trkpt>
      <trkpt lat="43.59246" lon="1.44083">
        <ele>189.63</ele>
        <time>2019-06-10T13:03:41.000Z</time>
      </trkpt>
      <trkpt lat="43.59237" lon="1.44087">
        <ele>189.79</ele>
        <time>2019-06-10T13:03:44.000Z</time>
      </trkpt>
      <trkpt lat="43.59227" lon="1.44097">
        <ele>190.01</ele>
        <time>2019-06-10T13:03:48.000Z</time>
      </trkpt>
      <trkpt lat="43.59224" lon="1.44111">
        <ele>190.19</ele>
        <time>2019-06-10T13:03:51.000Z</time>
      </trkpt>
      <trkpt lat="43.59223" lon="1.44125">
        <ele>190.42</ele>
        <time>2019-06-10T13:03:54.000Z</time>
      </trkpt>
      <trkpt lat="43.5922" lon="1.44141">
        <ele>191.38</ele>
        <time>2019-06-10T13:03:57.000Z</time>
      </trkpt>
      <trkpt lat="43.59219" lon="1.44158">
        <ele>192.89</ele>
        <time>2019-06-10T13:04:00.000Z</time>
      </trkpt>
      <trkpt lat="43.59219" lon="1.44176">
        <ele>193.3</ele>
        <time>2019-06-10T13:04:03.000Z</time>
      </trkpt>
      <trkpt lat="43.59218" lon="1.44192">
        <ele>193.31</ele>
        <time>2019-06-10T13:04:06.000Z</time>
      </trkpt>
      <trkpt lat="43.59219" lon="1.44206">
        <ele>193.37</ele>
        <time>2019-06-10T13:04:09.000Z</time>
      </trkpt>
      <trkpt lat="43.59226" lon="1.44217">
        <ele>194.3</ele>
        <time>2019-06-10T13:04:12.000Z</time>
      </trkpt>
      <trkpt lat="43.59231" lon="1.44229">
        <ele>195.03</ele>
        <time>2019-06-10T13:04:15.000Z</time>
      </trkpt>
      <trkpt lat="43.59235" lon="1.44241">
        <ele>195.2</ele>
        <time>2019-06-10T13:04:18.000Z</time>
      </trkpt>
      <trkpt lat="43.59233" lon="1.44253">
        <ele>195.32</ele>
        <time>2019-06-10T13:04:23.000Z</time>
      </trkpt>
      <trkpt lat="43.59224" lon="1.44263">
        <ele>195.24</ele>
        <time>2019-06-10T13:04:28.000Z</time>
      </trkpt>
      <trkpt lat="43.59213" lon="1.44261">
        <ele>195.38</ele>
        <time>2019-06-10T13:04:33.000Z</time>
      </trkpt>
      <trkpt lat="43.59209" lon="1.44247">
        <ele>195.43</ele>
        <time>2019-06-10T13:04:37.000Z</time>
      </trkpt>
      <trkpt lat="43.59205" lon="1.44236">
        <ele>195.37</ele>
        <time>2019-06-10T13:04:41.000Z</time>
      </trkpt>
      <trkpt lat="43.59199" lon="1.44224">
        <ele>195.2</ele>
        <time>2019-06-10T13:04:45.000Z</time>
      </trkpt>
      <trkpt lat="43.5919" lon="1.44217">
        <ele>194.95</ele>
        <time>2019-06-10T13:04:49.000Z</time>
      </trkpt>
      <trkpt lat="43.59181" lon="1.442">
        <ele>193.12</ele>
        <time>2019-06-10T13:04:53.000Z</time>
      </trkpt>
      <trkpt lat="43.59175" lon="1.44188">
        <ele>192.13</ele>
        <time>2019-06-10T13:04:55.000Z</time>
      </trkpt>
      <trkpt lat="43.5917" lon="1.44178">
        <ele>191.79</ele>
        <time>2019-06-10T13:04:57.000Z</time>
      </trkpt>
      <trkpt lat="43.59164" lon="1.44162">
        <ele>191.14</ele>
        <time>2019-06-10T13:04:59.000Z</time>
      </trkpt>
      <trkpt lat="43.5916" lon="1.44146">
        <ele>190.07</ele>
        <time>2019-06-10T13:05:01.000Z</time>
      </trkpt>
      <trkpt lat="43.59148" lon="1.44138">
        <ele>188.7</ele>
        <time>2019-06-10T13:05:03.000Z</time>
      </trkpt>
      <trkpt lat="43.59136" lon="1.44132">
        <ele>187.52</ele>
        <time>2019-06-10T13:05:05.000Z</time>
      </trkpt>
      <trkpt lat="43.59127" lon="1.44129">
        <ele>186.79</ele>
        <time>2019-06-10T13:05:07.000Z</time>
      </trkpt>
      <trkpt lat="43.59117" lon="1.44126">
        <ele>186.97</ele>
        <time>2019-06-10T13:05:09.000Z</time>
      </trkpt>
      <trkpt lat="43.59106" lon="1.44122">
        <ele>187.48</ele>
        <time>2019-06-10T13:05:11.000Z</time>
      </trkpt>
      <trkpt lat="43.59095" lon="1.44123">
        <ele>187.7</ele>
        <time>2019-06-10T13:05:13.000Z</time>
      </trkpt>
      <trkpt lat="43.59084" lon="1.44121">
        <ele>187.87</ele>
        <time>2019-06-10T13:05:15.000Z</time>
      </trkpt>
      <trkpt lat="43.59073" lon="1.4412">
        <ele>188.18</ele>
        <time>2019-06-10T13:05:17.000Z</time>
      </trkpt>
      <trkpt lat="43.59062" lon="1.44118">
        <ele>188.18</ele>
        <time>2019-06-10T13:05:19.000Z</time>
      </trkpt>
      <trkpt lat="43.59052" lon="1.44116">
        <ele>188.33</ele>
        <time>2019-06-10T13:05:21.000Z</time>
      </trkpt>
      <trkpt lat="43.59041" lon="1.44113">
        <ele>188.68</ele>
        <time>2019-06-10T13:05:23.000Z</time>
      </trkpt>
      <trkpt lat="43.59032" lon="1.4411">
        <ele>188.82</ele>
        <time>2019-06-10T13:05:25.000Z</time>
      </trkpt>
      <trkpt lat="43.59018" lon="1.44105">
        <ele>188.84</ele>
        <time>2019-06-10T13:05:28.000Z</time>
      </trkpt>
      <trkpt lat="43.59023" lon="1.44094">
        <ele>189.25</ele>
        <time>2019-06-10T13:05:37.000Z</time>
      </trkpt>
      <trkpt lat="43.59014" lon="1.44086">
        <ele>190.03</ele>
        <time>2019-06-10T13:05:52.000Z</time>
      </trkpt>
      <trkpt lat="43.59005" lon="1.44082">
        <ele>189.99</ele>
        <time>2019-06-10T13:05:55.000Z</time>
      </trkpt>
      <trkpt lat="43.58997" lon="1.44077">
        <ele>189.88</ele>
        <time>2019-06-10T13:05:58.000Z</time>
      </trkpt>
      <trkpt lat="43.58988" lon="1.44071">
        <ele>189.75</ele>
        <time>2019-06-10T13:06:01.000Z</time>
      </trkpt>
      <trkpt lat="43.58977" lon="1.44063">
        <ele>189</ele>
        <time>2019-06-10T13:06:04.000Z</time>
      </trkpt>
      <trkpt lat="43.58966" lon="1.44056">
        <ele>188.04</ele>
        <time>2019-06-10T13:06:07.000Z</time>
      </trkpt>
      <trkpt lat="43.58955" lon="1.44048">
        <ele>187.64</ele>
        <time>2019-06-10T13:06:10.000Z</time>
      </trkpt>
      <trkpt lat="43.58946" lon="1.44042">
        <ele>187.56</ele>
        <time>2019-06-10T13:06:13.000Z</time>
      </trkpt>
      <trkpt lat="43.58936" lon="1.44033">
        <ele>187.49</ele>
        <time>2019-06-10T13:06:16.000Z</time>
      </trkpt>
      <trkpt lat="43.58926" lon="1.44025">
        <ele>187.46</ele>
        <time>2019-06-10T13:06:19.000Z</time>
      </trkpt>
      <trkpt lat="43.58917" lon="1.44015">
        <ele>187.62</ele>
        <time>2019-06-10T13:06:22.000Z</time>
      </trkpt>
      <trkpt lat="43.58908" lon="1.44007">
        <ele>187.33</ele>
        <time>2019-06-10T13:06:25.000Z</time>
      </trkpt>
      <trkpt lat="43.58898" lon="1.43996">
        <ele>187.13</ele>
        <time>2019-06-10T13:06:28.000Z</time>
      </trkpt>
      <trkpt lat="43.58888" lon="1.43986">
        <ele>187.35</ele>
        <time>2019-06-10T13:06:31.000Z</time>
      </trkpt>
      <trkpt lat="43.58878" lon="1.43977">
        <ele>187.34</ele>
        <time>2019-06-10T13:06:34.000Z</time>
      </trkpt>
      <trkpt lat="43.58867" lon="1.43968">
        <ele>187.37</ele>
        <time>2019-06-10T13:06:37.000Z</time>
      </trkpt>
      <trkpt lat="43.58855" lon="1.43959">
        <ele>187.17</ele>
        <time>2019-06-10T13:06:40.000Z</time>
      </trkpt>
      <trkpt lat="43.58844" lon="1.43952">
        <ele>186.97</ele>
        <time>2019-06-10T13:06:43.000Z</time>
      </trkpt>
      <trkpt lat="43.58836" lon="1.43946">
        <ele>187.05</ele>
        <time>2019-06-10T13:06:45.000Z</time>
      </trkpt>
      <trkpt lat="43.58824" lon="1.43939">
        <ele>187.25</ele>
        <time>2019-06-10T13:06:48.000Z</time>
      </trkpt>
      <trkpt lat="43.58812" lon="1.43932">
        <ele>187.69</ele>
        <time>2019-06-10T13:06:51.000Z</time>
      </trkpt>
      <trkpt lat="43.588" lon="1.43926">
        <ele>187.85</ele>
        <time>2019-06-10T13:06:54.000Z</time>
      </trkpt>
      <trkpt lat="43.58788" lon="1.43921">
        <ele>187.5</ele>
        <time>2019-06-10T13:06:57.000Z</time>
      </trkpt>
      <trkpt lat="43.58776" lon="1.43916">
        <ele>187.28</ele>
        <time>2019-06-10T13:07:00.000Z</time>
      </trkpt>
      <trkpt lat="43.58763" lon="1.43912">
        <ele>187.19</ele>
        <time>2019-06-10T13:07:03.000Z</time>
      </trkpt>
      <trkpt lat="43.58751" lon="1.43909">
        <ele>187.11</ele>
        <time>2019-06-10T13:07:06.000Z</time>
      </trkpt>
      <trkpt lat="43.58738" lon="1.43907">
        <ele>187.45</ele>
        <time>2019-06-10T13:07:09.000Z</time>
      </trkpt>
      <trkpt lat="43.58726" lon="1.43906">
        <ele>187.68</ele>
        <time>2019-06-10T13:07:12.000Z</time>
      </trkpt>
      <trkpt lat="43.58714" lon="1.43905">
        <ele>188.02</ele>
        <time>2019-06-10T13:07:15.000Z</time>
      </trkpt>
      <trkpt lat="43.58703" lon="1.43905">
        <ele>188.14</ele>
        <time>2019-06-10T13:07:18.000Z</time>
      </trkpt>
      <trkpt lat="43.58691" lon="1.43904">
        <ele>188.58</ele>
        <time>2019-06-10T13:07:21.000Z</time>
      </trkpt>
      <trkpt lat="43.5868" lon="1.43905">
        <ele>189.47</ele>
        <time>2019-06-10T13:07:24.000Z</time>
      </trkpt>
      <trkpt lat="43.58669" lon="1.43905">
        <ele>189.54</ele>
        <time>2019-06-10T13:07:27.000Z</time>
      </trkpt>
      <trkpt lat="43.58658" lon="1.43907">
        <ele>189.56</ele>
        <time>2019-06-10T13:07:30.000Z</time>
      </trkpt>
      <trkpt lat="43.58646" lon="1.43908">
        <ele>189.54</ele>
        <time>2019-06-10T13:07:33.000Z</time>
      </trkpt>
      <trkpt lat="43.58634" lon="1.4391">
        <ele>189.76</ele>
        <time>2019-06-10T13:07:36.000Z</time>
      </trkpt>
      <trkpt lat="43.58623" lon="1.43914">
        <ele>189.96</ele>
        <time>2019-06-10T13:07:39.000Z</time>
      </trkpt>
      <trkpt lat="43.58612" lon="1.43919">
        <ele>190</ele>
        <time>2019-06-10T13:07:42.000Z</time>
      </trkpt>
      <trkpt lat="43.58602" lon="1.43922">
        <ele>189.99</ele>
        <time>2019-06-10T13:07:45.000Z</time>
      </trkpt>
      <trkpt lat="43.58591" lon="1.43923">
        <ele>190.02</ele>
        <time>2019-06-10T13:07:49.000Z</time>
      </trkpt>
      <trkpt lat="43.58579" lon="1.43925">
        <ele>190.45</ele>
        <time>2019-06-10T13:07:52.000Z</time>
      </trkpt>
      <trkpt lat="43.58569" lon="1.43928">
        <ele>191.03</ele>
        <time>2019-06-10T13:07:54.000Z</time>
      </trkpt>
      <trkpt lat="43.5856" lon="1.4393">
        <ele>191.61</ele>
        <time>2019-06-10T13:07:56.000Z</time>
      </trkpt>
      <trkpt lat="43.58548" lon="1.43933">
        <ele>191.7</ele>
        <time>2019-06-10T13:07:59.000Z</time>
      </trkpt>
      <trkpt lat="43.58538" lon="1.43935">
        <ele>191.75</ele>
        <time>2019-06-10T13:08:02.000Z</time>
      </trkpt>
      <trkpt lat="43.58527" lon="1.43937">
        <ele>191.93</ele>
        <time>2019-06-10T13:08:05.000Z</time>
      </trkpt>
      <trkpt lat="43.58516" lon="1.43939">
        <ele>192.2</ele>
        <time>2019-06-10T13:08:08.000Z</time>
      </trkpt>
      <trkpt lat="43.58505" lon="1.43939">
        <ele>192.2</ele>
        <time>2019-06-10T13:08:11.000Z</time>
      </trkpt>
      <trkpt lat="43.58495" lon="1.43939">
        <ele>192.12</ele>
        <time>2019-06-10T13:08:14.000Z</time>
      </trkpt>
      <trkpt lat="43.58485" lon="1.43939">
        <ele>191.93</ele>
        <time>2019-06-10T13:08:17.000Z</time>
      </trkpt>
      <trkpt lat="43.58473" lon="1.43936">
        <ele>191.65</ele>
        <time>2019-06-10T13:08:21.000Z</time>
      </trkpt>
      <trkpt lat="43.58463" lon="1.43934">
        <ele>191.42</ele>
        <time>2019-06-10T13:08:24.000Z</time>
      </trkpt>
      <trkpt lat="43.58452" lon="1.43933">
        <ele>191.16</ele>
        <time>2019-06-10T13:08:27.000Z</time>
      </trkpt>
      <trkpt lat="43.58442" lon="1.4393">
        <ele>191.02</ele>
        <time>2019-06-10T13:08:30.000Z</time>
      </trkpt>
      <trkpt lat="43.58431" lon="1.43926">
        <ele>190.94</ele>
        <time>2019-06-10T13:08:34.000Z</time>
      </trkpt>
      <trkpt lat="43.58422" lon="1.4392">
        <ele>190.87</ele>
        <time>2019-06-10T13:08:41.000Z</time>
      </trkpt>
      <trkpt lat="43.58413" lon="1.43918">
        <ele>190.55</ele>
        <time>2019-06-10T13:08:43.000Z</time>
      </trkpt>
      <trkpt lat="43.584" lon="1.43919">
        <ele>189.45</ele>
        <time>2019-06-10T13:08:45.000Z</time>
      </trkpt>
      <trkpt lat="43.58389" lon="1.43918">
        <ele>186.73</ele>
        <time>2019-06-10T13:08:47.000Z</time>
      </trkpt>
      <trkpt lat="43.58378" lon="1.43916">
        <ele>184.98</ele>
        <time>2019-06-10T13:08:49.000Z</time>
      </trkpt>
      <trkpt lat="43.58368" lon="1.43914">
        <ele>184.2</ele>
        <time>2019-06-10T13:08:51.000Z</time>
      </trkpt>
      <trkpt lat="43.58359" lon="1.43911">
        <ele>183.82</ele>
        <time>2019-06-10T13:08:53.000Z</time>
      </trkpt>
      <trkpt lat="43.5835" lon="1.43908">
        <ele>183.4</ele>
        <time>2019-06-10T13:08:55.000Z</time>
      </trkpt>
      <trkpt lat="43.58337" lon="1.43905">
        <ele>183.18</ele>
        <time>2019-06-10T13:08:58.000Z</time>
      </trkpt>
      <trkpt lat="43.58325" lon="1.43902">
        <ele>183.54</ele>
        <time>2019-06-10T13:09:01.000Z</time>
      </trkpt>
      <trkpt lat="43.58314" lon="1.43898">
        <ele>183.86</ele>
        <time>2019-06-10T13:09:04.000Z</time>
      </trkpt>
      <trkpt lat="43.58304" lon="1.43895">
        <ele>183.95</ele>
        <time>2019-06-10T13:09:07.000Z</time>
      </trkpt>
      <trkpt lat="43.58295" lon="1.43892">
        <ele>184.07</ele>
        <time>2019-06-10T13:09:10.000Z</time>
      </trkpt>
      <trkpt lat="43.58285" lon="1.4389">
        <ele>184.16</ele>
        <time>2019-06-10T13:09:13.000Z</time>
      </trkpt>
      <trkpt lat="43.58275" lon="1.43889">
        <ele>184.36</ele>
        <time>2019-06-10T13:09:18.000Z</time>
      </trkpt>
      <trkpt lat="43.58267" lon="1.43882">
        <ele>185.05</ele>
        <time>2019-06-10T13:09:38.000Z</time>
      </trkpt>
      <trkpt lat="43.58257" lon="1.43877">
        <ele>185.52</ele>
        <time>2019-06-10T13:09:41.000Z</time>
      </trkpt>
      <trkpt lat="43.58247" lon="1.43876">
        <ele>186.07</ele>
        <time>2019-06-10T13:09:46.000Z</time>
      </trkpt>
      <trkpt lat="43.58237" lon="1.43871">
        <ele>186.39</ele>
        <time>2019-06-10T13:09:51.000Z</time>
      </trkpt>
      <trkpt lat="43.58226" lon="1.43869">
        <ele>186.53</ele>
        <time>2019-06-10T13:09:56.000Z</time>
      </trkpt>
      <trkpt lat="43.58216" lon="1.43865">
        <ele>186.58</ele>
        <time>2019-06-10T13:10:00.000Z</time>
      </trkpt>
      <trkpt lat="43.58208" lon="1.43857">
        <ele>186.6</ele>
        <time>2019-06-10T13:10:04.000Z</time>
      </trkpt>
      <trkpt lat="43.58198" lon="1.43851">
        <ele>186.52</ele>
        <time>2019-06-10T13:10:08.000Z</time>
      </trkpt>
      <trkpt lat="43.58189" lon="1.43847">
        <ele>186.48</ele>
        <time>2019-06-10T13:10:12.000Z</time>
      </trkpt>
      <trkpt lat="43.58179" lon="1.43841">
        <ele>186.42</ele>
        <time>2019-06-10T13:10:17.000Z</time>
      </trkpt>
      <trkpt lat="43.5817" lon="1.43835">
        <ele>186.36</ele>
        <time>2019-06-10T13:10:22.000Z</time>
      </trkpt>
      <trkpt lat="43.58161" lon="1.43828">
        <ele>186.35</ele>
        <time>2019-06-10T13:10:28.000Z</time>
      </trkpt>
      <trkpt lat="43.58154" lon="1.43818">
        <ele>186.27</ele>
        <time>2019-06-10T13:10:34.000Z</time>
      </trkpt>
      <trkpt lat="43.58145" lon="1.43809">
        <ele>186.29</ele>
        <time>2019-06-10T13:10:39.000Z</time>
      </trkpt>
      <trkpt lat="43.58136" lon="1.43805">
        <ele>186.26</ele>
        <time>2019-06-10T13:10:43.000Z</time>
      </trkpt>
      <trkpt lat="43.58126" lon="1.43803">
        <ele>186.4</ele>
        <time>2019-06-10T13:10:48.000Z</time>
      </trkpt>
      <trkpt lat="43.58116" lon="1.43802">
        <ele>186.57</ele>
        <time>2019-06-10T13:10:53.000Z</time>
      </trkpt>
      <trkpt lat="43.58108" lon="1.43795">
        <ele>186.57</ele>
        <time>2019-06-10T13:10:58.000Z</time>
      </trkpt>
      <trkpt lat="43.58099" lon="1.43788">
        <ele>186.55</ele>
        <time>2019-06-10T13:11:02.000Z</time>
      </trkpt>
      <trkpt lat="43.5809" lon="1.4378">
        <ele>186.57</ele>
        <time>2019-06-10T13:11:07.000Z</time>
      </trkpt>
      <trkpt lat="43.58082" lon="1.43772">
        <ele>186.59</ele>
        <time>2019-06-10T13:11:11.000Z</time>
      </trkpt>
      <trkpt lat="43.58073" lon="1.43765">
        <ele>186.68</ele>
        <time>2019-06-10T13:11:15.000Z</time>
      </trkpt>
      <trkpt lat="43.58064" lon="1.43759">
        <ele>186.6</ele>
        <time>2019-06-10T13:11:19.000Z</time>
      </trkpt>
      <trkpt lat="43.58056" lon="1.43752">
        <ele>186.47</ele>
        <time>2019-06-10T13:11:23.000Z</time>
      </trkpt>
      <trkpt lat="43.58049" lon="1.43744">
        <ele>186.74</ele>
        <time>2019-06-10T13:12:41.000Z</time>
      </trkpt>
      <trkpt lat="43.5804" lon="1.43736">
        <ele>187.51</ele>
        <time>2019-06-10T13:13:44.000Z</time>
      </trkpt>
      <trkpt lat="43.58029" lon="1.43727">
        <ele>187.52</ele>
        <time>2019-06-10T13:13:48.000Z</time>
      </trkpt>
      <trkpt lat="43.5802" lon="1.43721">
        <ele>187.5</ele>
        <time>2019-06-10T13:13:51.000Z</time>
      </trkpt>
      <trkpt lat="43.58011" lon="1.43714">
        <ele>187.48</ele>
        <time>2019-06-10T13:13:54.000Z</time>
      </trkpt>
      <trkpt lat="43.58002" lon="1.43707">
        <ele>187.47</ele>
        <time>2019-06-10T13:13:57.000Z</time>
      </trkpt>
      <trkpt lat="43.57992" lon="1.437">
        <ele>187.33</ele>
        <time>2019-06-10T13:14:00.000Z</time>
      </trkpt>
      <trkpt lat="43.57982" lon="1.43694">
        <ele>187.21</ele>
        <time>2019-06-10T13:14:03.000Z</time>
      </trkpt>
      <trkpt lat="43.57972" lon="1.43688">
        <ele>187.18</ele>
        <time>2019-06-10T13:14:06.000Z</time>
      </trkpt>
      <trkpt lat="43.57961" lon="1.43682">
        <ele>187.14</ele>
        <time>2019-06-10T13:14:09.000Z</time>
      </trkpt>
      <trkpt lat="43.57951" lon="1.43676">
        <ele>186.88</ele>
        <time>2019-06-10T13:14:12.000Z</time>
      </trkpt>
      <trkpt lat="43.5794" lon="1.43671">
        <ele>186.89</ele>
        <time>2019-06-10T13:14:15.000Z</time>
      </trkpt>
      <trkpt lat="43.5793" lon="1.43665">
        <ele>186.57</ele>
        <time>2019-06-10T13:14:18.000Z</time>
      </trkpt>
      <trkpt lat="43.57919" lon="1.43659">
        <ele>186.22</ele>
        <time>2019-06-10T13:14:21.000Z</time>
      </trkpt>
      <trkpt lat="43.57908" lon="1.43654">
        <ele>186.42</ele>
        <time>2019-06-10T13:14:24.000Z</time>
      </trkpt>
      <trkpt lat="43.57896" lon="1.43649">
        <ele>186.42</ele>
        <time>2019-06-10T13:14:27.000Z</time>
      </trkpt>
      <trkpt lat="43.57886" lon="1.43644">
        <ele>186.26</ele>
        <time>2019-06-10T13:14:30.000Z</time>
      </trkpt>
      <trkpt lat="43.57874" lon="1.43638">
        <ele>186.23</ele>
        <time>2019-06-10T13:14:33.000Z</time>
      </trkpt>
      <trkpt lat="43.57863" lon="1.43633">
        <ele>186.16</ele>
        <time>2019-06-10T13:14:36.000Z</time>
      </trkpt>
      <trkpt lat="43.57851" lon="1.43628">
        <ele>186.15</ele>
        <time>2019-06-10T13:14:39.000Z</time>
      </trkpt>
      <trkpt lat="43.57842" lon="1.43623">
        <ele>186.17</ele>
        <time>2019-06-10T13:14:42.000Z</time>
      </trkpt>
      <trkpt lat="43.57832" lon="1.4362">
        <ele>186.21</ele>
        <time>2019-06-10T13:14:45.000Z</time>
      </trkpt>
      <trkpt lat="43.57821" lon="1.43615">
        <ele>186.27</ele>
        <time>2019-06-10T13:14:48.000Z</time>
      </trkpt>
      <trkpt lat="43.57808" lon="1.43613">
        <ele>186.4</ele>
        <time>2019-06-10T13:14:51.000Z</time>
      </trkpt>
      <trkpt lat="43.57797" lon="1.4361">
        <ele>187.79</ele>
        <time>2019-06-10T13:14:54.000Z</time>
      </trkpt>
      <trkpt lat="43.57786" lon="1.43605">
        <ele>188.62</ele>
        <time>2019-06-10T13:14:57.000Z</time>
      </trkpt>
      <trkpt lat="43.57777" lon="1.436">
        <ele>188.63</ele>
        <time>2019-06-10T13:15:00.000Z</time>
      </trkpt>
      <trkpt lat="43.57766" lon="1.43595">
        <ele>188.43</ele>
        <time>2019-06-10T13:15:03.000Z</time>
      </trkpt>
      <trkpt lat="43.57756" lon="1.4359">
        <ele>188.36</ele>
        <time>2019-06-10T13:15:06.000Z</time>
      </trkpt>
      <trkpt lat="43.57747" lon="1.43581">
        <ele>188.31</ele>
        <time>2019-06-10T13:15:10.000Z</time>
      </trkpt>
      <trkpt lat="43.57734" lon="1.43588">
        <ele>187.93</ele>
        <time>2019-06-10T13:15:14.000Z</time>
      </trkpt>
      <trkpt lat="43.57725" lon="1.43594">
        <ele>187.67</ele>
        <time>2019-06-10T13:15:16.000Z</time>
      </trkpt>
      <trkpt lat="43.57714" lon="1.43597">
        <ele>186.57</ele>
        <time>2019-06-10T13:15:18.000Z</time>
      </trkpt>
      <trkpt lat="43.57705" lon="1.43599">
        <ele>186.12</ele>
        <time>2019-06-10T13:15:20.000Z</time>
      </trkpt>
      <trkpt lat="43.57692" lon="1.436">
        <ele>186.13</ele>
        <time>2019-06-10T13:15:23.000Z</time>
      </trkpt>
      <trkpt lat="43.57683" lon="1.43599">
        <ele>186.16</ele>
        <time>2019-06-10T13:15:25.000Z</time>
      </trkpt>
      <trkpt lat="43.57673" lon="1.436">
        <ele>186.06</ele>
        <time>2019-06-10T13:15:27.000Z</time>
      </trkpt>
      <trkpt lat="43.57663" lon="1.43598">
        <ele>186.4</ele>
        <time>2019-06-10T13:15:29.000Z</time>
      </trkpt>
      <trkpt lat="43.57654" lon="1.43597">
        <ele>186.79</ele>
        <time>2019-06-10T13:15:31.000Z</time>
      </trkpt>
      <trkpt lat="43.57641" lon="1.43596">
        <ele>187.55</ele>
        <time>2019-06-10T13:15:34.000Z</time>
      </trkpt>
      <trkpt lat="43.57628" lon="1.43595">
        <ele>188.27</ele>
        <time>2019-06-10T13:15:37.000Z</time>
      </trkpt>
      <trkpt lat="43.57616" lon="1.43594">
        <ele>188.57</ele>
        <time>2019-06-10T13:15:40.000Z</time>
      </trkpt>
      <trkpt lat="43.57603" lon="1.43594">
        <ele>188.64</ele>
        <time>2019-06-10T13:15:43.000Z</time>
      </trkpt>
      <trkpt lat="43.5759" lon="1.43593">
        <ele>188.96</ele>
        <time>2019-06-10T13:15:46.000Z</time>
      </trkpt>
      <trkpt lat="43.57578" lon="1.43594">
        <ele>189.11</ele>
        <time>2019-06-10T13:15:49.000Z</time>
      </trkpt>
      <trkpt lat="43.57567" lon="1.43594">
        <ele>189.2</ele>
        <time>2019-06-10T13:15:52.000Z</time>
      </trkpt>
      <trkpt lat="43.57556" lon="1.43597">
        <ele>189.37</ele>
        <time>2019-06-10T13:15:55.000Z</time>
      </trkpt>
      <trkpt lat="43.57544" lon="1.436">
        <ele>189.38</ele>
        <time>2019-06-10T13:15:58.000Z</time>
      </trkpt>
      <trkpt lat="43.57533" lon="1.43602">
        <ele>189.39</ele>
        <time>2019-06-10T13:16:01.000Z</time>
      </trkpt>
      <trkpt lat="43.57523" lon="1.43604">
        <ele>189.39</ele>
        <time>2019-06-10T13:16:04.000Z</time>
      </trkpt>
      <trkpt lat="43.57513" lon="1.43605">
        <ele>189.42</ele>
        <time>2019-06-10T13:16:07.000Z</time>
      </trkpt>
      <trkpt lat="43.57503" lon="1.43605">
        <ele>189.4</ele>
        <time>2019-06-10T13:16:10.000Z</time>
      </trkpt>
      <trkpt lat="43.57494" lon="1.43609">
        <ele>189.22</ele>
        <time>2019-06-10T13:16:13.000Z</time>
      </trkpt>
      <trkpt lat="43.57485" lon="1.43611">
        <ele>189.06</ele>
        <time>2019-06-10T13:16:15.000Z</time>
      </trkpt>
      <trkpt lat="43.57475" lon="1.43616">
        <ele>187.9</ele>
        <time>2019-06-10T13:16:17.000Z</time>
      </trkpt>
      <trkpt lat="43.57466" lon="1.43621">
        <ele>187.87</ele>
        <time>2019-06-10T13:16:19.000Z</time>
      </trkpt>
      <trkpt lat="43.57452" lon="1.43624">
        <ele>188.5</ele>
        <time>2019-06-10T13:16:22.000Z</time>
      </trkpt>
      <trkpt lat="43.57443" lon="1.43625">
        <ele>188.81</ele>
        <time>2019-06-10T13:16:24.000Z</time>
      </trkpt>
      <trkpt lat="43.57433" lon="1.43628">
        <ele>188.98</ele>
        <time>2019-06-10T13:16:27.000Z</time>
      </trkpt>
      <trkpt lat="43.57423" lon="1.43632">
        <ele>189.11</ele>
        <time>2019-06-10T13:16:30.000Z</time>
      </trkpt>
      <trkpt lat="43.57415" lon="1.43641">
        <ele>189.16</ele>
        <time>2019-06-10T13:16:33.000Z</time>
      </trkpt>
      <trkpt lat="43.57403" lon="1.43648">
        <ele>189.15</ele>
        <time>2019-06-10T13:16:36.000Z</time>
      </trkpt>
      <trkpt lat="43.57393" lon="1.43654">
        <ele>189.08</ele>
        <time>2019-06-10T13:16:39.000Z</time>
      </trkpt>
      <trkpt lat="43.57382" lon="1.4366">
        <ele>188.97</ele>
        <time>2019-06-10T13:16:42.000Z</time>
      </trkpt>
      <trkpt lat="43.57374" lon="1.43666">
        <ele>188.9</ele>
        <time>2019-06-10T13:16:44.000Z</time>
      </trkpt>
      <trkpt lat="43.57364" lon="1.43674">
        <ele>188.84</ele>
        <time>2019-06-10T13:16:47.000Z</time>
      </trkpt>
      <trkpt lat="43.57356" lon="1.43681">
        <ele>188.59</ele>
        <time>2019-06-10T13:16:49.000Z</time>
      </trkpt>
      <trkpt lat="43.57345" lon="1.43689">
        <ele>188.43</ele>
        <time>2019-06-10T13:16:52.000Z</time>
      </trkpt>
      <trkpt lat="43.57335" lon="1.43695">
        <ele>188.39</ele>
        <time>2019-06-10T13:16:55.000Z</time>
      </trkpt>
      <trkpt lat="43.57324" lon="1.43705">
        <ele>188.36</ele>
        <time>2019-06-10T13:16:58.000Z</time>
      </trkpt>
      <trkpt lat="43.57313" lon="1.43713">
        <ele>188.54</ele>
        <time>2019-06-10T13:17:01.000Z</time>
      </trkpt>
      <trkpt lat="43.57306" lon="1.43724">
        <ele>188.76</ele>
        <time>2019-06-10T13:17:04.000Z</time>
      </trkpt>
      <trkpt lat="43.573" lon="1.43736">
        <ele>189.14</ele>
        <time>2019-06-10T13:17:08.000Z</time>
      </trkpt>
      <trkpt lat="43.57292" lon="1.43746">
        <ele>190.05</ele>
        <time>2019-06-10T13:17:11.000Z</time>
      </trkpt>
      <trkpt lat="43.57285" lon="1.43755">
        <ele>190.45</ele>
        <time>2019-06-10T13:17:15.000Z</time>
      </trkpt>
      <trkpt lat="43.57273" lon="1.43764">
        <ele>190.45</ele>
        <time>2019-06-10T13:17:18.000Z</time>
      </trkpt>
      <trkpt lat="43.57265" lon="1.43772">
        <ele>190.53</ele>
        <time>2019-06-10T13:17:21.000Z</time>
      </trkpt>
      <trkpt lat="43.57258" lon="1.43781">
        <ele>190.72</ele>
        <time>2019-06-10T13:17:24.000Z</time>
      </trkpt>
      <trkpt lat="43.5725" lon="1.43789">
        <ele>190.77</ele>
        <time>2019-06-10T13:17:26.000Z</time>
      </trkpt>
      <trkpt lat="43.57242" lon="1.43796">
        <ele>190.74</ele>
        <time>2019-06-10T13:17:28.000Z</time>
      </trkpt>
      <trkpt lat="43.57233" lon="1.438">
        <ele>190.67</ele>
        <time>2019-06-10T13:17:31.000Z</time>
      </trkpt>
      <trkpt lat="43.57223" lon="1.43812">
        <ele>190.77</ele>
        <time>2019-06-10T13:17:35.000Z</time>
      </trkpt>
      <trkpt lat="43.57214" lon="1.4382">
        <ele>190.67</ele>
        <time>2019-06-10T13:17:38.000Z</time>
      </trkpt>
      <trkpt lat="43.57207" lon="1.43828">
        <ele>190.54</ele>
        <time>2019-06-10T13:17:41.000Z</time>
      </trkpt>
      <trkpt lat="43.57199" lon="1.43837">
        <ele>190.56</ele>
        <time>2019-06-10T13:17:44.000Z</time>
      </trkpt>
      <trkpt lat="43.5719" lon="1.43847">
        <ele>190.58</ele>
        <time>2019-06-10T13:17:47.000Z</time>
      </trkpt>
      <trkpt lat="43.57181" lon="1.43855">
        <ele>190.6</ele>
        <time>2019-06-10T13:17:50.000Z</time>
      </trkpt>
      <trkpt lat="43.57172" lon="1.43863">
        <ele>190.7</ele>
        <time>2019-06-10T13:17:53.000Z</time>
      </trkpt>
      <trkpt lat="43.57164" lon="1.43869">
        <ele>190.83</ele>
        <time>2019-06-10T13:17:56.000Z</time>
      </trkpt>
      <trkpt lat="43.57155" lon="1.43874">
        <ele>190.94</ele>
        <time>2019-06-10T13:17:59.000Z</time>
      </trkpt>
      <trkpt lat="43.57146" lon="1.43881">
        <ele>191.03</ele>
        <time>2019-06-10T13:18:02.000Z</time>
      </trkpt>
      <trkpt lat="43.57137" lon="1.43885">
        <ele>191.09</ele>
        <time>2019-06-10T13:18:05.000Z</time>
      </trkpt>
      <trkpt lat="43.57126" lon="1.43891">
        <ele>191.36</ele>
        <time>2019-06-10T13:18:08.000Z</time>
      </trkpt>
      <trkpt lat="43.57114" lon="1.43897">
        <ele>191.65</ele>
        <time>2019-06-10T13:18:11.000Z</time>
      </trkpt>
      <trkpt lat="43.57102" lon="1.43902">
        <ele>191.97</ele>
        <time>2019-06-10T13:18:14.000Z</time>
      </trkpt>
      <trkpt lat="43.57091" lon="1.43906">
        <ele>192.48</ele>
        <time>2019-06-10T13:18:17.000Z</time>
      </trkpt>
      <trkpt lat="43.57079" lon="1.4391">
        <ele>192.88</ele>
        <time>2019-06-10T13:18:20.000Z</time>
      </trkpt>
      <trkpt lat="43.57068" lon="1.43913">
        <ele>192.95</ele>
        <time>2019-06-10T13:18:23.000Z</time>
      </trkpt>
      <trkpt lat="43.57057" lon="1.43915">
        <ele>192.78</ele>
        <time>2019-06-10T13:18:26.000Z</time>
      </trkpt>
      <trkpt lat="43.57047" lon="1.43916">
        <ele>192.7</ele>
        <time>2019-06-10T13:18:29.000Z</time>
      </trkpt>
      <trkpt lat="43.57037" lon="1.43918">
        <ele>192.62</ele>
        <time>2019-06-10T13:18:32.000Z</time>
      </trkpt>
      <trkpt lat="43.57028" lon="1.43921">
        <ele>192.55</ele>
        <time>2019-06-10T13:18:35.000Z</time>
      </trkpt>
      <trkpt lat="43.57017" lon="1.43923">
        <ele>192.43</ele>
        <time>2019-06-10T13:18:39.000Z</time>
      </trkpt>
      <trkpt lat="43.57005" lon="1.43926">
        <ele>192.36</ele>
        <time>2019-06-10T13:18:43.000Z</time>
      </trkpt>
      <trkpt lat="43.56995" lon="1.43929">
        <ele>192.34</ele>
        <time>2019-06-10T13:18:47.000Z</time>
      </trkpt>
      <trkpt lat="43.56986" lon="1.43932">
        <ele>192.37</ele>
        <time>2019-06-10T13:18:51.000Z</time>
      </trkpt>
      <trkpt lat="43.56975" lon="1.43935">
        <ele>192.49</ele>
        <time>2019-06-10T13:18:55.000Z</time>
      </trkpt>
      <trkpt lat="43.56964" lon="1.43936">
        <ele>192.67</ele>
        <time>2019-06-10T13:18:59.000Z</time>
      </trkpt>
      <trkpt lat="43.56955" lon="1.43935">
        <ele>192.83</ele>
        <time>2019-06-10T13:19:02.000Z</time>
      </trkpt>
      <trkpt lat="43.56945" lon="1.43938">
        <ele>192.99</ele>
        <time>2019-06-10T13:19:05.000Z</time>
      </trkpt>
      <trkpt lat="43.56936" lon="1.43942">
        <ele>193.14</ele>
        <time>2019-06-10T13:19:08.000Z</time>
      </trkpt>
      <trkpt lat="43.56927" lon="1.43943">
        <ele>193.24</ele>
        <time>2019-06-10T13:19:11.000Z</time>
      </trkpt>
      <trkpt lat="43.56917" lon="1.43944">
        <ele>193.3</ele>
        <time>2019-06-10T13:19:14.000Z</time>
      </trkpt>
      <trkpt lat="43.56906" lon="1.43946">
        <ele>193.4</ele>
        <time>2019-06-10T13:19:17.000Z</time>
      </trkpt>
      <trkpt lat="43.56896" lon="1.43949">
        <ele>193.54</ele>
        <time>2019-06-10T13:19:20.000Z</time>
      </trkpt>
      <trkpt lat="43.56885" lon="1.43949">
        <ele>193.69</ele>
        <time>2019-06-10T13:19:24.000Z</time>
      </trkpt>
      <trkpt lat="43.56875" lon="1.43951">
        <ele>193.79</ele>
        <time>2019-06-10T13:19:27.000Z</time>
      </trkpt>
      <trkpt lat="43.56863" lon="1.43954">
        <ele>193.94</ele>
        <time>2019-06-10T13:19:30.000Z</time>
      </trkpt>
      <trkpt lat="43.56854" lon="1.43955">
        <ele>194.06</ele>
        <time>2019-06-10T13:19:33.000Z</time>
      </trkpt>
      <trkpt lat="43.56842" lon="1.43958">
        <ele>194.04</ele>
        <time>2019-06-10T13:19:36.000Z</time>
      </trkpt>
      <trkpt lat="43.5683" lon="1.4396">
        <ele>193.64</ele>
        <time>2019-06-10T13:19:39.000Z</time>
      </trkpt>
      <trkpt lat="43.56818" lon="1.43962">
        <ele>193.57</ele>
        <time>2019-06-10T13:19:42.000Z</time>
      </trkpt>
      <trkpt lat="43.56807" lon="1.43965">
        <ele>193.46</ele>
        <time>2019-06-10T13:19:45.000Z</time>
      </trkpt>
      <trkpt lat="43.56796" lon="1.43967">
        <ele>193.39</ele>
        <time>2019-06-10T13:19:48.000Z</time>
      </trkpt>
      <trkpt lat="43.56787" lon="1.43967">
        <ele>193.39</ele>
        <time>2019-06-10T13:19:51.000Z</time>
      </trkpt>
      <trkpt lat="43.56776" lon="1.43969">
        <ele>193.53</ele>
        <time>2019-06-10T13:19:55.000Z</time>
      </trkpt>
      <trkpt lat="43.56766" lon="1.4397">
        <ele>193.63</ele>
        <time>2019-06-10T13:19:58.000Z</time>
      </trkpt>
      <trkpt lat="43.56757" lon="1.43973">
        <ele>193.81</ele>
        <time>2019-06-10T13:20:01.000Z</time>
      </trkpt>
      <trkpt lat="43.56746" lon="1.43975">
        <ele>194.1</ele>
        <time>2019-06-10T13:20:04.000Z</time>
      </trkpt>
      <trkpt lat="43.56736" lon="1.43978">
        <ele>194.52</ele>
        <time>2019-06-10T13:20:08.000Z</time>
      </trkpt>
      <trkpt lat="43.56724" lon="1.43978">
        <ele>194.81</ele>
        <time>2019-06-10T13:20:12.000Z</time>
      </trkpt>
      <trkpt lat="43.56714" lon="1.43983">
        <ele>195.02</ele>
        <time>2019-06-10T13:20:15.000Z</time>
      </trkpt>
      <trkpt lat="43.56704" lon="1.43985">
        <ele>195.11</ele>
        <time>2019-06-10T13:20:18.000Z</time>
      </trkpt>
      <trkpt lat="43.56692" lon="1.43985">
        <ele>195.14</ele>
        <time>2019-06-10T13:20:21.000Z</time>
      </trkpt>
      <trkpt lat="43.56678" lon="1.43985">
        <ele>195.51</ele>
        <time>2019-06-10T13:20:24.000Z</time>
      </trkpt>
      <trkpt lat="43.56667" lon="1.43984">
        <ele>195.46</ele>
        <time>2019-06-10T13:20:27.000Z</time>
      </trkpt>
      <trkpt lat="43.56654" lon="1.43984">
        <ele>195.01</ele>
        <time>2019-06-10T13:20:30.000Z</time>
      </trkpt>
      <trkpt lat="43.56645" lon="1.43987">
        <ele>194.74</ele>
        <time>2019-06-10T13:20:32.000Z</time>
      </trkpt>
      <trkpt lat="43.56636" lon="1.43988">
        <ele>194.83</ele>
        <time>2019-06-10T13:20:34.000Z</time>
      </trkpt>
      <trkpt lat="43.56622" lon="1.43989">
        <ele>195.24</ele>
        <time>2019-06-10T13:20:37.000Z</time>
      </trkpt>
      <trkpt lat="43.56611" lon="1.43989">
        <ele>195.64</ele>
        <time>2019-06-10T13:20:40.000Z</time>
      </trkpt>
      <trkpt lat="43.566" lon="1.43993">
        <ele>195.86</ele>
        <time>2019-06-10T13:20:43.000Z</time>
      </trkpt>
      <trkpt lat="43.56595" lon="1.44005">
        <ele>196.05</ele>
        <time>2019-06-10T13:20:47.000Z</time>
      </trkpt>
      <trkpt lat="43.5659" lon="1.44016">
        <ele>197.13</ele>
        <time>2019-06-10T13:20:58.000Z</time>
      </trkpt>
      <trkpt lat="43.56585" lon="1.44027">
        <ele>197.71</ele>
        <time>2019-06-10T13:21:08.000Z</time>
      </trkpt>
      <trkpt lat="43.56578" lon="1.44035">
        <ele>198.45</ele>
        <time>2019-06-10T13:21:19.000Z</time>
      </trkpt>
      <trkpt lat="43.56572" lon="1.44044">
        <ele>199.65</ele>
        <time>2019-06-10T13:21:32.000Z</time>
      </trkpt>
      <trkpt lat="43.56566" lon="1.44054">
        <ele>201.56</ele>
        <time>2019-06-10T13:21:48.000Z</time>
      </trkpt>
      <trkpt lat="43.56562" lon="1.44065">
        <ele>205.05</ele>
        <time>2019-06-10T13:22:17.000Z</time>
      </trkpt>
      <trkpt lat="43.56558" lon="1.44077">
        <ele>207.14</ele>
        <time>2019-06-10T13:22:28.000Z</time>
      </trkpt>
      <trkpt lat="43.56553" lon="1.44089">
        <ele>208.27</ele>
        <time>2019-06-10T13:22:40.000Z</time>
      </trkpt>
      <trkpt lat="43.56549" lon="1.44101">
        <ele>208.81</ele>
        <time>2019-06-10T13:22:52.000Z</time>
      </trkpt>
      <trkpt lat="43.56546" lon="1.44112">
        <ele>209.36</ele>
        <time>2019-06-10T13:23:08.000Z</time>
      </trkpt>
      <trkpt lat="43.56545" lon="1.44126">
        <ele>210.43</ele>
        <time>2019-06-10T13:23:20.000Z</time>
      </trkpt>
      <trkpt lat="43.56544" lon="1.44139">
        <ele>212.16</ele>
        <time>2019-06-10T13:23:35.000Z</time>
      </trkpt>
      <trkpt lat="43.56541" lon="1.44152">
        <ele>213.72</ele>
        <time>2019-06-10T13:23:45.000Z</time>
      </trkpt>
      <trkpt lat="43.56535" lon="1.44161">
        <ele>214.69</ele>
        <time>2019-06-10T13:23:53.000Z</time>
      </trkpt>
      <trkpt lat="43.56529" lon="1.44171">
        <ele>215.47</ele>
        <time>2019-06-10T13:24:05.000Z</time>
      </trkpt>
      <trkpt lat="43.56523" lon="1.44181">
        <ele>215.89</ele>
        <time>2019-06-10T13:24:15.000Z</time>
      </trkpt>
      <trkpt lat="43.56516" lon="1.44191">
        <ele>216.56</ele>
        <time>2019-06-10T13:24:26.000Z</time>
      </trkpt>
      <trkpt lat="43.5651" lon="1.442">
        <ele>217.62</ele>
        <time>2019-06-10T13:24:35.000Z</time>
      </trkpt>
      <trkpt lat="43.56501" lon="1.44205">
        <ele>218.81</ele>
        <time>2019-06-10T13:24:43.000Z</time>
      </trkpt>
      <trkpt lat="43.56493" lon="1.4421">
        <ele>221.79</ele>
        <time>2019-06-10T13:25:44.999Z</time>
      </trkpt>
      <trkpt lat="43.56485" lon="1.44218">
        <ele>222.31</ele>
        <time>2019-06-10T13:25:50.999Z</time>
      </trkpt>
      <trkpt lat="43.56477" lon="1.44225">
        <ele>222.93</ele>
        <time>2019-06-10T13:25:54.999Z</time>
      </trkpt>
      <trkpt lat="43.5647" lon="1.44233">
        <ele>224.12</ele>
        <time>2019-06-10T13:25:59.999Z</time>
      </trkpt>
      <trkpt lat="43.56462" lon="1.44239">
        <ele>225.39</ele>
        <time>2019-06-10T13:26:04.999Z</time>
      </trkpt>
      <trkpt lat="43.56453" lon="1.44244">
        <ele>226.74</ele>
        <time>2019-06-10T13:26:10.999Z</time>
      </trkpt>
      <trkpt lat="43.56444" lon="1.44252">
        <ele>228.07</ele>
        <time>2019-06-10T13:26:16.999Z</time>
      </trkpt>
      <trkpt lat="43.56435" lon="1.44259">
        <ele>229.28</ele>
        <time>2019-06-10T13:26:22.999Z</time>
      </trkpt>
      <trkpt lat="43.56427" lon="1.44268">
        <ele>230.32</ele>
        <time>2019-06-10T13:26:28.999Z</time>
      </trkpt>
      <trkpt lat="43.56419" lon="1.44274">
        <ele>231.32</ele>
        <time>2019-06-10T13:26:34.999Z</time>
      </trkpt>
      <trkpt lat="43.56411" lon="1.4428">
        <ele>232.31</ele>
        <time>2019-06-10T13:26:40.999Z</time>
      </trkpt>
      <trkpt lat="43.56401" lon="1.44286">
        <ele>233.25</ele>
        <time>2019-06-10T13:26:46.999Z</time>
      </trkpt>
      <trkpt lat="43.56392" lon="1.44292">
        <ele>234.23</ele>
        <time>2019-06-10T13:26:52.999Z</time>
      </trkpt>
      <trkpt lat="43.56383" lon="1.44298">
        <ele>235.21</ele>
        <time>2019-06-10T13:26:58.999Z</time>
      </trkpt>
      <trkpt lat="43.56374" lon="1.44304">
        <ele>236.16</ele>
        <time>2019-06-10T13:27:04.999Z</time>
      </trkpt>
      <trkpt lat="43.56365" lon="1.44309">
        <ele>237.12</ele>
        <time>2019-06-10T13:27:10.999Z</time>
      </trkpt>
      <trkpt lat="43.56356" lon="1.44315">
        <ele>238.24</ele>
        <time>2019-06-10T13:27:17.999Z</time>
      </trkpt>
      <trkpt lat="43.56348" lon="1.44321">
        <ele>239.19</ele>
        <time>2019-06-10T13:27:23.999Z</time>
      </trkpt>
      <trkpt lat="43.5634" lon="1.44327">
        <ele>240.37</ele>
        <time>2019-06-10T13:27:31.999Z</time>
      </trkpt>
      <trkpt lat="43.56333" lon="1.44334">
        <ele>241.57</ele>
        <time>2019-06-10T13:27:39.999Z</time>
      </trkpt>
      <trkpt lat="43.56326" lon="1.44344">
        <ele>242.84</ele>
        <time>2019-06-10T13:27:49.999Z</time>
      </trkpt>
      <trkpt lat="43.56321" lon="1.44354">
        <ele>244.07</ele>
        <time>2019-06-10T13:27:59.999Z</time>
      </trkpt>
      <trkpt lat="43.56315" lon="1.44364">
        <ele>245.56</ele>
        <time>2019-06-10T13:28:09.999Z</time>
      </trkpt>
      <trkpt lat="43.5631" lon="1.44375">
        <ele>247.19</ele>
        <time>2019-06-10T13:28:20.999Z</time>
      </trkpt>
      <trkpt lat="43.56305" lon="1.44386">
        <ele>248.75</ele>
        <time>2019-06-10T13:28:30.999Z</time>
      </trkpt>
      <trkpt lat="43.56299" lon="1.44395">
        <ele>250.3</ele>
        <time>2019-06-10T13:28:40.999Z</time>
      </trkpt>
      <trkpt lat="43.56293" lon="1.44405">
        <ele>251.85</ele>
        <time>2019-06-10T13:28:51.999Z</time>
      </trkpt>
      <trkpt lat="43.56286" lon="1.44415">
        <ele>253.45</ele>
        <time>2019-06-10T13:29:02.999Z</time>
      </trkpt>
      <trkpt lat="43.56279" lon="1.44424">
        <ele>255.23</ele>
        <time>2019-06-10T13:29:13.999Z</time>
      </trkpt>
      <trkpt lat="43.56273" lon="1.44433">
        <ele>257.05</ele>
        <time>2019-06-10T13:29:23.999Z</time>
      </trkpt>
      <trkpt lat="43.56265" lon="1.44443">
        <ele>258.9</ele>
        <time>2019-06-10T13:29:34.999Z</time>
      </trkpt>
      <trkpt lat="43.56258" lon="1.44453">
        <ele>260.48</ele>
        <time>2019-06-10T13:29:44.999Z</time>
      </trkpt>
      <trkpt lat="43.56252" lon="1.44461">
        <ele>262.02</ele>
        <time>2019-06-10T13:29:55.999Z</time>
      </trkpt>
      <trkpt lat="43.56245" lon="1.4447">
        <ele>263.27</ele>
        <time>2019-06-10T13:30:05.999Z</time>
      </trkpt>
      <trkpt lat="43.56238" lon="1.44479">
        <ele>264.35</ele>
        <time>2019-06-10T13:30:13.999Z</time>
      </trkpt>
      <trkpt lat="43.56231" lon="1.44488">
        <ele>265.61</ele>
        <time>2019-06-10T13:30:22.999Z</time>
      </trkpt>
      <trkpt lat="43.56224" lon="1.44498">
        <ele>266.76</ele>
        <time>2019-06-10T13:30:30.999Z</time>
      </trkpt>
      <trkpt lat="43.56217" lon="1.44507">
        <ele>267.53</ele>
        <time>2019-06-10T13:30:38.999Z</time>
      </trkpt>
      <trkpt lat="43.5621" lon="1.44517">
        <ele>268.71</ele>
        <time>2019-06-10T13:30:47.999Z</time>
      </trkpt>
      <trkpt lat="43.56202" lon="1.44526">
        <ele>269.76</ele>
        <time>2019-06-10T13:30:53.999Z</time>
      </trkpt>
      <trkpt lat="43.56194" lon="1.44535">
        <ele>270.53</ele>
        <time>2019-06-10T13:30:58.999Z</time>
      </trkpt>
      <trkpt lat="43.56188" lon="1.44543">
        <ele>271.24</ele>
        <time>2019-06-10T13:31:03.999Z</time>
      </trkpt>
      <trkpt lat="43.56181" lon="1.44551">
        <ele>271.95</ele>
        <time>2019-06-10T13:31:08.999Z</time>
      </trkpt>
      <trkpt lat="43.56173" lon="1.4456">
        <ele>272.82</ele>
        <time>2019-06-10T13:31:14.999Z</time>
      </trkpt>
      <trkpt lat="43.56166" lon="1.4457">
        <ele>273.86</ele>
        <time>2019-06-10T13:31:21.999Z</time>
      </trkpt>
      <trkpt lat="43.5616" lon="1.44581">
        <ele>274.8</ele>
        <time>2019-06-10T13:31:28.999Z</time>
      </trkpt>
      <trkpt lat="43.56153" lon="1.4459">
        <ele>275.56</ele>
        <time>2019-06-10T13:31:34.999Z</time>
      </trkpt>
      <trkpt lat="43.56146" lon="1.44601">
        <ele>276.38</ele>
        <time>2019-06-10T13:31:41.999Z</time>
      </trkpt>
      <trkpt lat="43.56139" lon="1.44611">
        <ele>277.17</ele>
        <time>2019-06-10T13:31:48.999Z</time>
      </trkpt>
      <trkpt lat="43.56132" lon="1.44621">
        <ele>277.87</ele>
        <time>2019-06-10T13:31:54.999Z</time>
      </trkpt>
      <trkpt lat="43.56126" lon="1.4463">
        <ele>278.56</ele>
        <time>2019-06-10T13:32:00.999Z</time>
      </trkpt>
      <trkpt lat="43.56119" lon="1.44639">
        <ele>279.41</ele>
        <time>2019-06-10T13:32:06.999Z</time>
      </trkpt>
      <trkpt lat="43.56113" lon="1.44649">
        <ele>280.24</ele>
        <time>2019-06-10T13:32:12.999Z</time>
      </trkpt>
      <trkpt lat="43.56105" lon="1.44658">
        <ele>281.14</ele>
        <time>2019-06-10T13:32:19.999Z</time>
      </trkpt>
      <trkpt lat="43.56098" lon="1.44667">
        <ele>282.04</ele>
        <time>2019-06-10T13:32:25.999Z</time>
      </trkpt>
      <trkpt lat="43.56092" lon="1.44677">
        <ele>282.89</ele>
        <time>2019-06-10T13:32:31.999Z</time>
      </trkpt>
      <trkpt lat="43.56084" lon="1.44686">
        <ele>283.68</ele>
        <time>2019-06-10T13:32:37.999Z</time>
      </trkpt>
      <trkpt lat="43.56078" lon="1.44695">
        <ele>284.54</ele>
        <time>2019-06-10T13:32:43.999Z</time>
      </trkpt>
      <trkpt lat="43.56071" lon="1.44705">
        <ele>285.35</ele>
        <time>2019-06-10T13:32:49.999Z</time>
      </trkpt>
      <trkpt lat="43.56068" lon="1.44717">
        <ele>286.08</ele>
        <time>2019-06-10T13:32:54.999Z</time>
      </trkpt>
      <trkpt lat="43.56073" lon="1.44729">
        <ele>286.73</ele>
        <time>2019-06-10T13:32:59.999Z</time>
      </trkpt>
      <trkpt lat="43.56083" lon="1.44737">
        <ele>287.66</ele>
        <time>2019-06-10T13:33:03.999Z</time>
      </trkpt>
      <trkpt lat="43.56096" lon="1.44744">
        <ele>288.64</ele>
        <time>2019-06-10T13:33:06.999Z</time>
      </trkpt>
      <trkpt lat="43.56106" lon="1.44749">
        <ele>288.92</ele>
        <time>2019-06-10T13:33:08.999Z</time>
      </trkpt>
      <trkpt lat="43.56117" lon="1.44757">
        <ele>289.18</ele>
        <time>2019-06-10T13:33:10.999Z</time>
      </trkpt>
      <trkpt lat="43.56127" lon="1.44764">
        <ele>289.45</ele>
        <time>2019-06-10T13:33:12.999Z</time>
      </trkpt>
      <trkpt lat="43.56137" lon="1.44772">
        <ele>289.67</ele>
        <time>2019-06-10T13:33:14.999Z</time>
      </trkpt>
      <trkpt lat="43.56147" lon="1.44779">
        <ele>289.58</ele>
        <time>2019-06-10T13:33:16.999Z</time>
      </trkpt>
      <trkpt lat="43.56156" lon="1.44786">
        <ele>289.62</ele>
        <time>2019-06-10T13:33:18.999Z</time>
      </trkpt>
      <trkpt lat="43.56165" lon="1.44792">
        <ele>289.88</ele>
        <time>2019-06-10T13:33:20.999Z</time>
      </trkpt>
      <trkpt lat="43.56177" lon="1.44801">
        <ele>290.47</ele>
        <time>2019-06-10T13:33:23.999Z</time>
      </trkpt>
      <trkpt lat="43.56187" lon="1.44808">
        <ele>291.2</ele>
        <time>2019-06-10T13:33:26.999Z</time>
      </trkpt>
      <trkpt lat="43.56198" lon="1.44815">
        <ele>291.41</ele>
        <time>2019-06-10T13:33:29.999Z</time>
      </trkpt>
      <trkpt lat="43.56207" lon="1.44821">
        <ele>291.48</ele>
        <time>2019-06-10T13:33:32.999Z</time>
      </trkpt>
      <trkpt lat="43.56216" lon="1.44829">
        <ele>291.48</ele>
        <time>2019-06-10T13:33:35.999Z</time>
      </trkpt>
      <trkpt lat="43.56225" lon="1.44836">
        <ele>291.47</ele>
        <time>2019-06-10T13:33:38.999Z</time>
      </trkpt>
      <trkpt lat="43.56235" lon="1.44842">
        <ele>291.43</ele>
        <time>2019-06-10T13:33:41.999Z</time>
      </trkpt>
      <trkpt lat="43.56242" lon="1.44848">
        <ele>291.38</ele>
        <time>2019-06-10T13:33:44.999Z</time>
      </trkpt>
      <trkpt lat="43.56251" lon="1.44854">
        <ele>291.32</ele>
        <time>2019-06-10T13:33:47.999Z</time>
      </trkpt>
      <trkpt lat="43.56259" lon="1.44859">
        <ele>291.26</ele>
        <time>2019-06-10T13:33:50.999Z</time>
      </trkpt>
      <trkpt lat="43.56268" lon="1.44865">
        <ele>291.23</ele>
        <time>2019-06-10T13:33:53.999Z</time>
      </trkpt>
      <trkpt lat="43.56278" lon="1.44872">
        <ele>291.13</ele>
        <time>2019-06-10T13:33:56.999Z</time>
      </trkpt>
      <trkpt lat="43.5629" lon="1.44877">
        <ele>290.43</ele>
        <time>2019-06-10T13:33:59.999Z</time>
      </trkpt>
      <trkpt lat="43.56302" lon="1.44882">
        <ele>289.4</ele>
        <time>2019-06-10T13:34:02.999Z</time>
      </trkpt>
      <trkpt lat="43.56312" lon="1.44883">
        <ele>288.86</ele>
        <time>2019-06-10T13:34:04.999Z</time>
      </trkpt>
      <trkpt lat="43.56323" lon="1.44885">
        <ele>288.42</ele>
        <time>2019-06-10T13:34:06.999Z</time>
      </trkpt>
      <trkpt lat="43.56335" lon="1.44886">
        <ele>288.06</ele>
        <time>2019-06-10T13:34:08.999Z</time>
      </trkpt>
      <trkpt lat="43.56348" lon="1.44885">
        <ele>287.83</ele>
        <time>2019-06-10T13:34:10.999Z</time>
      </trkpt>
      <trkpt lat="43.56358" lon="1.4488">
        <ele>287.56</ele>
        <time>2019-06-10T13:34:12.999Z</time>
      </trkpt>
      <trkpt lat="43.56368" lon="1.44878">
        <ele>287.27</ele>
        <time>2019-06-10T13:34:14.999Z</time>
      </trkpt>
      <trkpt lat="43.56378" lon="1.44873">
        <ele>286.79</ele>
        <time>2019-06-10T13:34:16.999Z</time>
      </trkpt>
      <trkpt lat="43.56389" lon="1.44868">
        <ele>286.21</ele>
        <time>2019-06-10T13:34:18.999Z</time>
      </trkpt>
      <trkpt lat="43.564" lon="1.4486">
        <ele>285.71</ele>
        <time>2019-06-10T13:34:20.999Z</time>
      </trkpt>
      <trkpt lat="43.56412" lon="1.4485">
        <ele>285.06</ele>
        <time>2019-06-10T13:34:22.999Z</time>
      </trkpt>
      <trkpt lat="43.56421" lon="1.44839">
        <ele>284.02</ele>
        <time>2019-06-10T13:34:24.999Z</time>
      </trkpt>
      <trkpt lat="43.56431" lon="1.44827">
        <ele>283.01</ele>
        <time>2019-06-10T13:34:26.999Z</time>
      </trkpt>
      <trkpt lat="43.56442" lon="1.44815">
        <ele>282.1</ele>
        <time>2019-06-10T13:34:28.999Z</time>
      </trkpt>
      <trkpt lat="43.56454" lon="1.44803">
        <ele>281.28</ele>
        <time>2019-06-10T13:34:30.999Z</time>
      </trkpt>
      <trkpt lat="43.56466" lon="1.4479">
        <ele>280.51</ele>
        <time>2019-06-10T13:34:32.999Z</time>
      </trkpt>
      <trkpt lat="43.56478" lon="1.44777">
        <ele>279.87</ele>
        <time>2019-06-10T13:34:34.999Z</time>
      </trkpt>
      <trkpt lat="43.56491" lon="1.44765">
        <ele>279.22</ele>
        <time>2019-06-10T13:34:36.999Z</time>
      </trkpt>
      <trkpt lat="43.56504" lon="1.44753">
        <ele>278.58</ele>
        <time>2019-06-10T13:34:38.999Z</time>
      </trkpt>
      <trkpt lat="43.56518" lon="1.44742">
        <ele>277.98</ele>
        <time>2019-06-10T13:34:40.999Z</time>
      </trkpt>
      <trkpt lat="43.56533" lon="1.44734">
        <ele>277.37</ele>
        <time>2019-06-10T13:34:42.999Z</time>
      </trkpt>
      <trkpt lat="43.5655" lon="1.44729">
        <ele>276.8</ele>
        <time>2019-06-10T13:34:44.999Z</time>
      </trkpt>
      <trkpt lat="43.56566" lon="1.44725">
        <ele>276.24</ele>
        <time>2019-06-10T13:34:46.999Z</time>
      </trkpt>
      <trkpt lat="43.56583" lon="1.44724">
        <ele>275.82</ele>
        <time>2019-06-10T13:34:48.999Z</time>
      </trkpt>
      <trkpt lat="43.566" lon="1.44727">
        <ele>275.41</ele>
        <time>2019-06-10T13:34:50.999Z</time>
      </trkpt>
      <trkpt lat="43.56616" lon="1.44731">
        <ele>274.99</ele>
        <time>2019-06-10T13:34:52.999Z</time>
      </trkpt>
      <trkpt lat="43.56632" lon="1.44734">
        <ele>274.6</ele>
        <time>2019-06-10T13:34:54.999Z</time>
      </trkpt>
      <trkpt lat="43.56649" lon="1.44737">
        <ele>274.16</ele>
        <time>2019-06-10T13:34:56.999Z</time>
      </trkpt>
      <trkpt lat="43.56665" lon="1.44737">
        <ele>273.74</ele>
        <time>2019-06-10T13:34:58.999Z</time>
      </trkpt>
      <trkpt lat="43.5668" lon="1.44737">
        <ele>273.21</ele>
        <time>2019-06-10T13:35:00.999Z</time>
      </trkpt>
      <trkpt lat="43.56692" lon="1.44736">
        <ele>272.66</ele>
        <time>2019-06-10T13:35:02.999Z</time>
      </trkpt>
      <trkpt lat="43.56703" lon="1.44737">
        <ele>272.19</ele>
        <time>2019-06-10T13:35:04.999Z</time>
      </trkpt>
      <trkpt lat="43.56713" lon="1.44733">
        <ele>271.68</ele>
        <time>2019-06-10T13:35:06.999Z</time>
      </trkpt>
      <trkpt lat="43.56722" lon="1.44728">
        <ele>271.1</ele>
        <time>2019-06-10T13:35:08.999Z</time>
      </trkpt>
      <trkpt lat="43.5673" lon="1.44725">
        <ele>270.48</ele>
        <time>2019-06-10T13:35:10.999Z</time>
      </trkpt>
      <trkpt lat="43.56738" lon="1.44719">
        <ele>269.85</ele>
        <time>2019-06-10T13:35:12.999Z</time>
      </trkpt>
      <trkpt lat="43.56747" lon="1.44712">
        <ele>269.2</ele>
        <time>2019-06-10T13:35:14.999Z</time>
      </trkpt>
      <trkpt lat="43.56755" lon="1.44705">
        <ele>268.54</ele>
        <time>2019-06-10T13:35:16.999Z</time>
      </trkpt>
      <trkpt lat="43.56766" lon="1.44697">
        <ele>267.78</ele>
        <time>2019-06-10T13:35:18.999Z</time>
      </trkpt>
      <trkpt lat="43.56777" lon="1.44688">
        <ele>267.02</ele>
        <time>2019-06-10T13:35:20.999Z</time>
      </trkpt>
      <trkpt lat="43.56789" lon="1.44683">
        <ele>266.35</ele>
        <time>2019-06-10T13:35:22.999Z</time>
      </trkpt>
      <trkpt lat="43.56802" lon="1.4468">
        <ele>265.63</ele>
        <time>2019-06-10T13:35:24.999Z</time>
      </trkpt>
      <trkpt lat="43.56815" lon="1.44676">
        <ele>264.98</ele>
        <time>2019-06-10T13:35:26.999Z</time>
      </trkpt>
      <trkpt lat="43.56828" lon="1.44672">
        <ele>264.28</ele>
        <time>2019-06-10T13:35:28.999Z</time>
      </trkpt>
      <trkpt lat="43.56842" lon="1.44668">
        <ele>263.69</ele>
        <time>2019-06-10T13:35:30.999Z</time>
      </trkpt>
      <trkpt lat="43.56855" lon="1.44664">
        <ele>263.07</ele>
        <time>2019-06-10T13:35:32.999Z</time>
      </trkpt>
      <trkpt lat="43.56869" lon="1.4466">
        <ele>262.44</ele>
        <time>2019-06-10T13:35:34.999Z</time>
      </trkpt>
      <trkpt lat="43.56881" lon="1.44655">
        <ele>261.88</ele>
        <time>2019-06-10T13:35:36.999Z</time>
      </trkpt>
      <trkpt lat="43.56893" lon="1.44648">
        <ele>261.38</ele>
        <time>2019-06-10T13:35:38.999Z</time>
      </trkpt>
      <trkpt lat="43.56905" lon="1.44638">
        <ele>260.81</ele>
        <time>2019-06-10T13:35:40.999Z</time>
      </trkpt>
      <trkpt lat="43.56915" lon="1.44626">
        <ele>259.97</ele>
        <time>2019-06-10T13:35:42.999Z</time>
      </trkpt>
      <trkpt lat="43.56926" lon="1.44613">
        <ele>258.87</ele>
        <time>2019-06-10T13:35:44.999Z</time>
      </trkpt>
      <trkpt lat="43.56935" lon="1.44599">
        <ele>257.81</ele>
        <time>2019-06-10T13:35:46.999Z</time>
      </trkpt>
      <trkpt lat="43.56945" lon="1.44585">
        <ele>256.57</ele>
        <time>2019-06-10T13:35:48.999Z</time>
      </trkpt>
      <trkpt lat="43.56955" lon="1.44572">
        <ele>255.3</ele>
        <time>2019-06-10T13:35:50.999Z</time>
      </trkpt>
      <trkpt lat="43.56966" lon="1.44562">
        <ele>254.15</ele>
        <time>2019-06-10T13:35:52.999Z</time>
      </trkpt>
      <trkpt lat="43.56977" lon="1.44553">
        <ele>253.03</ele>
        <time>2019-06-10T13:35:54.999Z</time>
      </trkpt>
      <trkpt lat="43.56989" lon="1.44545">
        <ele>251.97</ele>
        <time>2019-06-10T13:35:56.999Z</time>
      </trkpt>
      <trkpt lat="43.57002" lon="1.44538">
        <ele>251.02</ele>
        <time>2019-06-10T13:35:58.999Z</time>
      </trkpt>
      <trkpt lat="43.57015" lon="1.44536">
        <ele>250.09</ele>
        <time>2019-06-10T13:36:00.999Z</time>
      </trkpt>
      <trkpt lat="43.57029" lon="1.44538">
        <ele>248.96</ele>
        <time>2019-06-10T13:36:02.999Z</time>
      </trkpt>
      <trkpt lat="43.57042" lon="1.44542">
        <ele>248.04</ele>
        <time>2019-06-10T13:36:04.999Z</time>
      </trkpt>
      <trkpt lat="43.57056" lon="1.44542">
        <ele>247.34</ele>
        <time>2019-06-10T13:36:06.999Z</time>
      </trkpt>
      <trkpt lat="43.57069" lon="1.44535">
        <ele>246.64</ele>
        <time>2019-06-10T13:36:08.999Z</time>
      </trkpt>
      <trkpt lat="43.57082" lon="1.44523">
        <ele>245.86</ele>
        <time>2019-06-10T13:36:10.999Z</time>
      </trkpt>
      <trkpt lat="43.57095" lon="1.44512">
        <ele>245.15</ele>
        <time>2019-06-10T13:36:12.999Z</time>
      </trkpt>
      <trkpt lat="43.57107" lon="1.44499">
        <ele>244.4</ele>
        <time>2019-06-10T13:36:14.999Z</time>
      </trkpt>
      <trkpt lat="43.57119" lon="1.44486">
        <ele>243.69</ele>
        <time>2019-06-10T13:36:16.999Z</time>
      </trkpt>
      <trkpt lat="43.57131" lon="1.44472">
        <ele>242.94</ele>
        <time>2019-06-10T13:36:18.999Z</time>
      </trkpt>
      <trkpt lat="43.57143" lon="1.44458">
        <ele>242.07</ele>
        <time>2019-06-10T13:36:20.999Z</time>
      </trkpt>
      <trkpt lat="43.57155" lon="1.44443">
        <ele>241.13</ele>
        <time>2019-06-10T13:36:22.999Z</time>
      </trkpt>
      <trkpt lat="43.57166" lon="1.44429">
        <ele>240.17</ele>
        <time>2019-06-10T13:36:24.999Z</time>
      </trkpt>
      <trkpt lat="43.57177" lon="1.44416">
        <ele>239.25</ele>
        <time>2019-06-10T13:36:26.999Z</time>
      </trkpt>
      <trkpt lat="43.57188" lon="1.44405">
        <ele>238.4</ele>
        <time>2019-06-10T13:36:28.999Z</time>
      </trkpt>
      <trkpt lat="43.57201" lon="1.44397">
        <ele>237.55</ele>
        <time>2019-06-10T13:36:30.999Z</time>
      </trkpt>
      <trkpt lat="43.57215" lon="1.44389">
        <ele>236.69</ele>
        <time>2019-06-10T13:36:32.999Z</time>
      </trkpt>
      <trkpt lat="43.5723" lon="1.44382">
        <ele>235.87</ele>
        <time>2019-06-10T13:36:34.999Z</time>
      </trkpt>
      <trkpt lat="43.57245" lon="1.44375">
        <ele>235.07</ele>
        <time>2019-06-10T13:36:36.999Z</time>
      </trkpt>
      <trkpt lat="43.57261" lon="1.44369">
        <ele>234.33</ele>
        <time>2019-06-10T13:36:38.999Z</time>
      </trkpt>
      <trkpt lat="43.57275" lon="1.44363">
        <ele>233.55</ele>
        <time>2019-06-10T13:36:40.999Z</time>
      </trkpt>
      <trkpt lat="43.5729" lon="1.44357">
        <ele>232.81</ele>
        <time>2019-06-10T13:36:42.999Z</time>
      </trkpt>
      <trkpt lat="43.57304" lon="1.44351">
        <ele>232</ele>
        <time>2019-06-10T13:36:44.999Z</time>
      </trkpt>
      <trkpt lat="43.57317" lon="1.44346">
        <ele>231.02</ele>
        <time>2019-06-10T13:36:46.999Z</time>
      </trkpt>
      <trkpt lat="43.57331" lon="1.44343">
        <ele>229.83</ele>
        <time>2019-06-10T13:36:48.999Z</time>
      </trkpt>
      <trkpt lat="43.57346" lon="1.44337">
        <ele>228.69</ele>
        <time>2019-06-10T13:36:50.999Z</time>
      </trkpt>
      <trkpt lat="43.57361" lon="1.44334">
        <ele>227.8</ele>
        <time>2019-06-10T13:36:52.999Z</time>
      </trkpt>
      <trkpt lat="43.57377" lon="1.44333">
        <ele>226.95</ele>
        <time>2019-06-10T13:36:54.999Z</time>
      </trkpt>
      <trkpt lat="43.57393" lon="1.44333">
        <ele>226.4</ele>
        <time>2019-06-10T13:36:56.999Z</time>
      </trkpt>
      <trkpt lat="43.57409" lon="1.44334">
        <ele>225.83</ele>
        <time>2019-06-10T13:36:58.999Z</time>
      </trkpt>
      <trkpt lat="43.57427" lon="1.44335">
        <ele>224.92</ele>
        <time>2019-06-10T13:37:00.999Z</time>
      </trkpt>
      <trkpt lat="43.57444" lon="1.44334">
        <ele>223.75</ele>
        <time>2019-06-10T13:37:02.999Z</time>
      </trkpt>
      <trkpt lat="43.57462" lon="1.44333">
        <ele>222.4</ele>
        <time>2019-06-10T13:37:04.999Z</time>
      </trkpt>
      <trkpt lat="43.57478" lon="1.44334">
        <ele>221.23</ele>
        <time>2019-06-10T13:37:06.999Z</time>
      </trkpt>
      <trkpt lat="43.57491" lon="1.44329">
        <ele>220.16</ele>
        <time>2019-06-10T13:37:08.999Z</time>
      </trkpt>
      <trkpt lat="43.57504" lon="1.44326">
        <ele>219.34</ele>
        <time>2019-06-10T13:37:10.999Z</time>
      </trkpt>
      <trkpt lat="43.57517" lon="1.44323">
        <ele>218.41</ele>
        <time>2019-06-10T13:37:12.999Z</time>
      </trkpt>
      <trkpt lat="43.5753" lon="1.44322">
        <ele>217.62</ele>
        <time>2019-06-10T13:37:14.999Z</time>
      </trkpt>
      <trkpt lat="43.5754" lon="1.4433">
        <ele>217.07</ele>
        <time>2019-06-10T13:37:16.999Z</time>
      </trkpt>
      <trkpt lat="43.57546" lon="1.44342">
        <ele>216.75</ele>
        <time>2019-06-10T13:37:20.999Z</time>
      </trkpt>
      <trkpt lat="43.57551" lon="1.44353">
        <ele>215.24</ele>
        <time>2019-06-10T13:37:35.999Z</time>
      </trkpt>
      <trkpt lat="43.57553" lon="1.44369">
        <ele>214.43</ele>
        <time>2019-06-10T13:37:39.999Z</time>
      </trkpt>
      <trkpt lat="43.57549" lon="1.44383">
        <ele>213.79</ele>
        <time>2019-06-10T13:37:42.999Z</time>
      </trkpt>
      <trkpt lat="43.57545" lon="1.44398">
        <ele>208.53</ele>
        <time>2019-06-10T13:37:45.999Z</time>
      </trkpt>
      <trkpt lat="43.57542" lon="1.44414">
        <ele>205.57</ele>
        <time>2019-06-10T13:37:48.999Z</time>
      </trkpt>
      <trkpt lat="43.57538" lon="1.44428">
        <ele>204.32</ele>
        <time>2019-06-10T13:37:51.999Z</time>
      </trkpt>
      <trkpt lat="43.57532" lon="1.44443">
        <ele>203.37</ele>
        <time>2019-06-10T13:37:54.999Z</time>
      </trkpt>
      <trkpt lat="43.57526" lon="1.44458">
        <ele>202.51</ele>
        <time>2019-06-10T13:37:57.999Z</time>
      </trkpt>
      <trkpt lat="43.57523" lon="1.44475">
        <ele>201.71</ele>
        <time>2019-06-10T13:38:00.999Z</time>
      </trkpt>
      <trkpt lat="43.57518" lon="1.44489">
        <ele>200.67</ele>
        <time>2019-06-10T13:38:03.999Z</time>
      </trkpt>
      <trkpt lat="43.57513" lon="1.44505">
        <ele>199.64</ele>
        <time>2019-06-10T13:38:06.999Z</time>
      </trkpt>
      <trkpt lat="43.57508" lon="1.4452">
        <ele>198.98</ele>
        <time>2019-06-10T13:38:09.999Z</time>
      </trkpt>
      <trkpt lat="43.57502" lon="1.44535">
        <ele>198.89</ele>
        <time>2019-06-10T13:38:12.999Z</time>
      </trkpt>
      <trkpt lat="43.57498" lon="1.44548">
        <ele>198.84</ele>
        <time>2019-06-10T13:38:15.999Z</time>
      </trkpt>
      <trkpt lat="43.57494" lon="1.44561">
        <ele>198.79</ele>
        <time>2019-06-10T13:38:18.999Z</time>
      </trkpt>
      <trkpt lat="43.57491" lon="1.44576">
        <ele>198.7</ele>
        <time>2019-06-10T13:38:22.999Z</time>
      </trkpt>
      <trkpt lat="43.57496" lon="1.44589">
        <ele>198.4</ele>
        <time>2019-06-10T13:38:25.999Z</time>
      </trkpt>
      <trkpt lat="43.57507" lon="1.44599">
        <ele>197.78</ele>
        <time>2019-06-10T13:38:28.999Z</time>
      </trkpt>
      <trkpt lat="43.57515" lon="1.44604">
        <ele>197.49</ele>
        <time>2019-06-10T13:38:30.999Z</time>
      </trkpt>
      <trkpt lat="43.57523" lon="1.4461">
        <ele>197.27</ele>
        <time>2019-06-10T13:38:32.999Z</time>
      </trkpt>
      <trkpt lat="43.57534" lon="1.44619">
        <ele>197.14</ele>
        <time>2019-06-10T13:38:35.999Z</time>
      </trkpt>
      <trkpt lat="43.57534" lon="1.44634">
        <ele>197.11</ele>
        <time>2019-06-10T13:38:38.999Z</time>
      </trkpt>
      <trkpt lat="43.5753" lon="1.44646">
        <ele>197.14</ele>
        <time>2019-06-10T13:38:41.999Z</time>
      </trkpt>
      <trkpt lat="43.57526" lon="1.44658">
        <ele>197.15</ele>
        <time>2019-06-10T13:38:44.999Z</time>
      </trkpt>
      <trkpt lat="43.5752" lon="1.44672">
        <ele>197.1</ele>
        <time>2019-06-10T13:38:47.999Z</time>
      </trkpt>
      <trkpt lat="43.57517" lon="1.44687">
        <ele>196.95</ele>
        <time>2019-06-10T13:38:50.999Z</time>
      </trkpt>
      <trkpt lat="43.57512" lon="1.44702">
        <ele>196.79</ele>
        <time>2019-06-10T13:38:53.999Z</time>
      </trkpt>
      <trkpt lat="43.57507" lon="1.44716">
        <ele>196.74</ele>
        <time>2019-06-10T13:38:56.999Z</time>
      </trkpt>
      <trkpt lat="43.57503" lon="1.44728">
        <ele>196.69</ele>
        <time>2019-06-10T13:38:59.999Z</time>
      </trkpt>
      <trkpt lat="43.57501" lon="1.4474">
        <ele>196.63</ele>
        <time>2019-06-10T13:39:02.999Z</time>
      </trkpt>
      <trkpt lat="43.57494" lon="1.44755">
        <ele>196.57</ele>
        <time>2019-06-10T13:39:05.999Z</time>
      </trkpt>
      <trkpt lat="43.57489" lon="1.4477">
        <ele>196.49</ele>
        <time>2019-06-10T13:39:08.999Z</time>
      </trkpt>
      <trkpt lat="43.57481" lon="1.44782">
        <ele>196.37</ele>
        <time>2019-06-10T13:39:11.999Z</time>
      </trkpt>
      <trkpt lat="43.57478" lon="1.44794">
        <ele>196.26</ele>
        <time>2019-06-10T13:39:14.999Z</time>
      </trkpt>
      <trkpt lat="43.57472" lon="1.44804">
        <ele>196.11</ele>
        <time>2019-06-10T13:39:17.999Z</time>
      </trkpt>
      <trkpt lat="43.57468" lon="1.4482">
        <ele>195.43</ele>
        <time>2019-06-10T13:39:20.999Z</time>
      </trkpt>
      <trkpt lat="43.57465" lon="1.44832">
        <ele>195.2</ele>
        <time>2019-06-10T13:39:23.999Z</time>
      </trkpt>
      <trkpt lat="43.5746" lon="1.44845">
        <ele>194.88</ele>
        <time>2019-06-10T13:39:27.999Z</time>
      </trkpt>
      <trkpt lat="43.57458" lon="1.4486">
        <ele>193.51</ele>
        <time>2019-06-10T13:39:30.999Z</time>
      </trkpt>
      <trkpt lat="43.57456" lon="1.4488">
        <ele>192.5</ele>
        <time>2019-06-10T13:39:32.999Z</time>
      </trkpt>
      <trkpt lat="43.57459" lon="1.44897">
        <ele>191.61</ele>
        <time>2019-06-10T13:39:34.999Z</time>
      </trkpt>
      <trkpt lat="43.57465" lon="1.44907">
        <ele>191.34</ele>
        <time>2019-06-10T13:39:36.999Z</time>
      </trkpt>
      <trkpt lat="43.57471" lon="1.44916">
        <ele>191.35</ele>
        <time>2019-06-10T13:39:38.999Z</time>
      </trkpt>
      <trkpt lat="43.57476" lon="1.44932">
        <ele>191.52</ele>
        <time>2019-06-10T13:39:41.999Z</time>
      </trkpt>
      <trkpt lat="43.57473" lon="1.44948">
        <ele>191.62</ele>
        <time>2019-06-10T13:39:44.999Z</time>
      </trkpt>
      <trkpt lat="43.57468" lon="1.44962">
        <ele>191.67</ele>
        <time>2019-06-10T13:39:47.999Z</time>
      </trkpt>
      <trkpt lat="43.57464" lon="1.44974">
        <ele>191.74</ele>
        <time>2019-06-10T13:39:50.999Z</time>
      </trkpt>
      <trkpt lat="43.57459" lon="1.44987">
        <ele>191.82</ele>
        <time>2019-06-10T13:39:53.999Z</time>
      </trkpt>
      <trkpt lat="43.5746" lon="1.45">
        <ele>191.92</ele>
        <time>2019-06-10T13:39:56.999Z</time>
      </trkpt>
      <trkpt lat="43.57469" lon="1.45005">
        <ele>192.01</ele>
        <time>2019-06-10T13:39:59.999Z</time>
      </trkpt>
      <trkpt lat="43.5748" lon="1.45004">
        <ele>192.33</ele>
        <time>2019-06-10T13:40:02.999Z</time>
      </trkpt>
      <trkpt lat="43.57485" lon="1.45016">
        <ele>192.42</ele>
        <time>2019-06-10T13:40:05.999Z</time>
      </trkpt>
      <trkpt lat="43.57481" lon="1.45029">
        <ele>192.47</ele>
        <time>2019-06-10T13:40:08.999Z</time>
      </trkpt>
      <trkpt lat="43.57473" lon="1.45039">
        <ele>192.54</ele>
        <time>2019-06-10T13:40:11.999Z</time>
      </trkpt>
      <trkpt lat="43.57465" lon="1.45048">
        <ele>192.61</ele>
        <time>2019-06-10T13:40:14.999Z</time>
      </trkpt>
      <trkpt lat="43.57456" lon="1.45055">
        <ele>192.66</ele>
        <time>2019-06-10T13:40:17.999Z</time>
      </trkpt>
      <trkpt lat="43.57447" lon="1.45066">
        <ele>193.15</ele>
        <time>2019-06-10T13:40:20.999Z</time>
      </trkpt>
      <trkpt lat="43.57438" lon="1.45075">
        <ele>193.35</ele>
        <time>2019-06-10T13:40:23.999Z</time>
      </trkpt>
      <trkpt lat="43.57428" lon="1.45083">
        <ele>193.43</ele>
        <time>2019-06-10T13:40:26.999Z</time>
      </trkpt>
      <trkpt lat="43.57419" lon="1.45093">
        <ele>193.38</ele>
        <time>2019-06-10T13:40:29.999Z</time>
      </trkpt>
      <trkpt lat="43.5741" lon="1.45104">
        <ele>193.39</ele>
        <time>2019-06-10T13:40:32.999Z</time>
      </trkpt>
      <trkpt lat="43.57401" lon="1.45115">
        <ele>193.37</ele>
        <time>2019-06-10T13:40:35.999Z</time>
      </trkpt>
      <trkpt lat="43.57391" lon="1.45125">
        <ele>193.45</ele>
        <time>2019-06-10T13:40:38.999Z</time>
      </trkpt>
      <trkpt lat="43.57381" lon="1.45132">
        <ele>193.46</ele>
        <time>2019-06-10T13:40:41.999Z</time>
      </trkpt>
      <trkpt lat="43.57376" lon="1.45144">
        <ele>193.47</ele>
        <time>2019-06-10T13:40:45.999Z</time>
      </trkpt>
      <trkpt lat="43.57381" lon="1.45158">
        <ele>193.48</ele>
        <time>2019-06-10T13:40:50.999Z</time>
      </trkpt>
      <trkpt lat="43.57386" lon="1.4517">
        <ele>193.51</ele>
        <time>2019-06-10T13:40:54.999Z</time>
      </trkpt>
      <trkpt lat="43.57385" lon="1.45184">
        <ele>193.85</ele>
        <time>2019-06-10T13:41:19.999Z</time>
      </trkpt>
      <trkpt lat="43.57382" lon="1.45198">
        <ele>194.12</ele>
        <time>2019-06-10T13:41:23.999Z</time>
      </trkpt>
      <trkpt lat="43.57376" lon="1.4521">
        <ele>194.32</ele>
        <time>2019-06-10T13:41:26.999Z</time>
      </trkpt>
      <trkpt lat="43.57376" lon="1.45226">
        <ele>194.51</ele>
        <time>2019-06-10T13:41:29.999Z</time>
      </trkpt>
      <trkpt lat="43.57372" lon="1.45238">
        <ele>194.7</ele>
        <time>2019-06-10T13:41:32.999Z</time>
      </trkpt>
      <trkpt lat="43.57364" lon="1.45246">
        <ele>194.87</ele>
        <time>2019-06-10T13:41:35.999Z</time>
      </trkpt>
      <trkpt lat="43.57357" lon="1.45256">
        <ele>195.04</ele>
        <time>2019-06-10T13:41:38.999Z</time>
      </trkpt>
      <trkpt lat="43.57351" lon="1.45266">
        <ele>195.18</ele>
        <time>2019-06-10T13:41:41.999Z</time>
      </trkpt>
      <trkpt lat="43.57343" lon="1.45276">
        <ele>195.31</ele>
        <time>2019-06-10T13:41:45.999Z</time>
      </trkpt>
      <trkpt lat="43.5734" lon="1.45289">
        <ele>195.46</ele>
        <time>2019-06-10T13:41:49.999Z</time>
      </trkpt>
      <trkpt lat="43.57335" lon="1.45302">
        <ele>195.65</ele>
        <time>2019-06-10T13:41:54.999Z</time>
      </trkpt>
      <trkpt lat="43.57329" lon="1.45313">
        <ele>195.76</ele>
        <time>2019-06-10T13:41:58.999Z</time>
      </trkpt>
      <trkpt lat="43.57323" lon="1.45323">
        <ele>195.81</ele>
        <time>2019-06-10T13:42:01.999Z</time>
      </trkpt>
      <trkpt lat="43.57315" lon="1.45333">
        <ele>195.86</ele>
        <time>2019-06-10T13:42:04.999Z</time>
      </trkpt>
      <trkpt lat="43.57308" lon="1.45346">
        <ele>196.16</ele>
        <time>2019-06-10T13:42:07.999Z</time>
      </trkpt>
      <trkpt lat="43.573" lon="1.4536">
        <ele>196.46</ele>
        <time>2019-06-10T13:42:10.999Z</time>
      </trkpt>
      <trkpt lat="43.57293" lon="1.45369">
        <ele>196.59</ele>
        <time>2019-06-10T13:42:12.999Z</time>
      </trkpt>
      <trkpt lat="43.57286" lon="1.45384">
        <ele>196.82</ele>
        <time>2019-06-10T13:42:15.999Z</time>
      </trkpt>
      <trkpt lat="43.57283" lon="1.45396">
        <ele>196.72</ele>
        <time>2019-06-10T13:42:17.999Z</time>
      </trkpt>
      <trkpt lat="43.57281" lon="1.45408">
        <ele>196.49</ele>
        <time>2019-06-10T13:42:19.999Z</time>
      </trkpt>
      <trkpt lat="43.57279" lon="1.45421">
        <ele>196.38</ele>
        <time>2019-06-10T13:42:21.999Z</time>
      </trkpt>
      <trkpt lat="43.57277" lon="1.45437">
        <ele>196.47</ele>
        <time>2019-06-10T13:42:24.999Z</time>
      </trkpt>
      <trkpt lat="43.57275" lon="1.45454">
        <ele>196.28</ele>
        <time>2019-06-10T13:42:27.999Z</time>
      </trkpt>
      <trkpt lat="43.57274" lon="1.4547">
        <ele>196.28</ele>
        <time>2019-06-10T13:42:30.999Z</time>
      </trkpt>
      <trkpt lat="43.57272" lon="1.45487">
        <ele>196.51</ele>
        <time>2019-06-10T13:42:33.999Z</time>
      </trkpt>
      <trkpt lat="43.57271" lon="1.45503">
        <ele>196.99</ele>
        <time>2019-06-10T13:42:36.999Z</time>
      </trkpt>
      <trkpt lat="43.5727" lon="1.4552">
        <ele>197.14</ele>
        <time>2019-06-10T13:42:39.999Z</time>
      </trkpt>
      <trkpt lat="43.57268" lon="1.45536">
        <ele>196.99</ele>
        <time>2019-06-10T13:42:42.999Z</time>
      </trkpt>
      <trkpt lat="43.57267" lon="1.4555">
        <ele>197.01</ele>
        <time>2019-06-10T13:42:45.999Z</time>
      </trkpt>
      <trkpt lat="43.57265" lon="1.45563">
        <ele>197.1</ele>
        <time>2019-06-10T13:42:49.999Z</time>
      </trkpt>
      <trkpt lat="43.57263" lon="1.45577">
        <ele>197.16</ele>
        <time>2019-06-10T13:42:54.999Z</time>
      </trkpt>
      <trkpt lat="43.57261" lon="1.45594">
        <ele>197.14</ele>
        <time>2019-06-10T13:42:58.999Z</time>
      </trkpt>
      <trkpt lat="43.57259" lon="1.45607">
        <ele>197.13</ele>
        <time>2019-06-10T13:43:01.999Z</time>
      </trkpt>
      <trkpt lat="43.57259" lon="1.45621">
        <ele>197.18</ele>
        <time>2019-06-10T13:43:04.999Z</time>
      </trkpt>
      <trkpt lat="43.57266" lon="1.4563">
        <ele>197.21</ele>
        <time>2019-06-10T13:43:07.999Z</time>
      </trkpt>
      <trkpt lat="43.57267" lon="1.45646">
        <ele>197.07</ele>
        <time>2019-06-10T13:43:11.999Z</time>
      </trkpt>
      <trkpt lat="43.57262" lon="1.45659">
        <ele>196.89</ele>
        <time>2019-06-10T13:43:15.999Z</time>
      </trkpt>
      <trkpt lat="43.57259" lon="1.45672">
        <ele>196.69</ele>
        <time>2019-06-10T13:43:18.999Z</time>
      </trkpt>
      <trkpt lat="43.57257" lon="1.45685">
        <ele>196.51</ele>
        <time>2019-06-10T13:43:21.999Z</time>
      </trkpt>
      <trkpt lat="43.57258" lon="1.45699">
        <ele>196.27</ele>
        <time>2019-06-10T13:43:24.999Z</time>
      </trkpt>
      <trkpt lat="43.57258" lon="1.45715">
        <ele>195.45</ele>
        <time>2019-06-10T13:43:27.999Z</time>
      </trkpt>
      <trkpt lat="43.57257" lon="1.45729">
        <ele>194.94</ele>
        <time>2019-06-10T13:43:29.999Z</time>
      </trkpt>
      <trkpt lat="43.57256" lon="1.45742">
        <ele>194.89</ele>
        <time>2019-06-10T13:43:31.999Z</time>
      </trkpt>
      <trkpt lat="43.57255" lon="1.4576">
        <ele>194.89</ele>
        <time>2019-06-10T13:43:34.999Z</time>
      </trkpt>
      <trkpt lat="43.57255" lon="1.45772">
        <ele>194.87</ele>
        <time>2019-06-10T13:43:36.999Z</time>
      </trkpt>
      <trkpt lat="43.57255" lon="1.45788">
        <ele>194.85</ele>
        <time>2019-06-10T13:43:39.999Z</time>
      </trkpt>
      <trkpt lat="43.57253" lon="1.45801">
        <ele>194.84</ele>
        <time>2019-06-10T13:43:42.999Z</time>
      </trkpt>
      <trkpt lat="43.57252" lon="1.45817">
        <ele>194.76</ele>
        <time>2019-06-10T13:43:45.999Z</time>
      </trkpt>
      <trkpt lat="43.5725" lon="1.45834">
        <ele>194.73</ele>
        <time>2019-06-10T13:43:48.999Z</time>
      </trkpt>
      <trkpt lat="43.5725" lon="1.45848">
        <ele>194.85</ele>
        <time>2019-06-10T13:43:51.999Z</time>
      </trkpt>
      <trkpt lat="43.57248" lon="1.45861">
        <ele>195.05</ele>
        <time>2019-06-10T13:43:54.999Z</time>
      </trkpt>
      <trkpt lat="43.57251" lon="1.45875">
        <ele>195.55</ele>
        <time>2019-06-10T13:43:59.999Z</time>
      </trkpt>
      <trkpt lat="43.57259" lon="1.45882">
        <ele>195.8</ele>
        <time>2019-06-10T13:44:02.999Z</time>
      </trkpt>
      <trkpt lat="43.57269" lon="1.45892">
        <ele>195.94</ele>
        <time>2019-06-10T13:44:05.999Z</time>
      </trkpt>
      <trkpt lat="43.57277" lon="1.45901">
        <ele>195.97</ele>
        <time>2019-06-10T13:44:08.999Z</time>
      </trkpt>
      <trkpt lat="43.57288" lon="1.45911">
        <ele>196.05</ele>
        <time>2019-06-10T13:44:11.999Z</time>
      </trkpt>
      <trkpt lat="43.57296" lon="1.45919">
        <ele>196.14</ele>
        <time>2019-06-10T13:44:14.999Z</time>
      </trkpt>
      <trkpt lat="43.57303" lon="1.45927">
        <ele>196.2</ele>
        <time>2019-06-10T13:44:17.999Z</time>
      </trkpt>
      <trkpt lat="43.5731" lon="1.45939">
        <ele>196.51</ele>
        <time>2019-06-10T13:44:21.999Z</time>
      </trkpt>
      <trkpt lat="43.57318" lon="1.45947">
        <ele>196.9</ele>
        <time>2019-06-10T13:44:25.999Z</time>
      </trkpt>
      <trkpt lat="43.57312" lon="1.4596">
        <ele>197.31</ele>
        <time>2019-06-10T13:44:30.999Z</time>
      </trkpt>
      <trkpt lat="43.57306" lon="1.45972">
        <ele>197.6</ele>
        <time>2019-06-10T13:44:34.999Z</time>
      </trkpt>
      <trkpt lat="43.573" lon="1.45982">
        <ele>197.79</ele>
        <time>2019-06-10T13:44:37.999Z</time>
      </trkpt>
      <trkpt lat="43.57294" lon="1.45992">
        <ele>198.08</ele>
        <time>2019-06-10T13:44:41.999Z</time>
      </trkpt>
      <trkpt lat="43.57288" lon="1.46003">
        <ele>198.25</ele>
        <time>2019-06-10T13:44:44.999Z</time>
      </trkpt>
      <trkpt lat="43.57283" lon="1.46013">
        <ele>198.43</ele>
        <time>2019-06-10T13:44:47.999Z</time>
      </trkpt>
      <trkpt lat="43.57277" lon="1.46024">
        <ele>198.57</ele>
        <time>2019-06-10T13:44:50.999Z</time>
      </trkpt>
      <trkpt lat="43.5727" lon="1.46034">
        <ele>198.74</ele>
        <time>2019-06-10T13:44:53.999Z</time>
      </trkpt>
      <trkpt lat="43.57263" lon="1.46044">
        <ele>198.92</ele>
        <time>2019-06-10T13:44:56.999Z</time>
      </trkpt>
      <trkpt lat="43.57256" lon="1.46054">
        <ele>199.25</ele>
        <time>2019-06-10T13:45:00.999Z</time>
      </trkpt>
      <trkpt lat="43.57249" lon="1.46065">
        <ele>199.49</ele>
        <time>2019-06-10T13:45:03.999Z</time>
      </trkpt>
      <trkpt lat="43.57245" lon="1.46079">
        <ele>199.74</ele>
        <time>2019-06-10T13:45:06.999Z</time>
      </trkpt>
      <trkpt lat="43.5724" lon="1.4609">
        <ele>200.01</ele>
        <time>2019-06-10T13:45:09.999Z</time>
      </trkpt>
      <trkpt lat="43.57235" lon="1.46101">
        <ele>200.27</ele>
        <time>2019-06-10T13:45:12.999Z</time>
      </trkpt>
      <trkpt lat="43.57227" lon="1.46113">
        <ele>200.66</ele>
        <time>2019-06-10T13:45:16.999Z</time>
      </trkpt>
      <trkpt lat="43.57221" lon="1.46125">
        <ele>201.17</ele>
        <time>2019-06-10T13:45:22.999Z</time>
      </trkpt>
      <trkpt lat="43.57214" lon="1.46135">
        <ele>201.39</ele>
        <time>2019-06-10T13:45:26.999Z</time>
      </trkpt>
      <trkpt lat="43.57206" lon="1.46148">
        <ele>201.55</ele>
        <time>2019-06-10T13:45:30.999Z</time>
      </trkpt>
      <trkpt lat="43.57198" lon="1.4616">
        <ele>201.88</ele>
        <time>2019-06-10T13:45:33.999Z</time>
      </trkpt>
      <trkpt lat="43.57191" lon="1.46172">
        <ele>201.99</ele>
        <time>2019-06-10T13:45:36.999Z</time>
      </trkpt>
      <trkpt lat="43.57183" lon="1.46185">
        <ele>201.38</ele>
        <time>2019-06-10T13:45:39.999Z</time>
      </trkpt>
      <trkpt lat="43.57176" lon="1.46197">
        <ele>200.92</ele>
        <time>2019-06-10T13:45:41.999Z</time>
      </trkpt>
      <trkpt lat="43.5717" lon="1.46208">
        <ele>200.75</ele>
        <time>2019-06-10T13:45:43.999Z</time>
      </trkpt>
      <trkpt lat="43.57164" lon="1.46218">
        <ele>200.42</ele>
        <time>2019-06-10T13:45:45.999Z</time>
      </trkpt>
      <trkpt lat="43.57155" lon="1.46232">
        <ele>199.56</ele>
        <time>2019-06-10T13:45:48.999Z</time>
      </trkpt>
      <trkpt lat="43.57146" lon="1.46246">
        <ele>198.36</ele>
        <time>2019-06-10T13:45:51.999Z</time>
      </trkpt>
      <trkpt lat="43.57139" lon="1.46254">
        <ele>197.85</ele>
        <time>2019-06-10T13:45:53.999Z</time>
      </trkpt>
      <trkpt lat="43.57132" lon="1.46262">
        <ele>197.7</ele>
        <time>2019-06-10T13:45:55.999Z</time>
      </trkpt>
      <trkpt lat="43.57125" lon="1.4627">
        <ele>197.71</ele>
        <time>2019-06-10T13:45:57.999Z</time>
      </trkpt>
      <trkpt lat="43.57118" lon="1.46279">
        <ele>197.66</ele>
        <time>2019-06-10T13:45:59.999Z</time>
      </trkpt>
      <trkpt lat="43.5711" lon="1.46293">
        <ele>198.26</ele>
        <time>2019-06-10T13:46:02.999Z</time>
      </trkpt>
      <trkpt lat="43.57103" lon="1.46303">
        <ele>198.47</ele>
        <time>2019-06-10T13:46:04.999Z</time>
      </trkpt>
      <trkpt lat="43.57097" lon="1.46312">
        <ele>198.78</ele>
        <time>2019-06-10T13:46:06.999Z</time>
      </trkpt>
      <trkpt lat="43.57089" lon="1.46325">
        <ele>199.04</ele>
        <time>2019-06-10T13:46:09.999Z</time>
      </trkpt>
      <trkpt lat="43.5708" lon="1.46338">
        <ele>198.88</ele>
        <time>2019-06-10T13:46:12.999Z</time>
      </trkpt>
      <trkpt lat="43.57071" lon="1.46352">
        <ele>198.75</ele>
        <time>2019-06-10T13:46:15.999Z</time>
      </trkpt>
      <trkpt lat="43.57065" lon="1.46362">
        <ele>198.67</ele>
        <time>2019-06-10T13:46:17.999Z</time>
      </trkpt>
      <trkpt lat="43.57055" lon="1.46374">
        <ele>198.97</ele>
        <time>2019-06-10T13:46:20.999Z</time>
      </trkpt>
      <trkpt lat="43.57045" lon="1.46382">
        <ele>199.15</ele>
        <time>2019-06-10T13:46:23.999Z</time>
      </trkpt>
      <trkpt lat="43.57033" lon="1.46387">
        <ele>199.29</ele>
        <time>2019-06-10T13:46:26.999Z</time>
      </trkpt>
      <trkpt lat="43.57021" lon="1.4639">
        <ele>198.99</ele>
        <time>2019-06-10T13:46:29.999Z</time>
      </trkpt>
      <trkpt lat="43.57009" lon="1.46392">
        <ele>198.24</ele>
        <time>2019-06-10T13:46:32.999Z</time>
      </trkpt>
      <trkpt lat="43.56997" lon="1.46393">
        <ele>198.22</ele>
        <time>2019-06-10T13:46:35.999Z</time>
      </trkpt>
      <trkpt lat="43.56985" lon="1.46394">
        <ele>198.64</ele>
        <time>2019-06-10T13:46:38.999Z</time>
      </trkpt>
      <trkpt lat="43.56973" lon="1.46396">
        <ele>198.34</ele>
        <time>2019-06-10T13:46:41.999Z</time>
      </trkpt>
      <trkpt lat="43.5696" lon="1.46399">
        <ele>198.24</ele>
        <time>2019-06-10T13:46:44.999Z</time>
      </trkpt>
      <trkpt lat="43.56948" lon="1.464">
        <ele>198.44</ele>
        <time>2019-06-10T13:46:47.999Z</time>
      </trkpt>
      <trkpt lat="43.56936" lon="1.46402">
        <ele>198.03</ele>
        <time>2019-06-10T13:46:50.999Z</time>
      </trkpt>
      <trkpt lat="43.56924" lon="1.46403">
        <ele>197.61</ele>
        <time>2019-06-10T13:46:53.999Z</time>
      </trkpt>
      <trkpt lat="43.56912" lon="1.46405">
        <ele>197.39</ele>
        <time>2019-06-10T13:46:56.999Z</time>
      </trkpt>
      <trkpt lat="43.56903" lon="1.46408">
        <ele>197.68</ele>
        <time>2019-06-10T13:46:58.999Z</time>
      </trkpt>
      <trkpt lat="43.56891" lon="1.46409">
        <ele>198.2</ele>
        <time>2019-06-10T13:47:01.999Z</time>
      </trkpt>
      <trkpt lat="43.5688" lon="1.4641">
        <ele>198.59</ele>
        <time>2019-06-10T13:47:04.999Z</time>
      </trkpt>
      <trkpt lat="43.56868" lon="1.46411">
        <ele>199.58</ele>
        <time>2019-06-10T13:47:07.999Z</time>
      </trkpt>
      <trkpt lat="43.56856" lon="1.46412">
        <ele>200.67</ele>
        <time>2019-06-10T13:47:10.999Z</time>
      </trkpt>
      <trkpt lat="43.56847" lon="1.46414">
        <ele>200.87</ele>
        <time>2019-06-10T13:47:12.999Z</time>
      </trkpt>
      <trkpt lat="43.56836" lon="1.46417">
        <ele>201.31</ele>
        <time>2019-06-10T13:47:15.999Z</time>
      </trkpt>
      <trkpt lat="43.56823" lon="1.46419">
        <ele>201.81</ele>
        <time>2019-06-10T13:47:18.999Z</time>
      </trkpt>
      <trkpt lat="43.5681" lon="1.46419">
        <ele>202.11</ele>
        <time>2019-06-10T13:47:21.999Z</time>
      </trkpt>
      <trkpt lat="43.56801" lon="1.4642">
        <ele>202</ele>
        <time>2019-06-10T13:47:23.999Z</time>
      </trkpt>
      <trkpt lat="43.56789" lon="1.46421">
        <ele>201.95</ele>
        <time>2019-06-10T13:47:26.999Z</time>
      </trkpt>
      <trkpt lat="43.56776" lon="1.46421">
        <ele>201.21</ele>
        <time>2019-06-10T13:47:29.999Z</time>
      </trkpt>
      <trkpt lat="43.56764" lon="1.46424">
        <ele>200.14</ele>
        <time>2019-06-10T13:47:32.999Z</time>
      </trkpt>
      <trkpt lat="43.56754" lon="1.46425">
        <ele>200.04</ele>
        <time>2019-06-10T13:47:35.999Z</time>
      </trkpt>
      <trkpt lat="43.56744" lon="1.46427">
        <ele>199.97</ele>
        <time>2019-06-10T13:47:38.999Z</time>
      </trkpt>
      <trkpt lat="43.56735" lon="1.4643">
        <ele>200.01</ele>
        <time>2019-06-10T13:47:43.999Z</time>
      </trkpt>
      <trkpt lat="43.56734" lon="1.46443">
        <ele>200.11</ele>
        <time>2019-06-10T13:47:47.999Z</time>
      </trkpt>
      <trkpt lat="43.56737" lon="1.46456">
        <ele>200.15</ele>
        <time>2019-06-10T13:47:51.999Z</time>
      </trkpt>
      <trkpt lat="43.56736" lon="1.4647">
        <ele>200.18</ele>
        <time>2019-06-10T13:47:56.999Z</time>
      </trkpt>
      <trkpt lat="43.56727" lon="1.46478">
        <ele>200.12</ele>
        <time>2019-06-10T13:48:01.999Z</time>
      </trkpt>
      <trkpt lat="43.56718" lon="1.46486">
        <ele>200.02</ele>
        <time>2019-06-10T13:48:05.999Z</time>
      </trkpt>
      <trkpt lat="43.56709" lon="1.46495">
        <ele>199.91</ele>
        <time>2019-06-10T13:48:09.999Z</time>
      </trkpt>
      <trkpt lat="43.567" lon="1.46503">
        <ele>199.81</ele>
        <time>2019-06-10T13:48:12.999Z</time>
      </trkpt>
      <trkpt lat="43.56691" lon="1.46513">
        <ele>199.8</ele>
        <time>2019-06-10T13:48:15.999Z</time>
      </trkpt>
      <trkpt lat="43.56681" lon="1.46523">
        <ele>200.03</ele>
        <time>2019-06-10T13:48:18.999Z</time>
      </trkpt>
      <trkpt lat="43.56671" lon="1.46533">
        <ele>200.74</ele>
        <time>2019-06-10T13:48:21.999Z</time>
      </trkpt>
      <trkpt lat="43.56661" lon="1.46542">
        <ele>201.76</ele>
        <time>2019-06-10T13:48:24.999Z</time>
      </trkpt>
      <trkpt lat="43.56652" lon="1.46552">
        <ele>202.11</ele>
        <time>2019-06-10T13:48:27.999Z</time>
      </trkpt>
      <trkpt lat="43.56643" lon="1.4656">
        <ele>202.02</ele>
        <time>2019-06-10T13:48:30.999Z</time>
      </trkpt>
      <trkpt lat="43.56633" lon="1.4657">
        <ele>202.06</ele>
        <time>2019-06-10T13:48:33.999Z</time>
      </trkpt>
      <trkpt lat="43.56624" lon="1.46579">
        <ele>202.14</ele>
        <time>2019-06-10T13:48:36.999Z</time>
      </trkpt>
      <trkpt lat="43.56615" lon="1.46588">
        <ele>202.28</ele>
        <time>2019-06-10T13:48:39.999Z</time>
      </trkpt>
      <trkpt lat="43.56605" lon="1.46595">
        <ele>202.59</ele>
        <time>2019-06-10T13:48:42.999Z</time>
      </trkpt>
      <trkpt lat="43.56596" lon="1.46603">
        <ele>202.61</ele>
        <time>2019-06-10T13:48:45.999Z</time>
      </trkpt>
      <trkpt lat="43.56586" lon="1.46611">
        <ele>202.54</ele>
        <time>2019-06-10T13:48:49.999Z</time>
      </trkpt>
      <trkpt lat="43.56579" lon="1.46619">
        <ele>202.4</ele>
        <time>2019-06-10T13:48:52.999Z</time>
      </trkpt>
      <trkpt lat="43.5657" lon="1.46628">
        <ele>201.7</ele>
        <time>2019-06-10T13:48:55.999Z</time>
      </trkpt>
      <trkpt lat="43.5656" lon="1.46637">
        <ele>200.44</ele>
        <time>2019-06-10T13:48:58.999Z</time>
      </trkpt>
      <trkpt lat="43.5655" lon="1.46646">
        <ele>199.94</ele>
        <time>2019-06-10T13:49:01.999Z</time>
      </trkpt>
      <trkpt lat="43.56541" lon="1.46655">
        <ele>199.93</ele>
        <time>2019-06-10T13:49:04.999Z</time>
      </trkpt>
      <trkpt lat="43.56534" lon="1.46664">
        <ele>199.9</ele>
        <time>2019-06-10T13:49:07.999Z</time>
      </trkpt>
      <trkpt lat="43.56525" lon="1.46672">
        <ele>199.8</ele>
        <time>2019-06-10T13:49:10.999Z</time>
      </trkpt>
      <trkpt lat="43.56517" lon="1.46679">
        <ele>199.69</ele>
        <time>2019-06-10T13:49:13.999Z</time>
      </trkpt>
      <trkpt lat="43.56508" lon="1.46688">
        <ele>199.07</ele>
        <time>2019-06-10T13:49:16.999Z</time>
      </trkpt>
      <trkpt lat="43.56498" lon="1.46696">
        <ele>198.02</ele>
        <time>2019-06-10T13:49:19.999Z</time>
      </trkpt>
      <trkpt lat="43.56489" lon="1.46707">
        <ele>197.32</ele>
        <time>2019-06-10T13:49:22.999Z</time>
      </trkpt>
      <trkpt lat="43.5648" lon="1.46717">
        <ele>196.84</ele>
        <time>2019-06-10T13:49:25.999Z</time>
      </trkpt>
      <trkpt lat="43.56471" lon="1.46725">
        <ele>196.79</ele>
        <time>2019-06-10T13:49:28.999Z</time>
      </trkpt>
      <trkpt lat="43.56462" lon="1.46733">
        <ele>196.35</ele>
        <time>2019-06-10T13:49:31.999Z</time>
      </trkpt>
      <trkpt lat="43.56453" lon="1.46743">
        <ele>195.98</ele>
        <time>2019-06-10T13:49:34.999Z</time>
      </trkpt>
      <trkpt lat="43.56444" lon="1.46752">
        <ele>195.42</ele>
        <time>2019-06-10T13:49:37.999Z</time>
      </trkpt>
      <trkpt lat="43.56435" lon="1.46761">
        <ele>195.37</ele>
        <time>2019-06-10T13:49:40.999Z</time>
      </trkpt>
      <trkpt lat="43.56427" lon="1.46768">
        <ele>195.33</ele>
        <time>2019-06-10T13:49:43.999Z</time>
      </trkpt>
      <trkpt lat="43.56423" lon="1.4678">
        <ele>195.25</ele>
        <time>2019-06-10T13:49:46.999Z</time>
      </trkpt>
      <trkpt lat="43.56421" lon="1.46794">
        <ele>195.22</ele>
        <time>2019-06-10T13:49:49.999Z</time>
      </trkpt>
      <trkpt lat="43.56415" lon="1.46807">
        <ele>195.3</ele>
        <time>2019-06-10T13:49:53.999Z</time>
      </trkpt>
      <trkpt lat="43.56409" lon="1.46817">
        <ele>195.49</ele>
        <time>2019-06-10T13:49:57.999Z</time>
      </trkpt>
      <trkpt lat="43.56401" lon="1.46826">
        <ele>195.66</ele>
        <time>2019-06-10T13:50:01.999Z</time>
      </trkpt>
      <trkpt lat="43.56392" lon="1.46834">
        <ele>196.27</ele>
        <time>2019-06-10T13:50:04.999Z</time>
      </trkpt>
      <trkpt lat="43.56383" lon="1.46844">
        <ele>197.11</ele>
        <time>2019-06-10T13:50:07.999Z</time>
      </trkpt>
      <trkpt lat="43.56373" lon="1.46853">
        <ele>197.5</ele>
        <time>2019-06-10T13:50:10.999Z</time>
      </trkpt>
      <trkpt lat="43.56363" lon="1.46864">
        <ele>197.51</ele>
        <time>2019-06-10T13:50:13.999Z</time>
      </trkpt>
      <trkpt lat="43.56353" lon="1.46874">
        <ele>197.96</ele>
        <time>2019-06-10T13:50:16.999Z</time>
      </trkpt>
      <trkpt lat="43.56343" lon="1.46883">
        <ele>198.07</ele>
        <time>2019-06-10T13:50:19.999Z</time>
      </trkpt>
      <trkpt lat="43.56334" lon="1.46891">
        <ele>198.17</ele>
        <time>2019-06-10T13:50:22.999Z</time>
      </trkpt>
      <trkpt lat="43.56325" lon="1.46899">
        <ele>198.42</ele>
        <time>2019-06-10T13:50:25.999Z</time>
      </trkpt>
      <trkpt lat="43.56314" lon="1.46907">
        <ele>198.4</ele>
        <time>2019-06-10T13:50:28.999Z</time>
      </trkpt>
      <trkpt lat="43.56305" lon="1.46915">
        <ele>198.29</ele>
        <time>2019-06-10T13:50:31.999Z</time>
      </trkpt>
      <trkpt lat="43.56297" lon="1.46921">
        <ele>198.13</ele>
        <time>2019-06-10T13:50:34.999Z</time>
      </trkpt>
      <trkpt lat="43.56286" lon="1.46929">
        <ele>197.82</ele>
        <time>2019-06-10T13:50:37.999Z</time>
      </trkpt>
      <trkpt lat="43.56276" lon="1.46938">
        <ele>197.5</ele>
        <time>2019-06-10T13:50:40.999Z</time>
      </trkpt>
      <trkpt lat="43.56266" lon="1.46946">
        <ele>197.19</ele>
        <time>2019-06-10T13:50:43.999Z</time>
      </trkpt>
      <trkpt lat="43.56257" lon="1.46953">
        <ele>196.86</ele>
        <time>2019-06-10T13:50:46.999Z</time>
      </trkpt>
      <trkpt lat="43.56248" lon="1.4696">
        <ele>196.58</ele>
        <time>2019-06-10T13:50:49.999Z</time>
      </trkpt>
      <trkpt lat="43.56238" lon="1.46972">
        <ele>196.35</ele>
        <time>2019-06-10T13:50:52.999Z</time>
      </trkpt>
      <trkpt lat="43.56229" lon="1.46983">
        <ele>196.21</ele>
        <time>2019-06-10T13:50:55.999Z</time>
      </trkpt>
      <trkpt lat="43.5622" lon="1.46993">
        <ele>196.13</ele>
        <time>2019-06-10T13:50:58.999Z</time>
      </trkpt>
      <trkpt lat="43.56211" lon="1.47003">
        <ele>196.08</ele>
        <time>2019-06-10T13:51:01.999Z</time>
      </trkpt>
      <trkpt lat="43.56202" lon="1.47011">
        <ele>196.02</ele>
        <time>2019-06-10T13:51:04.999Z</time>
      </trkpt>
      <trkpt lat="43.56192" lon="1.4702">
        <ele>195.89</ele>
        <time>2019-06-10T13:51:07.999Z</time>
      </trkpt>
      <trkpt lat="43.56184" lon="1.47026">
        <ele>195.66</ele>
        <time>2019-06-10T13:51:10.999Z</time>
      </trkpt>
      <trkpt lat="43.56175" lon="1.47034">
        <ele>195.38</ele>
        <time>2019-06-10T13:51:13.999Z</time>
      </trkpt>
      <trkpt lat="43.56166" lon="1.47045">
        <ele>195.13</ele>
        <time>2019-06-10T13:51:16.999Z</time>
      </trkpt>
      <trkpt lat="43.56157" lon="1.47054">
        <ele>194.91</ele>
        <time>2019-06-10T13:51:19.999Z</time>
      </trkpt>
      <trkpt lat="43.56149" lon="1.47065">
        <ele>193.76</ele>
        <time>2019-06-10T13:51:22.999Z</time>
      </trkpt>
      <trkpt lat="43.56139" lon="1.47077">
        <ele>192.99</ele>
        <time>2019-06-10T13:51:25.999Z</time>
      </trkpt>
      <trkpt lat="43.5613" lon="1.47088">
        <ele>193.38</ele>
        <time>2019-06-10T13:51:28.999Z</time>
      </trkpt>
      <trkpt lat="43.5612" lon="1.47098">
        <ele>194.16</ele>
        <time>2019-06-10T13:51:31.999Z</time>
      </trkpt>
      <trkpt lat="43.56111" lon="1.47106">
        <ele>194.26</ele>
        <time>2019-06-10T13:51:34.999Z</time>
      </trkpt>
      <trkpt lat="43.56101" lon="1.47116">
        <ele>194.92</ele>
        <time>2019-06-10T13:51:37.999Z</time>
      </trkpt>
      <trkpt lat="43.56091" lon="1.47124">
        <ele>195.7</ele>
        <time>2019-06-10T13:51:40.999Z</time>
      </trkpt>
      <trkpt lat="43.56081" lon="1.47134">
        <ele>196.24</ele>
        <time>2019-06-10T13:51:43.999Z</time>
      </trkpt>
      <trkpt lat="43.56072" lon="1.47144">
        <ele>196.38</ele>
        <time>2019-06-10T13:51:46.999Z</time>
      </trkpt>
      <trkpt lat="43.56063" lon="1.47154">
        <ele>196.91</ele>
        <time>2019-06-10T13:51:49.999Z</time>
      </trkpt>
      <trkpt lat="43.56055" lon="1.47161">
        <ele>197.72</ele>
        <time>2019-06-10T13:51:51.999Z</time>
      </trkpt>
      <trkpt lat="43.56044" lon="1.47172">
        <ele>198.76</ele>
        <time>2019-06-10T13:51:54.999Z</time>
      </trkpt>
      <trkpt lat="43.56035" lon="1.47182">
        <ele>199.27</ele>
        <time>2019-06-10T13:51:57.999Z</time>
      </trkpt>
      <trkpt lat="43.56025" lon="1.47191">
        <ele>198.66</ele>
        <time>2019-06-10T13:52:00.999Z</time>
      </trkpt>
      <trkpt lat="43.56017" lon="1.47201">
        <ele>198.66</ele>
        <time>2019-06-10T13:52:03.999Z</time>
      </trkpt>
      <trkpt lat="43.56009" lon="1.4721">
        <ele>198.66</ele>
        <time>2019-06-10T13:52:06.999Z</time>
      </trkpt>
      <trkpt lat="43.56" lon="1.47218">
        <ele>198.67</ele>
        <time>2019-06-10T13:52:09.999Z</time>
      </trkpt>
      <trkpt lat="43.55991" lon="1.47226">
        <ele>198.69</ele>
        <time>2019-06-10T13:52:12.999Z</time>
      </trkpt>
      <trkpt lat="43.55981" lon="1.47233">
        <ele>198.71</ele>
        <time>2019-06-10T13:52:15.999Z</time>
      </trkpt>
      <trkpt lat="43.55972" lon="1.47239">
        <ele>198.7</ele>
        <time>2019-06-10T13:52:18.999Z</time>
      </trkpt>
      <trkpt lat="43.55964" lon="1.47247">
        <ele>198.68</ele>
        <time>2019-06-10T13:52:21.999Z</time>
      </trkpt>
      <trkpt lat="43.55955" lon="1.47255">
        <ele>198.7</ele>
        <time>2019-06-10T13:52:24.999Z</time>
      </trkpt>
      <trkpt lat="43.55948" lon="1.47265">
        <ele>198.79</ele>
        <time>2019-06-10T13:52:27.999Z</time>
      </trkpt>
      <trkpt lat="43.5594" lon="1.47274">
        <ele>198.88</ele>
        <time>2019-06-10T13:52:31.999Z</time>
      </trkpt>
      <trkpt lat="43.5593" lon="1.47279">
        <ele>198.87</ele>
        <time>2019-06-10T13:52:34.999Z</time>
      </trkpt>
      <trkpt lat="43.55919" lon="1.47283">
        <ele>198.93</ele>
        <time>2019-06-10T13:52:37.999Z</time>
      </trkpt>
      <trkpt lat="43.55909" lon="1.4729">
        <ele>199</ele>
        <time>2019-06-10T13:52:40.999Z</time>
      </trkpt>
      <trkpt lat="43.55901" lon="1.47302">
        <ele>198.98</ele>
        <time>2019-06-10T13:52:43.999Z</time>
      </trkpt>
      <trkpt lat="43.55895" lon="1.47315">
        <ele>198.89</ele>
        <time>2019-06-10T13:52:46.999Z</time>
      </trkpt>
      <trkpt lat="43.55886" lon="1.47327">
        <ele>198.74</ele>
        <time>2019-06-10T13:52:49.999Z</time>
      </trkpt>
      <trkpt lat="43.55877" lon="1.47337">
        <ele>198.65</ele>
        <time>2019-06-10T13:52:52.999Z</time>
      </trkpt>
      <trkpt lat="43.55868" lon="1.47346">
        <ele>198.68</ele>
        <time>2019-06-10T13:52:55.999Z</time>
      </trkpt>
      <trkpt lat="43.5586" lon="1.47354">
        <ele>198.72</ele>
        <time>2019-06-10T13:52:58.999Z</time>
      </trkpt>
      <trkpt lat="43.55853" lon="1.47364">
        <ele>198.79</ele>
        <time>2019-06-10T13:53:01.999Z</time>
      </trkpt>
      <trkpt lat="43.55845" lon="1.47371">
        <ele>198.91</ele>
        <time>2019-06-10T13:53:04.999Z</time>
      </trkpt>
      <trkpt lat="43.55841" lon="1.47386">
        <ele>198.92</ele>
        <time>2019-06-10T13:53:09.999Z</time>
      </trkpt>
      <trkpt lat="43.55835" lon="1.47398">
        <ele>198.84</ele>
        <time>2019-06-10T13:53:12.999Z</time>
      </trkpt>
      <trkpt lat="43.55828" lon="1.4741">
        <ele>198.46</ele>
        <time>2019-06-10T13:53:15.999Z</time>
      </trkpt>
      <trkpt lat="43.55821" lon="1.47425">
        <ele>197.89</ele>
        <time>2019-06-10T13:53:18.999Z</time>
      </trkpt>
      <trkpt lat="43.55814" lon="1.47439">
        <ele>197.77</ele>
        <time>2019-06-10T13:53:21.999Z</time>
      </trkpt>
      <trkpt lat="43.55808" lon="1.47452">
        <ele>197.45</ele>
        <time>2019-06-10T13:53:24.999Z</time>
      </trkpt>
      <trkpt lat="43.55801" lon="1.47466">
        <ele>197.55</ele>
        <time>2019-06-10T13:53:27.999Z</time>
      </trkpt>
      <trkpt lat="43.55796" lon="1.47481">
        <ele>197.95</ele>
        <time>2019-06-10T13:53:30.999Z</time>
      </trkpt>
      <trkpt lat="43.5579" lon="1.47496">
        <ele>198.15</ele>
        <time>2019-06-10T13:53:33.999Z</time>
      </trkpt>
      <trkpt lat="43.55783" lon="1.4751">
        <ele>198.85</ele>
        <time>2019-06-10T13:53:36.999Z</time>
      </trkpt>
      <trkpt lat="43.55776" lon="1.47524">
        <ele>199.71</ele>
        <time>2019-06-10T13:53:39.999Z</time>
      </trkpt>
      <trkpt lat="43.55769" lon="1.47537">
        <ele>199.85</ele>
        <time>2019-06-10T13:53:42.999Z</time>
      </trkpt>
      <trkpt lat="43.5576" lon="1.47548">
        <ele>199.6</ele>
        <time>2019-06-10T13:53:45.999Z</time>
      </trkpt>
      <trkpt lat="43.55751" lon="1.47559">
        <ele>199.48</ele>
        <time>2019-06-10T13:53:48.999Z</time>
      </trkpt>
      <trkpt lat="43.55741" lon="1.47569">
        <ele>199.71</ele>
        <time>2019-06-10T13:53:51.999Z</time>
      </trkpt>
      <trkpt lat="43.5573" lon="1.47578">
        <ele>200.32</ele>
        <time>2019-06-10T13:53:54.999Z</time>
      </trkpt>
      <trkpt lat="43.55721" lon="1.47586">
        <ele>201.24</ele>
        <time>2019-06-10T13:53:57.999Z</time>
      </trkpt>
      <trkpt lat="43.55709" lon="1.47593">
        <ele>201.95</ele>
        <time>2019-06-10T13:54:00.999Z</time>
      </trkpt>
      <trkpt lat="43.55698" lon="1.47598">
        <ele>202.09</ele>
        <time>2019-06-10T13:54:03.999Z</time>
      </trkpt>
      <trkpt lat="43.55689" lon="1.47602">
        <ele>202.05</ele>
        <time>2019-06-10T13:54:06.999Z</time>
      </trkpt>
      <trkpt lat="43.55679" lon="1.47604">
        <ele>202.01</ele>
        <time>2019-06-10T13:54:09.999Z</time>
      </trkpt>
      <trkpt lat="43.55669" lon="1.47595">
        <ele>201.97</ele>
        <time>2019-06-10T13:54:13.999Z</time>
      </trkpt>
      <trkpt lat="43.55661" lon="1.4759">
        <ele>201.91</ele>
        <time>2019-06-10T13:54:17.999Z</time>
      </trkpt>
      <trkpt lat="43.5565" lon="1.47592">
        <ele>201.78</ele>
        <time>2019-06-10T13:54:24.999Z</time>
      </trkpt>
      <trkpt lat="43.55646" lon="1.47605">
        <ele>201.66</ele>
        <time>2019-06-10T13:54:28.999Z</time>
      </trkpt>
      <trkpt lat="43.55644" lon="1.47618">
        <ele>201.67</ele>
        <time>2019-06-10T13:54:34.999Z</time>
      </trkpt>
      <trkpt lat="43.55648" lon="1.47632">
        <ele>201.91</ele>
        <time>2019-06-10T13:54:40.999Z</time>
      </trkpt>
      <trkpt lat="43.5566" lon="1.47636">
        <ele>202.07</ele>
        <time>2019-06-10T13:54:44.999Z</time>
      </trkpt>
      <trkpt lat="43.55668" lon="1.47628">
        <ele>202.07</ele>
        <time>2019-06-10T13:54:47.999Z</time>
      </trkpt>
      <trkpt lat="43.55677" lon="1.47616">
        <ele>201.95</ele>
        <time>2019-06-10T13:54:50.999Z</time>
      </trkpt>
      <trkpt lat="43.55686" lon="1.47612">
        <ele>201.79</ele>
        <time>2019-06-10T13:54:53.999Z</time>
      </trkpt>
      <trkpt lat="43.55691" lon="1.47625">
        <ele>201.59</ele>
        <time>2019-06-10T13:54:56.999Z</time>
      </trkpt>
      <trkpt lat="43.55696" lon="1.47638">
        <ele>201.36</ele>
        <time>2019-06-10T13:55:00.999Z</time>
      </trkpt>
      <trkpt lat="43.557" lon="1.4765">
        <ele>201.21</ele>
        <time>2019-06-10T13:55:04.999Z</time>
      </trkpt>
      <trkpt lat="43.55704" lon="1.47664">
        <ele>200.99</ele>
        <time>2019-06-10T13:55:08.999Z</time>
      </trkpt>
      <trkpt lat="43.55708" lon="1.47677">
        <ele>200.73</ele>
        <time>2019-06-10T13:55:11.999Z</time>
      </trkpt>
      <trkpt lat="43.55713" lon="1.47689">
        <ele>200.52</ele>
        <time>2019-06-10T13:55:14.999Z</time>
      </trkpt>
      <trkpt lat="43.55716" lon="1.47701">
        <ele>200.3</ele>
        <time>2019-06-10T13:55:17.999Z</time>
      </trkpt>
      <trkpt lat="43.55719" lon="1.47716">
        <ele>200.11</ele>
        <time>2019-06-10T13:55:20.999Z</time>
      </trkpt>
      <trkpt lat="43.55721" lon="1.47731">
        <ele>199.95</ele>
        <time>2019-06-10T13:55:23.999Z</time>
      </trkpt>
      <trkpt lat="43.55723" lon="1.47745">
        <ele>199.8</ele>
        <time>2019-06-10T13:55:26.999Z</time>
      </trkpt>
      <trkpt lat="43.55725" lon="1.4776">
        <ele>199.66</ele>
        <time>2019-06-10T13:55:29.999Z</time>
      </trkpt>
      <trkpt lat="43.55727" lon="1.47775">
        <ele>199.51</ele>
        <time>2019-06-10T13:55:32.999Z</time>
      </trkpt>
      <trkpt lat="43.55729" lon="1.47789">
        <ele>199.36</ele>
        <time>2019-06-10T13:55:35.999Z</time>
      </trkpt>
      <trkpt lat="43.55731" lon="1.47803">
        <ele>199.24</ele>
        <time>2019-06-10T13:55:38.999Z</time>
      </trkpt>
      <trkpt lat="43.55732" lon="1.47818">
        <ele>199.06</ele>
        <time>2019-06-10T13:55:42.999Z</time>
      </trkpt>
      <trkpt lat="43.55733" lon="1.47833">
        <ele>198.83</ele>
        <time>2019-06-10T13:55:45.999Z</time>
      </trkpt>
      <trkpt lat="43.55733" lon="1.4785">
        <ele>198.58</ele>
        <time>2019-06-10T13:55:48.999Z</time>
      </trkpt>
      <trkpt lat="43.55732" lon="1.47867">
        <ele>198.44</ele>
        <time>2019-06-10T13:55:51.999Z</time>
      </trkpt>
      <trkpt lat="43.55733" lon="1.4788">
        <ele>198.39</ele>
        <time>2019-06-10T13:55:56.999Z</time>
      </trkpt>
      <trkpt lat="43.55732" lon="1.47893">
        <ele>198.62</ele>
        <time>2019-06-10T13:56:51.999Z</time>
      </trkpt>
      <trkpt lat="43.55731" lon="1.47906">
        <ele>198.68</ele>
        <time>2019-06-10T13:56:59.999Z</time>
      </trkpt>
      <trkpt lat="43.55723" lon="1.47915">
        <ele>198.9</ele>
        <time>2019-06-10T13:57:05.999Z</time>
      </trkpt>
      <trkpt lat="43.55714" lon="1.47922">
        <ele>199.1</ele>
        <time>2019-06-10T13:57:10.999Z</time>
      </trkpt>
      <trkpt lat="43.55705" lon="1.47927">
        <ele>199.26</ele>
        <time>2019-06-10T13:57:14.999Z</time>
      </trkpt>
      <trkpt lat="43.55697" lon="1.47933">
        <ele>199.26</ele>
        <time>2019-06-10T13:57:18.999Z</time>
      </trkpt>
      <trkpt lat="43.55688" lon="1.47944">
        <ele>199.12</ele>
        <time>2019-06-10T13:57:21.999Z</time>
      </trkpt>
      <trkpt lat="43.55681" lon="1.47952">
        <ele>199.05</ele>
        <time>2019-06-10T13:57:23.999Z</time>
      </trkpt>
      <trkpt lat="43.55674" lon="1.47961">
        <ele>199.06</ele>
        <time>2019-06-10T13:57:26.999Z</time>
      </trkpt>
      <trkpt lat="43.55666" lon="1.47969">
        <ele>199.09</ele>
        <time>2019-06-10T13:57:30.999Z</time>
      </trkpt>
      <trkpt lat="43.55657" lon="1.47976">
        <ele>199.16</ele>
        <time>2019-06-10T13:57:34.999Z</time>
      </trkpt>
      <trkpt lat="43.55649" lon="1.47985">
        <ele>199.16</ele>
        <time>2019-06-10T13:57:37.999Z</time>
      </trkpt>
      <trkpt lat="43.55639" lon="1.47992">
        <ele>199.19</ele>
        <time>2019-06-10T13:57:40.999Z</time>
      </trkpt>
      <trkpt lat="43.5563" lon="1.47999">
        <ele>199.27</ele>
        <time>2019-06-10T13:57:43.999Z</time>
      </trkpt>
      <trkpt lat="43.55621" lon="1.48004">
        <ele>199.26</ele>
        <time>2019-06-10T13:57:46.999Z</time>
      </trkpt>
      <trkpt lat="43.55613" lon="1.48009">
        <ele>199.15</ele>
        <time>2019-06-10T13:57:49.999Z</time>
      </trkpt>
      <trkpt lat="43.55603" lon="1.48017">
        <ele>199.01</ele>
        <time>2019-06-10T13:57:53.999Z</time>
      </trkpt>
      <trkpt lat="43.55593" lon="1.48025">
        <ele>198.92</ele>
        <time>2019-06-10T13:57:56.999Z</time>
      </trkpt>
      <trkpt lat="43.55582" lon="1.48033">
        <ele>198.87</ele>
        <time>2019-06-10T13:57:59.999Z</time>
      </trkpt>
      <trkpt lat="43.5557" lon="1.48037">
        <ele>198.8</ele>
        <time>2019-06-10T13:58:02.999Z</time>
      </trkpt>
      <trkpt lat="43.55559" lon="1.48039">
        <ele>198.69</ele>
        <time>2019-06-10T13:58:05.999Z</time>
      </trkpt>
      <trkpt lat="43.55549" lon="1.48042">
        <ele>198.53</ele>
        <time>2019-06-10T13:58:08.999Z</time>
      </trkpt>
      <trkpt lat="43.55537" lon="1.48046">
        <ele>198.28</ele>
        <time>2019-06-10T13:58:12.999Z</time>
      </trkpt>
      <trkpt lat="43.55528" lon="1.48052">
        <ele>198.18</ele>
        <time>2019-06-10T13:58:15.999Z</time>
      </trkpt>
      <trkpt lat="43.55521" lon="1.4806">
        <ele>198.12</ele>
        <time>2019-06-10T13:58:18.999Z</time>
      </trkpt>
      <trkpt lat="43.55512" lon="1.4807">
        <ele>198.08</ele>
        <time>2019-06-10T13:58:21.999Z</time>
      </trkpt>
      <trkpt lat="43.55502" lon="1.48072">
        <ele>198.13</ele>
        <time>2019-06-10T13:58:24.999Z</time>
      </trkpt>
      <trkpt lat="43.55493" lon="1.48065">
        <ele>198.15</ele>
        <time>2019-06-10T13:58:28.999Z</time>
      </trkpt>
      <trkpt lat="43.55481" lon="1.48063">
        <ele>198.38</ele>
        <time>2019-06-10T13:58:33.999Z</time>
      </trkpt>
      <trkpt lat="43.55473" lon="1.48067">
        <ele>198.43</ele>
        <time>2019-06-10T13:58:37.999Z</time>
      </trkpt>
      <trkpt lat="43.55463" lon="1.48074">
        <ele>198.36</ele>
        <time>2019-06-10T13:58:42.999Z</time>
      </trkpt>
      <trkpt lat="43.55454" lon="1.48078">
        <ele>198.12</ele>
        <time>2019-06-10T13:58:47.999Z</time>
      </trkpt>
      <trkpt lat="43.55445" lon="1.4808">
        <ele>198.07</ele>
        <time>2019-06-10T13:58:52.999Z</time>
      </trkpt>
      <trkpt lat="43.55435" lon="1.48083">
        <ele>197.98</ele>
        <time>2019-06-10T13:58:56.999Z</time>
      </trkpt>
      <trkpt lat="43.55425" lon="1.48083">
        <ele>197.83</ele>
        <time>2019-06-10T13:58:59.999Z</time>
      </trkpt>
      <trkpt lat="43.55415" lon="1.48085">
        <ele>197.58</ele>
        <time>2019-06-10T13:59:02.999Z</time>
      </trkpt>
      <trkpt lat="43.55404" lon="1.48085">
        <ele>197.37</ele>
        <time>2019-06-10T13:59:05.999Z</time>
      </trkpt>
      <trkpt lat="43.55393" lon="1.48083">
        <ele>197.21</ele>
        <time>2019-06-10T13:59:09.999Z</time>
      </trkpt>
      <trkpt lat="43.55381" lon="1.48084">
        <ele>197.33</ele>
        <time>2019-06-10T13:59:14.999Z</time>
      </trkpt>
      <trkpt lat="43.55372" lon="1.48086">
        <ele>197.28</ele>
        <time>2019-06-10T13:59:17.999Z</time>
      </trkpt>
      <trkpt lat="43.55361" lon="1.48089">
        <ele>197.17</ele>
        <time>2019-06-10T13:59:21.999Z</time>
      </trkpt>
      <trkpt lat="43.5535" lon="1.48091">
        <ele>197.25</ele>
        <time>2019-06-10T13:59:27.999Z</time>
      </trkpt>
      <trkpt lat="43.5534" lon="1.48094">
        <ele>197.57</ele>
        <time>2019-06-10T13:59:32.999Z</time>
      </trkpt>
      <trkpt lat="43.5533" lon="1.48093">
        <ele>197.91</ele>
        <time>2019-06-10T13:59:35.999Z</time>
      </trkpt>
      <trkpt lat="43.5532" lon="1.48096">
        <ele>198.22</ele>
        <time>2019-06-10T13:59:39.999Z</time>
      </trkpt>
      <trkpt lat="43.5531" lon="1.48101">
        <ele>198.52</ele>
        <time>2019-06-10T13:59:43.999Z</time>
      </trkpt>
      <trkpt lat="43.55299" lon="1.48105">
        <ele>198.97</ele>
        <time>2019-06-10T13:59:48.999Z</time>
      </trkpt>
      <trkpt lat="43.5529" lon="1.48106">
        <ele>199.41</ele>
        <time>2019-06-10T13:59:52.999Z</time>
      </trkpt>
      <trkpt lat="43.5528" lon="1.48111">
        <ele>199.84</ele>
        <time>2019-06-10T13:59:56.999Z</time>
      </trkpt>
      <trkpt lat="43.5527" lon="1.48113">
        <ele>200.25</ele>
        <time>2019-06-10T14:00:00.999Z</time>
      </trkpt>
      <trkpt lat="43.55261" lon="1.48112">
        <ele>200.7</ele>
        <time>2019-06-10T14:00:04.999Z</time>
      </trkpt>
      <trkpt lat="43.55252" lon="1.48115">
        <ele>201.09</ele>
        <time>2019-06-10T14:00:08.999Z</time>
      </trkpt>
      <trkpt lat="43.55241" lon="1.48118">
        <ele>201.6</ele>
        <time>2019-06-10T14:00:13.999Z</time>
      </trkpt>
      <trkpt lat="43.55232" lon="1.48121">
        <ele>201.91</ele>
        <time>2019-06-10T14:00:17.999Z</time>
      </trkpt>
      <trkpt lat="43.55221" lon="1.48122">
        <ele>202.32</ele>
        <time>2019-06-10T14:00:23.999Z</time>
      </trkpt>
      <trkpt lat="43.55211" lon="1.48123">
        <ele>202.75</ele>
        <time>2019-06-10T14:00:29.999Z</time>
      </trkpt>
      <trkpt lat="43.55202" lon="1.4813">
        <ele>203.18</ele>
        <time>2019-06-10T14:00:47.999Z</time>
      </trkpt>
      <trkpt lat="43.55193" lon="1.48135">
        <ele>203.52</ele>
        <time>2019-06-10T14:00:55.999Z</time>
      </trkpt>
      <trkpt lat="43.55183" lon="1.48142">
        <ele>203.6</ele>
        <time>2019-06-10T14:00:59.999Z</time>
      </trkpt>
      <trkpt lat="43.55172" lon="1.48147">
        <ele>203.63</ele>
        <time>2019-06-10T14:01:03.999Z</time>
      </trkpt>
      <trkpt lat="43.55162" lon="1.48149">
        <ele>203.72</ele>
        <time>2019-06-10T14:01:07.999Z</time>
      </trkpt>
      <trkpt lat="43.55151" lon="1.48153">
        <ele>203.85</ele>
        <time>2019-06-10T14:01:11.999Z</time>
      </trkpt>
      <trkpt lat="43.55141" lon="1.48157">
        <ele>204.08</ele>
        <time>2019-06-10T14:01:15.999Z</time>
      </trkpt>
      <trkpt lat="43.5513" lon="1.4816">
        <ele>204.39</ele>
        <time>2019-06-10T14:01:19.999Z</time>
      </trkpt>
      <trkpt lat="43.55121" lon="1.48163">
        <ele>204.67</ele>
        <time>2019-06-10T14:01:23.999Z</time>
      </trkpt>
      <trkpt lat="43.55112" lon="1.48169">
        <ele>205.1</ele>
        <time>2019-06-10T14:01:27.999Z</time>
      </trkpt>
      <trkpt lat="43.55102" lon="1.48176">
        <ele>205.39</ele>
        <time>2019-06-10T14:01:31.999Z</time>
      </trkpt>
      <trkpt lat="43.55092" lon="1.48183">
        <ele>205.6</ele>
        <time>2019-06-10T14:01:35.999Z</time>
      </trkpt>
      <trkpt lat="43.55083" lon="1.48188">
        <ele>205.67</ele>
        <time>2019-06-10T14:01:38.999Z</time>
      </trkpt>
      <trkpt lat="43.55074" lon="1.48193">
        <ele>205.65</ele>
        <time>2019-06-10T14:01:41.999Z</time>
      </trkpt>
      <trkpt lat="43.55064" lon="1.482">
        <ele>205.57</ele>
        <time>2019-06-10T14:01:44.999Z</time>
      </trkpt>
      <trkpt lat="43.55054" lon="1.48208">
        <ele>205.43</ele>
        <time>2019-06-10T14:01:47.999Z</time>
      </trkpt>
      <trkpt lat="43.55043" lon="1.48218">
        <ele>205.33</ele>
        <time>2019-06-10T14:01:50.999Z</time>
      </trkpt>
      <trkpt lat="43.55035" lon="1.48225">
        <ele>205.27</ele>
        <time>2019-06-10T14:01:53.999Z</time>
      </trkpt>
      <trkpt lat="43.55027" lon="1.48235">
        <ele>205.32</ele>
        <time>2019-06-10T14:01:56.999Z</time>
      </trkpt>
      <trkpt lat="43.55018" lon="1.48241">
        <ele>205.42</ele>
        <time>2019-06-10T14:02:00.999Z</time>
      </trkpt>
      <trkpt lat="43.5501" lon="1.48248">
        <ele>205.45</ele>
        <time>2019-06-10T14:02:03.999Z</time>
      </trkpt>
      <trkpt lat="43.55" lon="1.48253">
        <ele>205.46</ele>
        <time>2019-06-10T14:02:06.999Z</time>
      </trkpt>
      <trkpt lat="43.5499" lon="1.4826">
        <ele>205.51</ele>
        <time>2019-06-10T14:02:09.999Z</time>
      </trkpt>
      <trkpt lat="43.54982" lon="1.48267">
        <ele>205.56</ele>
        <time>2019-06-10T14:02:12.999Z</time>
      </trkpt>
      <trkpt lat="43.54975" lon="1.48275">
        <ele>205.61</ele>
        <time>2019-06-10T14:02:15.999Z</time>
      </trkpt>
      <trkpt lat="43.54968" lon="1.48284">
        <ele>205.71</ele>
        <time>2019-06-10T14:02:18.999Z</time>
      </trkpt>
      <trkpt lat="43.54958" lon="1.48291">
        <ele>205.7</ele>
        <time>2019-06-10T14:02:21.999Z</time>
      </trkpt>
      <trkpt lat="43.54949" lon="1.483">
        <ele>205.56</ele>
        <time>2019-06-10T14:02:25.999Z</time>
      </trkpt>
      <trkpt lat="43.54938" lon="1.48307">
        <ele>205.4</ele>
        <time>2019-06-10T14:02:29.999Z</time>
      </trkpt>
      <trkpt lat="43.5493" lon="1.48316">
        <ele>205.22</ele>
        <time>2019-06-10T14:02:32.999Z</time>
      </trkpt>
      <trkpt lat="43.54919" lon="1.48322">
        <ele>205.03</ele>
        <time>2019-06-10T14:02:35.999Z</time>
      </trkpt>
      <trkpt lat="43.54918" lon="1.48336">
        <ele>204.59</ele>
        <time>2019-06-10T14:02:42.999Z</time>
      </trkpt>
      <trkpt lat="43.54921" lon="1.48348">
        <ele>204.32</ele>
        <time>2019-06-10T14:02:47.999Z</time>
      </trkpt>
      <trkpt lat="43.54925" lon="1.48359">
        <ele>203.95</ele>
        <time>2019-06-10T14:02:52.999Z</time>
      </trkpt>
      <trkpt lat="43.54931" lon="1.48369">
        <ele>203.81</ele>
        <time>2019-06-10T14:02:58.999Z</time>
      </trkpt>
      <trkpt lat="43.54928" lon="1.48383">
        <ele>203.4</ele>
        <time>2019-06-10T14:03:05.999Z</time>
      </trkpt>
      <trkpt lat="43.5492" lon="1.48392">
        <ele>202.84</ele>
        <time>2019-06-10T14:03:10.999Z</time>
      </trkpt>
      <trkpt lat="43.54911" lon="1.48397">
        <ele>202.3</ele>
        <time>2019-06-10T14:03:15.999Z</time>
      </trkpt>
      <trkpt lat="43.54902" lon="1.48405">
        <ele>201.83</ele>
        <time>2019-06-10T14:03:21.999Z</time>
      </trkpt>
      <trkpt lat="43.54894" lon="1.48411">
        <ele>201.59</ele>
        <time>2019-06-10T14:03:25.999Z</time>
      </trkpt>
      <trkpt lat="43.54886" lon="1.48418">
        <ele>201.36</ele>
        <time>2019-06-10T14:03:28.999Z</time>
      </trkpt>
      <trkpt lat="43.54878" lon="1.48424">
        <ele>201.23</ele>
        <time>2019-06-10T14:03:33.999Z</time>
      </trkpt>
      <trkpt lat="43.54868" lon="1.48431">
        <ele>201.2</ele>
        <time>2019-06-10T14:03:37.999Z</time>
      </trkpt>
      <trkpt lat="43.5486" lon="1.48438">
        <ele>201.27</ele>
        <time>2019-06-10T14:03:40.999Z</time>
      </trkpt>
      <trkpt lat="43.54851" lon="1.48444">
        <ele>201.39</ele>
        <time>2019-06-10T14:03:44.999Z</time>
      </trkpt>
      <trkpt lat="43.54841" lon="1.48452">
        <ele>201.47</ele>
        <time>2019-06-10T14:03:49.999Z</time>
      </trkpt>
      <trkpt lat="43.54832" lon="1.48459">
        <ele>201.63</ele>
        <time>2019-06-10T14:03:53.999Z</time>
      </trkpt>
      <trkpt lat="43.54823" lon="1.48468">
        <ele>201.91</ele>
        <time>2019-06-10T14:03:57.999Z</time>
      </trkpt>
      <trkpt lat="43.54826" lon="1.48481">
        <ele>202.19</ele>
        <time>2019-06-10T14:04:02.999Z</time>
      </trkpt>
      <trkpt lat="43.5483" lon="1.48468">
        <ele>201.78</ele>
        <time>2019-06-10T14:04:08.999Z</time>
      </trkpt>
      <trkpt lat="43.54822" lon="1.48462">
        <ele>201.5</ele>
        <time>2019-06-10T14:04:12.999Z</time>
      </trkpt>
      <trkpt lat="43.54812" lon="1.48461">
        <ele>201.3</ele>
        <time>2019-06-10T14:04:15.999Z</time>
      </trkpt>
      <trkpt lat="43.54803" lon="1.48464">
        <ele>200.97</ele>
        <time>2019-06-10T14:04:19.999Z</time>
      </trkpt>
      <trkpt lat="43.54793" lon="1.48473">
        <ele>200.82</ele>
        <time>2019-06-10T14:04:23.999Z</time>
      </trkpt>
      <trkpt lat="43.54786" lon="1.4848">
        <ele>200.8</ele>
        <time>2019-06-10T14:04:26.999Z</time>
      </trkpt>
      <trkpt lat="43.54778" lon="1.48488">
        <ele>200.85</ele>
        <time>2019-06-10T14:04:31.999Z</time>
      </trkpt>
      <trkpt lat="43.54768" lon="1.48494">
        <ele>201.13</ele>
        <time>2019-06-10T14:04:37.999Z</time>
      </trkpt>
      <trkpt lat="43.5476" lon="1.48501">
        <ele>201.47</ele>
        <time>2019-06-10T14:04:42.999Z</time>
      </trkpt>
      <trkpt lat="43.54752" lon="1.4851">
        <ele>201.71</ele>
        <time>2019-06-10T14:04:45.999Z</time>
      </trkpt>
      <trkpt lat="43.54744" lon="1.48517">
        <ele>201.91</ele>
        <time>2019-06-10T14:04:48.999Z</time>
      </trkpt>
      <trkpt lat="43.54733" lon="1.48525">
        <ele>202.09</ele>
        <time>2019-06-10T14:04:51.999Z</time>
      </trkpt>
      <trkpt lat="43.54724" lon="1.48531">
        <ele>202.08</ele>
        <time>2019-06-10T14:04:54.999Z</time>
      </trkpt>
      <trkpt lat="43.54716" lon="1.48536">
        <ele>202</ele>
        <time>2019-06-10T14:04:57.999Z</time>
      </trkpt>
      <trkpt lat="43.54705" lon="1.48544">
        <ele>200.42</ele>
        <time>2019-06-10T14:04:59.999Z</time>
      </trkpt>
      <trkpt lat="43.54697" lon="1.48551">
        <ele>200.25</ele>
        <time>2019-06-10T14:05:01.999Z</time>
      </trkpt>
      <trkpt lat="43.54687" lon="1.48561">
        <ele>199.98</ele>
        <time>2019-06-10T14:05:04.999Z</time>
      </trkpt>
      <trkpt lat="43.54678" lon="1.4857">
        <ele>199.82</ele>
        <time>2019-06-10T14:05:07.999Z</time>
      </trkpt>
      <trkpt lat="43.5467" lon="1.48577">
        <ele>199.73</ele>
        <time>2019-06-10T14:05:10.999Z</time>
      </trkpt>
      <trkpt lat="43.54662" lon="1.48584">
        <ele>199.54</ele>
        <time>2019-06-10T14:05:13.999Z</time>
      </trkpt>
      <trkpt lat="43.54653" lon="1.4859">
        <ele>199.28</ele>
        <time>2019-06-10T14:05:17.999Z</time>
      </trkpt>
      <trkpt lat="43.54645" lon="1.48595">
        <ele>199.12</ele>
        <time>2019-06-10T14:05:20.999Z</time>
      </trkpt>
      <trkpt lat="43.54636" lon="1.48605">
        <ele>198.88</ele>
        <time>2019-06-10T14:05:24.999Z</time>
      </trkpt>
      <trkpt lat="43.54628" lon="1.48617">
        <ele>198.67</ele>
        <time>2019-06-10T14:05:28.999Z</time>
      </trkpt>
      <trkpt lat="43.54622" lon="1.48626">
        <ele>198.52</ele>
        <time>2019-06-10T14:05:31.999Z</time>
      </trkpt>
      <trkpt lat="43.54617" lon="1.48636">
        <ele>198.39</ele>
        <time>2019-06-10T14:05:34.999Z</time>
      </trkpt>
      <trkpt lat="43.5461" lon="1.48647">
        <ele>198.13</ele>
        <time>2019-06-10T14:05:37.999Z</time>
      </trkpt>
      <trkpt lat="43.54602" lon="1.48658">
        <ele>197.73</ele>
        <time>2019-06-10T14:05:41.999Z</time>
      </trkpt>
      <trkpt lat="43.54598" lon="1.48669">
        <ele>197.37</ele>
        <time>2019-06-10T14:05:44.999Z</time>
      </trkpt>
      <trkpt lat="43.54593" lon="1.48681">
        <ele>197.04</ele>
        <time>2019-06-10T14:05:47.999Z</time>
      </trkpt>
      <trkpt lat="43.54586" lon="1.48693">
        <ele>196.65</ele>
        <time>2019-06-10T14:05:51.999Z</time>
      </trkpt>
      <trkpt lat="43.54581" lon="1.48707">
        <ele>196.42</ele>
        <time>2019-06-10T14:05:55.999Z</time>
      </trkpt>
      <trkpt lat="43.54576" lon="1.48718">
        <ele>196.27</ele>
        <time>2019-06-10T14:05:58.999Z</time>
      </trkpt>
      <trkpt lat="43.5457" lon="1.48729">
        <ele>196.1</ele>
        <time>2019-06-10T14:06:01.999Z</time>
      </trkpt>
      <trkpt lat="43.54565" lon="1.48743">
        <ele>195.94</ele>
        <time>2019-06-10T14:06:04.999Z</time>
      </trkpt>
      <trkpt lat="43.54559" lon="1.48758">
        <ele>195.84</ele>
        <time>2019-06-10T14:06:07.999Z</time>
      </trkpt>
      <trkpt lat="43.54555" lon="1.48771">
        <ele>195.81</ele>
        <time>2019-06-10T14:06:10.999Z</time>
      </trkpt>
      <trkpt lat="43.54551" lon="1.48783">
        <ele>195.76</ele>
        <time>2019-06-10T14:06:13.999Z</time>
      </trkpt>
      <trkpt lat="43.54546" lon="1.48793">
        <ele>195.63</ele>
        <time>2019-06-10T14:06:16.999Z</time>
      </trkpt>
      <trkpt lat="43.54542" lon="1.48808">
        <ele>195.6</ele>
        <time>2019-06-10T14:06:19.999Z</time>
      </trkpt>
      <trkpt lat="43.54537" lon="1.48822">
        <ele>195.68</ele>
        <time>2019-06-10T14:06:22.999Z</time>
      </trkpt>
      <trkpt lat="43.54533" lon="1.48836">
        <ele>195.75</ele>
        <time>2019-06-10T14:06:25.999Z</time>
      </trkpt>
      <trkpt lat="43.54526" lon="1.48849">
        <ele>195.73</ele>
        <time>2019-06-10T14:06:28.999Z</time>
      </trkpt>
      <trkpt lat="43.54523" lon="1.48861">
        <ele>195.69</ele>
        <time>2019-06-10T14:06:31.999Z</time>
      </trkpt>
      <trkpt lat="43.54517" lon="1.48874">
        <ele>195.64</ele>
        <time>2019-06-10T14:06:35.999Z</time>
      </trkpt>
      <trkpt lat="43.54512" lon="1.48886">
        <ele>195.58</ele>
        <time>2019-06-10T14:06:38.999Z</time>
      </trkpt>
      <trkpt lat="43.54507" lon="1.48897">
        <ele>195.53</ele>
        <time>2019-06-10T14:06:41.999Z</time>
      </trkpt>
      <trkpt lat="43.54501" lon="1.48911">
        <ele>195.6</ele>
        <time>2019-06-10T14:06:45.999Z</time>
      </trkpt>
      <trkpt lat="43.54496" lon="1.48924">
        <ele>195.92</ele>
        <time>2019-06-10T14:06:49.999Z</time>
      </trkpt>
      <trkpt lat="43.54491" lon="1.48936">
        <ele>196.16</ele>
        <time>2019-06-10T14:06:52.999Z</time>
      </trkpt>
      <trkpt lat="43.54487" lon="1.48948">
        <ele>196.34</ele>
        <time>2019-06-10T14:06:55.999Z</time>
      </trkpt>
      <trkpt lat="43.54481" lon="1.48961">
        <ele>196.45</ele>
        <time>2019-06-10T14:06:58.999Z</time>
      </trkpt>
      <trkpt lat="43.54476" lon="1.48974">
        <ele>196.46</ele>
        <time>2019-06-10T14:07:01.999Z</time>
      </trkpt>
      <trkpt lat="43.54469" lon="1.48987">
        <ele>196.4</ele>
        <time>2019-06-10T14:07:05.999Z</time>
      </trkpt>
      <trkpt lat="43.54464" lon="1.48997">
        <ele>196.41</ele>
        <time>2019-06-10T14:07:09.999Z</time>
      </trkpt>
      <trkpt lat="43.54457" lon="1.49008">
        <ele>196.57</ele>
        <time>2019-06-10T14:07:14.999Z</time>
      </trkpt>
      <trkpt lat="43.54448" lon="1.49011">
        <ele>196.69</ele>
        <time>2019-06-10T14:07:18.999Z</time>
      </trkpt>
      <trkpt lat="43.54438" lon="1.49018">
        <ele>196.69</ele>
        <time>2019-06-10T14:07:22.999Z</time>
      </trkpt>
      <trkpt lat="43.54428" lon="1.49024">
        <ele>196.67</ele>
        <time>2019-06-10T14:07:25.999Z</time>
      </trkpt>
      <trkpt lat="43.54418" lon="1.49029">
        <ele>196.78</ele>
        <time>2019-06-10T14:07:28.999Z</time>
      </trkpt>
      <trkpt lat="43.54409" lon="1.49033">
        <ele>197.06</ele>
        <time>2019-06-10T14:07:31.999Z</time>
      </trkpt>
      <trkpt lat="43.54399" lon="1.49037">
        <ele>197.3</ele>
        <time>2019-06-10T14:07:34.999Z</time>
      </trkpt>
      <trkpt lat="43.54389" lon="1.49043">
        <ele>197.58</ele>
        <time>2019-06-10T14:07:37.999Z</time>
      </trkpt>
      <trkpt lat="43.5438" lon="1.49048">
        <ele>197.89</ele>
        <time>2019-06-10T14:07:40.999Z</time>
      </trkpt>
      <trkpt lat="43.54369" lon="1.49051">
        <ele>198.31</ele>
        <time>2019-06-10T14:07:44.999Z</time>
      </trkpt>
      <trkpt lat="43.54358" lon="1.49055">
        <ele>198.75</ele>
        <time>2019-06-10T14:07:47.999Z</time>
      </trkpt>
      <trkpt lat="43.5435" lon="1.49059">
        <ele>199.35</ele>
        <time>2019-06-10T14:07:50.999Z</time>
      </trkpt>
      <trkpt lat="43.54339" lon="1.49064">
        <ele>200.18</ele>
        <time>2019-06-10T14:07:54.999Z</time>
      </trkpt>
      <trkpt lat="43.54329" lon="1.49069">
        <ele>200.67</ele>
        <time>2019-06-10T14:07:57.999Z</time>
      </trkpt>
      <trkpt lat="43.54319" lon="1.49073">
        <ele>201.02</ele>
        <time>2019-06-10T14:08:00.999Z</time>
      </trkpt>
      <trkpt lat="43.5431" lon="1.49078">
        <ele>201.47</ele>
        <time>2019-06-10T14:08:04.999Z</time>
      </trkpt>
      <trkpt lat="43.54299" lon="1.49083">
        <ele>201.87</ele>
        <time>2019-06-10T14:08:08.999Z</time>
      </trkpt>
      <trkpt lat="43.54288" lon="1.49088">
        <ele>202.39</ele>
        <time>2019-06-10T14:08:12.999Z</time>
      </trkpt>
      <trkpt lat="43.54279" lon="1.49092">
        <ele>202.81</ele>
        <time>2019-06-10T14:08:15.999Z</time>
      </trkpt>
      <trkpt lat="43.54267" lon="1.49098">
        <ele>203.19</ele>
        <time>2019-06-10T14:08:18.999Z</time>
      </trkpt>
      <trkpt lat="43.54256" lon="1.49103">
        <ele>203.42</ele>
        <time>2019-06-10T14:08:21.999Z</time>
      </trkpt>
      <trkpt lat="43.54245" lon="1.49107">
        <ele>203.59</ele>
        <time>2019-06-10T14:08:24.999Z</time>
      </trkpt>
      <trkpt lat="43.54235" lon="1.4911">
        <ele>203.63</ele>
        <time>2019-06-10T14:08:27.999Z</time>
      </trkpt>
      <trkpt lat="43.54226" lon="1.49114">
        <ele>203.71</ele>
        <time>2019-06-10T14:08:30.999Z</time>
      </trkpt>
      <trkpt lat="43.54216" lon="1.49119">
        <ele>203.82</ele>
        <time>2019-06-10T14:08:34.999Z</time>
      </trkpt>
      <trkpt lat="43.54206" lon="1.49125">
        <ele>203.9</ele>
        <time>2019-06-10T14:08:38.999Z</time>
      </trkpt>
      <trkpt lat="43.54197" lon="1.49131">
        <ele>204.01</ele>
        <time>2019-06-10T14:08:41.999Z</time>
      </trkpt>
      <trkpt lat="43.54189" lon="1.49137">
        <ele>204.03</ele>
        <time>2019-06-10T14:08:44.999Z</time>
      </trkpt>
      <trkpt lat="43.5418" lon="1.49146">
        <ele>204.13</ele>
        <time>2019-06-10T14:08:47.999Z</time>
      </trkpt>
      <trkpt lat="43.54173" lon="1.49153">
        <ele>204.33</ele>
        <time>2019-06-10T14:08:50.999Z</time>
      </trkpt>
      <trkpt lat="43.54163" lon="1.49159">
        <ele>204.55</ele>
        <time>2019-06-10T14:08:53.999Z</time>
      </trkpt>
      <trkpt lat="43.54153" lon="1.49165">
        <ele>204.77</ele>
        <time>2019-06-10T14:08:57.999Z</time>
      </trkpt>
      <trkpt lat="43.54145" lon="1.49172">
        <ele>204.91</ele>
        <time>2019-06-10T14:09:00.999Z</time>
      </trkpt>
      <trkpt lat="43.54134" lon="1.49177">
        <ele>205.18</ele>
        <time>2019-06-10T14:09:04.999Z</time>
      </trkpt>
      <trkpt lat="43.54124" lon="1.49181">
        <ele>205.55</ele>
        <time>2019-06-10T14:09:08.999Z</time>
      </trkpt>
      <trkpt lat="43.54114" lon="1.49186">
        <ele>205.87</ele>
        <time>2019-06-10T14:09:11.999Z</time>
      </trkpt>
      <trkpt lat="43.54103" lon="1.49191">
        <ele>206.49</ele>
        <time>2019-06-10T14:09:15.999Z</time>
      </trkpt>
      <trkpt lat="43.54092" lon="1.49197">
        <ele>207.1</ele>
        <time>2019-06-10T14:09:19.999Z</time>
      </trkpt>
      <trkpt lat="43.54081" lon="1.49206">
        <ele>207.46</ele>
        <time>2019-06-10T14:09:22.999Z</time>
      </trkpt>
      <trkpt lat="43.5407" lon="1.49215">
        <ele>207.6</ele>
        <time>2019-06-10T14:09:25.999Z</time>
      </trkpt>
      <trkpt lat="43.5406" lon="1.49223">
        <ele>207.7</ele>
        <time>2019-06-10T14:09:28.999Z</time>
      </trkpt>
      <trkpt lat="43.54052" lon="1.49228">
        <ele>207.75</ele>
        <time>2019-06-10T14:09:31.999Z</time>
      </trkpt>
      <trkpt lat="43.54043" lon="1.49232">
        <ele>207.73</ele>
        <time>2019-06-10T14:09:34.999Z</time>
      </trkpt>
      <trkpt lat="43.54032" lon="1.49235">
        <ele>207.73</ele>
        <time>2019-06-10T14:09:37.999Z</time>
      </trkpt>
      <trkpt lat="43.54021" lon="1.4924">
        <ele>207.83</ele>
        <time>2019-06-10T14:09:40.999Z</time>
      </trkpt>
      <trkpt lat="43.5401" lon="1.49244">
        <ele>208.01</ele>
        <time>2019-06-10T14:09:43.999Z</time>
      </trkpt>
      <trkpt lat="43.54001" lon="1.49246">
        <ele>208.13</ele>
        <time>2019-06-10T14:09:46.999Z</time>
      </trkpt>
      <trkpt lat="43.53991" lon="1.49247">
        <ele>208.17</ele>
        <time>2019-06-10T14:09:49.999Z</time>
      </trkpt>
      <trkpt lat="43.53982" lon="1.49248">
        <ele>208.14</ele>
        <time>2019-06-10T14:09:52.999Z</time>
      </trkpt>
      <trkpt lat="43.5397" lon="1.49251">
        <ele>207.94</ele>
        <time>2019-06-10T14:09:56.999Z</time>
      </trkpt>
      <trkpt lat="43.53959" lon="1.49254">
        <ele>207.73</ele>
        <time>2019-06-10T14:09:59.999Z</time>
      </trkpt>
      <trkpt lat="43.5395" lon="1.49256">
        <ele>207.53</ele>
        <time>2019-06-10T14:10:02.999Z</time>
      </trkpt>
      <trkpt lat="43.53941" lon="1.49258">
        <ele>207.33</ele>
        <time>2019-06-10T14:10:05.999Z</time>
      </trkpt>
      <trkpt lat="43.5393" lon="1.49262">
        <ele>207.12</ele>
        <time>2019-06-10T14:10:08.999Z</time>
      </trkpt>
      <trkpt lat="43.53921" lon="1.49266">
        <ele>207</ele>
        <time>2019-06-10T14:10:11.999Z</time>
      </trkpt>
      <trkpt lat="43.53912" lon="1.4927">
        <ele>206.83</ele>
        <time>2019-06-10T14:10:14.999Z</time>
      </trkpt>
      <trkpt lat="43.53901" lon="1.49276">
        <ele>206.58</ele>
        <time>2019-06-10T14:10:18.999Z</time>
      </trkpt>
      <trkpt lat="43.53893" lon="1.49283">
        <ele>206.43</ele>
        <time>2019-06-10T14:10:22.999Z</time>
      </trkpt>
      <trkpt lat="43.53885" lon="1.49289">
        <ele>206.13</ele>
        <time>2019-06-10T14:10:26.999Z</time>
      </trkpt>
      <trkpt lat="43.53877" lon="1.49299">
        <ele>205.88</ele>
        <time>2019-06-10T14:10:30.999Z</time>
      </trkpt>
      <trkpt lat="43.53869" lon="1.49309">
        <ele>205.56</ele>
        <time>2019-06-10T14:10:33.999Z</time>
      </trkpt>
      <trkpt lat="43.53861" lon="1.49319">
        <ele>204.86</ele>
        <time>2019-06-10T14:10:37.999Z</time>
      </trkpt>
      <trkpt lat="43.53857" lon="1.49331">
        <ele>203.82</ele>
        <time>2019-06-10T14:10:41.999Z</time>
      </trkpt>
      <trkpt lat="43.53854" lon="1.49344">
        <ele>202.45</ele>
        <time>2019-06-10T14:10:45.999Z</time>
      </trkpt>
      <trkpt lat="43.53854" lon="1.49359">
        <ele>200.95</ele>
        <time>2019-06-10T14:10:49.999Z</time>
      </trkpt>
      <trkpt lat="43.53854" lon="1.49372">
        <ele>199.39</ele>
        <time>2019-06-10T14:10:53.999Z</time>
      </trkpt>
      <trkpt lat="43.53855" lon="1.49385">
        <ele>198.21</ele>
        <time>2019-06-10T14:10:56.999Z</time>
      </trkpt>
      <trkpt lat="43.53855" lon="1.494">
        <ele>196.82</ele>
        <time>2019-06-10T14:11:00.999Z</time>
      </trkpt>
      <trkpt lat="43.53856" lon="1.49415">
        <ele>195.98</ele>
        <time>2019-06-10T14:11:03.999Z</time>
      </trkpt>
      <trkpt lat="43.53858" lon="1.49428">
        <ele>195.36</ele>
        <time>2019-06-10T14:11:06.999Z</time>
      </trkpt>
      <trkpt lat="43.5386" lon="1.49443">
        <ele>194.88</ele>
        <time>2019-06-10T14:11:10.999Z</time>
      </trkpt>
      <trkpt lat="43.53862" lon="1.49457">
        <ele>194.65</ele>
        <time>2019-06-10T14:11:14.999Z</time>
      </trkpt>
      <trkpt lat="43.53863" lon="1.49471">
        <ele>194.42</ele>
        <time>2019-06-10T14:11:18.999Z</time>
      </trkpt>
      <trkpt lat="43.53864" lon="1.49487">
        <ele>194.2</ele>
        <time>2019-06-10T14:11:22.999Z</time>
      </trkpt>
      <trkpt lat="43.53867" lon="1.49501">
        <ele>194.11</ele>
        <time>2019-06-10T14:11:26.999Z</time>
      </trkpt>
      <trkpt lat="43.5387" lon="1.49516">
        <ele>194</ele>
        <time>2019-06-10T14:11:30.999Z</time>
      </trkpt>
      <trkpt lat="43.53872" lon="1.49528">
        <ele>193.92</ele>
        <time>2019-06-10T14:11:33.999Z</time>
      </trkpt>
      <trkpt lat="43.53873" lon="1.49542">
        <ele>193.91</ele>
        <time>2019-06-10T14:11:36.999Z</time>
      </trkpt>
      <trkpt lat="43.53875" lon="1.49555">
        <ele>193.94</ele>
        <time>2019-06-10T14:11:39.999Z</time>
      </trkpt>
      <trkpt lat="43.53877" lon="1.49568">
        <ele>193.98</ele>
        <time>2019-06-10T14:11:42.999Z</time>
      </trkpt>
      <trkpt lat="43.53879" lon="1.49583">
        <ele>194.21</ele>
        <time>2019-06-10T14:11:46.999Z</time>
      </trkpt>
      <trkpt lat="43.53882" lon="1.49595">
        <ele>194.49</ele>
        <time>2019-06-10T14:11:49.999Z</time>
      </trkpt>
      <trkpt lat="43.53885" lon="1.49609">
        <ele>194.76</ele>
        <time>2019-06-10T14:11:52.999Z</time>
      </trkpt>
      <trkpt lat="43.53888" lon="1.49626">
        <ele>194.94</ele>
        <time>2019-06-10T14:11:56.999Z</time>
      </trkpt>
      <trkpt lat="43.5389" lon="1.49639">
        <ele>195.06</ele>
        <time>2019-06-10T14:11:59.999Z</time>
      </trkpt>
      <trkpt lat="43.53892" lon="1.49654">
        <ele>195.12</ele>
        <time>2019-06-10T14:12:03.999Z</time>
      </trkpt>
      <trkpt lat="43.53893" lon="1.49669">
        <ele>195.06</ele>
        <time>2019-06-10T14:12:07.999Z</time>
      </trkpt>
      <trkpt lat="43.53897" lon="1.49685">
        <ele>195.12</ele>
        <time>2019-06-10T14:12:11.999Z</time>
      </trkpt>
      <trkpt lat="43.539" lon="1.49701">
        <ele>195.17</ele>
        <time>2019-06-10T14:12:14.999Z</time>
      </trkpt>
      <trkpt lat="43.53902" lon="1.49714">
        <ele>195.17</ele>
        <time>2019-06-10T14:12:17.999Z</time>
      </trkpt>
      <trkpt lat="43.53904" lon="1.49726">
        <ele>195.16</ele>
        <time>2019-06-10T14:12:20.999Z</time>
      </trkpt>
      <trkpt lat="43.53902" lon="1.4974">
        <ele>194.71</ele>
        <time>2019-06-10T14:12:25.999Z</time>
      </trkpt>
      <trkpt lat="43.53901" lon="1.49755">
        <ele>193.75</ele>
        <time>2019-06-10T14:12:30.999Z</time>
      </trkpt>
      <trkpt lat="43.53899" lon="1.49779">
        <ele>192.35</ele>
        <time>2019-06-10T14:12:35.999Z</time>
      </trkpt>
      <trkpt lat="43.53896" lon="1.498">
        <ele>191.25</ele>
        <time>2019-06-10T14:12:39.999Z</time>
      </trkpt>
      <trkpt lat="43.53894" lon="1.49818">
        <ele>190.6</ele>
        <time>2019-06-10T14:12:43.999Z</time>
      </trkpt>
      <trkpt lat="43.53893" lon="1.49833">
        <ele>190.38</ele>
        <time>2019-06-10T14:12:46.999Z</time>
      </trkpt>
      <trkpt lat="43.5389" lon="1.49849">
        <ele>190.36</ele>
        <time>2019-06-10T14:12:50.999Z</time>
      </trkpt>
      <trkpt lat="43.53886" lon="1.49865">
        <ele>190.57</ele>
        <time>2019-06-10T14:12:56.999Z</time>
      </trkpt>
      <trkpt lat="43.53893" lon="1.49856">
        <ele>193.34</ele>
        <time>2019-06-10T14:13:12.999Z</time>
      </trkpt>
      <trkpt lat="43.53896" lon="1.49843">
        <ele>194</ele>
        <time>2019-06-10T14:13:16.999Z</time>
      </trkpt>
      <trkpt lat="43.53898" lon="1.49831">
        <ele>194.6</ele>
        <time>2019-06-10T14:13:20.999Z</time>
      </trkpt>
      <trkpt lat="43.53899" lon="1.49818">
        <ele>195</ele>
        <time>2019-06-10T14:13:23.999Z</time>
      </trkpt>
      <trkpt lat="43.53901" lon="1.49804">
        <ele>195.33</ele>
        <time>2019-06-10T14:13:27.999Z</time>
      </trkpt>
      <trkpt lat="43.53902" lon="1.49791">
        <ele>195.27</ele>
        <time>2019-06-10T14:13:30.999Z</time>
      </trkpt>
      <trkpt lat="43.53902" lon="1.49778">
        <ele>195.23</ele>
        <time>2019-06-10T14:13:33.999Z</time>
      </trkpt>
      <trkpt lat="43.53902" lon="1.49764">
        <ele>195.18</ele>
        <time>2019-06-10T14:13:36.999Z</time>
      </trkpt>
      <trkpt lat="43.53902" lon="1.49748">
        <ele>195.03</ele>
        <time>2019-06-10T14:13:39.999Z</time>
      </trkpt>
      <trkpt lat="43.53903" lon="1.49736">
        <ele>194.84</ele>
        <time>2019-06-10T14:13:42.999Z</time>
      </trkpt>
      <trkpt lat="43.53902" lon="1.49722">
        <ele>194.64</ele>
        <time>2019-06-10T14:13:45.999Z</time>
      </trkpt>
      <trkpt lat="43.53901" lon="1.49708">
        <ele>194.37</ele>
        <time>2019-06-10T14:13:48.999Z</time>
      </trkpt>
      <trkpt lat="43.53898" lon="1.49695">
        <ele>193.98</ele>
        <time>2019-06-10T14:13:51.999Z</time>
      </trkpt>
      <trkpt lat="43.53897" lon="1.49681">
        <ele>193.46</ele>
        <time>2019-06-10T14:13:55.999Z</time>
      </trkpt>
      <trkpt lat="43.53896" lon="1.49668">
        <ele>193.06</ele>
        <time>2019-06-10T14:13:58.999Z</time>
      </trkpt>
      <trkpt lat="43.53893" lon="1.49654">
        <ele>192.72</ele>
        <time>2019-06-10T14:14:01.999Z</time>
      </trkpt>
      <trkpt lat="43.5389" lon="1.49641">
        <ele>192.46</ele>
        <time>2019-06-10T14:14:04.999Z</time>
      </trkpt>
      <trkpt lat="43.53888" lon="1.49628">
        <ele>192.32</ele>
        <time>2019-06-10T14:14:07.999Z</time>
      </trkpt>
      <trkpt lat="43.53886" lon="1.49611">
        <ele>192.21</ele>
        <time>2019-06-10T14:14:11.999Z</time>
      </trkpt>
      <trkpt lat="43.53884" lon="1.49598">
        <ele>192.2</ele>
        <time>2019-06-10T14:14:14.999Z</time>
      </trkpt>
      <trkpt lat="43.53882" lon="1.49585">
        <ele>192.22</ele>
        <time>2019-06-10T14:14:17.999Z</time>
      </trkpt>
      <trkpt lat="43.5388" lon="1.49572">
        <ele>192.41</ele>
        <time>2019-06-10T14:14:20.999Z</time>
      </trkpt>
      <trkpt lat="43.53878" lon="1.49556">
        <ele>192.74</ele>
        <time>2019-06-10T14:14:24.999Z</time>
      </trkpt>
      <trkpt lat="43.53875" lon="1.49542">
        <ele>192.95</ele>
        <time>2019-06-10T14:14:27.999Z</time>
      </trkpt>
      <trkpt lat="43.53872" lon="1.49528">
        <ele>193.23</ele>
        <time>2019-06-10T14:14:30.999Z</time>
      </trkpt>
      <trkpt lat="43.53871" lon="1.49515">
        <ele>193.48</ele>
        <time>2019-06-10T14:14:33.999Z</time>
      </trkpt>
      <trkpt lat="43.53868" lon="1.49501">
        <ele>193.7</ele>
        <time>2019-06-10T14:14:36.999Z</time>
      </trkpt>
      <trkpt lat="43.53867" lon="1.49487">
        <ele>194.01</ele>
        <time>2019-06-10T14:14:39.999Z</time>
      </trkpt>
      <trkpt lat="43.53866" lon="1.49474">
        <ele>194.37</ele>
        <time>2019-06-10T14:14:42.999Z</time>
      </trkpt>
      <trkpt lat="43.53866" lon="1.49459">
        <ele>194.66</ele>
        <time>2019-06-10T14:14:45.999Z</time>
      </trkpt>
      <trkpt lat="43.53864" lon="1.49444">
        <ele>194.75</ele>
        <time>2019-06-10T14:14:48.999Z</time>
      </trkpt>
      <trkpt lat="43.53863" lon="1.4943">
        <ele>194.7</ele>
        <time>2019-06-10T14:14:51.999Z</time>
      </trkpt>
      <trkpt lat="43.53861" lon="1.49418">
        <ele>194.64</ele>
        <time>2019-06-10T14:14:54.999Z</time>
      </trkpt>
      <trkpt lat="43.5386" lon="1.49405">
        <ele>194.67</ele>
        <time>2019-06-10T14:14:57.999Z</time>
      </trkpt>
      <trkpt lat="43.53859" lon="1.49391">
        <ele>194.76</ele>
        <time>2019-06-10T14:15:00.999Z</time>
      </trkpt>
      <trkpt lat="43.53858" lon="1.49377">
        <ele>195.04</ele>
        <time>2019-06-10T14:15:03.999Z</time>
      </trkpt>
      <trkpt lat="43.53857" lon="1.4936">
        <ele>195.45</ele>
        <time>2019-06-10T14:15:06.999Z</time>
      </trkpt>
      <trkpt lat="43.53857" lon="1.49343">
        <ele>195.77</ele>
        <time>2019-06-10T14:15:09.999Z</time>
      </trkpt>
      <trkpt lat="43.5386" lon="1.49328">
        <ele>195.96</ele>
        <time>2019-06-10T14:15:12.999Z</time>
      </trkpt>
      <trkpt lat="43.53864" lon="1.49314">
        <ele>195.85</ele>
        <time>2019-06-10T14:15:15.999Z</time>
      </trkpt>
      <trkpt lat="43.53871" lon="1.49304">
        <ele>195.56</ele>
        <time>2019-06-10T14:15:18.999Z</time>
      </trkpt>
      <trkpt lat="43.53878" lon="1.49294">
        <ele>195.17</ele>
        <time>2019-06-10T14:15:21.999Z</time>
      </trkpt>
      <trkpt lat="43.53886" lon="1.49284">
        <ele>194.86</ele>
        <time>2019-06-10T14:15:24.999Z</time>
      </trkpt>
      <trkpt lat="43.53898" lon="1.49275">
        <ele>194.61</ele>
        <time>2019-06-10T14:15:27.999Z</time>
      </trkpt>
      <trkpt lat="43.5391" lon="1.49269">
        <ele>194.44</ele>
        <time>2019-06-10T14:15:30.999Z</time>
      </trkpt>
      <trkpt lat="43.5392" lon="1.49264">
        <ele>194.33</ele>
        <time>2019-06-10T14:15:33.999Z</time>
      </trkpt>
      <trkpt lat="43.53931" lon="1.4926">
        <ele>194.14</ele>
        <time>2019-06-10T14:15:37.999Z</time>
      </trkpt>
      <trkpt lat="43.53941" lon="1.49255">
        <ele>193.83</ele>
        <time>2019-06-10T14:15:40.999Z</time>
      </trkpt>
      <trkpt lat="43.53951" lon="1.49254">
        <ele>193.46</ele>
        <time>2019-06-10T14:15:43.999Z</time>
      </trkpt>
      <trkpt lat="43.53959" lon="1.4925">
        <ele>193.05</ele>
        <time>2019-06-10T14:15:46.999Z</time>
      </trkpt>
      <trkpt lat="43.53972" lon="1.49247">
        <ele>192.69</ele>
        <time>2019-06-10T14:15:49.999Z</time>
      </trkpt>
      <trkpt lat="43.53984" lon="1.49247">
        <ele>192.49</ele>
        <time>2019-06-10T14:15:52.999Z</time>
      </trkpt>
      <trkpt lat="43.53995" lon="1.49243">
        <ele>192.41</ele>
        <time>2019-06-10T14:15:55.999Z</time>
      </trkpt>
      <trkpt lat="43.54004" lon="1.49241">
        <ele>192.42</ele>
        <time>2019-06-10T14:15:57.999Z</time>
      </trkpt>
      <trkpt lat="43.54017" lon="1.49238">
        <ele>192.52</ele>
        <time>2019-06-10T14:16:00.999Z</time>
      </trkpt>
      <trkpt lat="43.54026" lon="1.49235">
        <ele>192.77</ele>
        <time>2019-06-10T14:16:03.999Z</time>
      </trkpt>
      <trkpt lat="43.54036" lon="1.4923">
        <ele>193.1</ele>
        <time>2019-06-10T14:16:07.999Z</time>
      </trkpt>
      <trkpt lat="43.54045" lon="1.49224">
        <ele>193.13</ele>
        <time>2019-06-10T14:16:10.999Z</time>
      </trkpt>
      <trkpt lat="43.54055" lon="1.49218">
        <ele>193.04</ele>
        <time>2019-06-10T14:16:13.999Z</time>
      </trkpt>
      <trkpt lat="43.54064" lon="1.49214">
        <ele>192.94</ele>
        <time>2019-06-10T14:16:15.999Z</time>
      </trkpt>
      <trkpt lat="43.54073" lon="1.49209">
        <ele>192.74</ele>
        <time>2019-06-10T14:16:18.999Z</time>
      </trkpt>
      <trkpt lat="43.54081" lon="1.49202">
        <ele>192.49</ele>
        <time>2019-06-10T14:16:21.999Z</time>
      </trkpt>
      <trkpt lat="43.54093" lon="1.49196">
        <ele>192.29</ele>
        <time>2019-06-10T14:16:24.999Z</time>
      </trkpt>
      <trkpt lat="43.54103" lon="1.49189">
        <ele>192.17</ele>
        <time>2019-06-10T14:16:27.999Z</time>
      </trkpt>
      <trkpt lat="43.54112" lon="1.4918">
        <ele>191.88</ele>
        <time>2019-06-10T14:16:31.999Z</time>
      </trkpt>
      <trkpt lat="43.5412" lon="1.49174">
        <ele>191.49</ele>
        <time>2019-06-10T14:16:34.999Z</time>
      </trkpt>
      <trkpt lat="43.54131" lon="1.49168">
        <ele>191.03</ele>
        <time>2019-06-10T14:16:37.999Z</time>
      </trkpt>
      <trkpt lat="43.54142" lon="1.49162">
        <ele>190.51</ele>
        <time>2019-06-10T14:16:40.999Z</time>
      </trkpt>
      <trkpt lat="43.54152" lon="1.49158">
        <ele>190.14</ele>
        <time>2019-06-10T14:16:43.999Z</time>
      </trkpt>
      <trkpt lat="43.54162" lon="1.49153">
        <ele>189.96</ele>
        <time>2019-06-10T14:16:46.999Z</time>
      </trkpt>
      <trkpt lat="43.54172" lon="1.49145">
        <ele>189.82</ele>
        <time>2019-06-10T14:16:50.999Z</time>
      </trkpt>
      <trkpt lat="43.54181" lon="1.4914">
        <ele>189.83</ele>
        <time>2019-06-10T14:16:52.999Z</time>
      </trkpt>
      <trkpt lat="43.54192" lon="1.49133">
        <ele>189.89</ele>
        <time>2019-06-10T14:16:55.999Z</time>
      </trkpt>
      <trkpt lat="43.542" lon="1.49128">
        <ele>190.08</ele>
        <time>2019-06-10T14:16:58.999Z</time>
      </trkpt>
      <trkpt lat="43.54209" lon="1.49122">
        <ele>190.31</ele>
        <time>2019-06-10T14:17:01.999Z</time>
      </trkpt>
      <trkpt lat="43.54217" lon="1.49117">
        <ele>190.33</ele>
        <time>2019-06-10T14:17:04.999Z</time>
      </trkpt>
      <trkpt lat="43.54226" lon="1.49113">
        <ele>190.26</ele>
        <time>2019-06-10T14:17:07.999Z</time>
      </trkpt>
      <trkpt lat="43.54235" lon="1.49107">
        <ele>190.2</ele>
        <time>2019-06-10T14:17:09.999Z</time>
      </trkpt>
      <trkpt lat="43.54248" lon="1.49102">
        <ele>190.19</ele>
        <time>2019-06-10T14:17:12.999Z</time>
      </trkpt>
      <trkpt lat="43.54256" lon="1.49097">
        <ele>190.07</ele>
        <time>2019-06-10T14:17:15.999Z</time>
      </trkpt>
      <trkpt lat="43.54265" lon="1.49092">
        <ele>189.89</ele>
        <time>2019-06-10T14:17:18.999Z</time>
      </trkpt>
      <trkpt lat="43.54274" lon="1.49088">
        <ele>189.72</ele>
        <time>2019-06-10T14:17:22.999Z</time>
      </trkpt>
      <trkpt lat="43.54283" lon="1.49083">
        <ele>189.52</ele>
        <time>2019-06-10T14:17:25.999Z</time>
      </trkpt>
      <trkpt lat="43.54294" lon="1.49077">
        <ele>189.24</ele>
        <time>2019-06-10T14:17:29.999Z</time>
      </trkpt>
      <trkpt lat="43.54303" lon="1.49071">
        <ele>188.99</ele>
        <time>2019-06-10T14:17:32.999Z</time>
      </trkpt>
      <trkpt lat="43.54313" lon="1.49066">
        <ele>188.67</ele>
        <time>2019-06-10T14:17:35.999Z</time>
      </trkpt>
      <trkpt lat="43.54323" lon="1.49063">
        <ele>188.34</ele>
        <time>2019-06-10T14:17:38.999Z</time>
      </trkpt>
      <trkpt lat="43.54335" lon="1.49059">
        <ele>187.93</ele>
        <time>2019-06-10T14:17:42.999Z</time>
      </trkpt>
      <trkpt lat="43.54344" lon="1.49054">
        <ele>187.65</ele>
        <time>2019-06-10T14:17:45.999Z</time>
      </trkpt>
      <trkpt lat="43.54355" lon="1.49051">
        <ele>187.38</ele>
        <time>2019-06-10T14:17:48.999Z</time>
      </trkpt>
      <trkpt lat="43.54366" lon="1.49046">
        <ele>187.03</ele>
        <time>2019-06-10T14:17:51.999Z</time>
      </trkpt>
      <trkpt lat="43.54376" lon="1.49042">
        <ele>186.76</ele>
        <time>2019-06-10T14:17:54.999Z</time>
      </trkpt>
      <trkpt lat="43.54388" lon="1.49037">
        <ele>186.61</ele>
        <time>2019-06-10T14:17:57.999Z</time>
      </trkpt>
      <trkpt lat="43.54397" lon="1.49033">
        <ele>186.59</ele>
        <time>2019-06-10T14:18:00.999Z</time>
      </trkpt>
      <trkpt lat="43.54409" lon="1.49026">
        <ele>186.55</ele>
        <time>2019-06-10T14:18:03.999Z</time>
      </trkpt>
      <trkpt lat="43.54419" lon="1.4902">
        <ele>186.55</ele>
        <time>2019-06-10T14:18:07.999Z</time>
      </trkpt>
      <trkpt lat="43.54429" lon="1.49015">
        <ele>186.55</ele>
        <time>2019-06-10T14:18:11.999Z</time>
      </trkpt>
      <trkpt lat="43.54437" lon="1.49011">
        <ele>186.62</ele>
        <time>2019-06-10T14:18:14.999Z</time>
      </trkpt>
      <trkpt lat="43.54446" lon="1.49007">
        <ele>186.87</ele>
        <time>2019-06-10T14:18:18.999Z</time>
      </trkpt>
      <trkpt lat="43.54456" lon="1.49">
        <ele>187.12</ele>
        <time>2019-06-10T14:18:23.999Z</time>
      </trkpt>
      <trkpt lat="43.54465" lon="1.48992">
        <ele>187.44</ele>
        <time>2019-06-10T14:18:27.999Z</time>
      </trkpt>
      <trkpt lat="43.54471" lon="1.48982">
        <ele>187.72</ele>
        <time>2019-06-10T14:18:30.999Z</time>
      </trkpt>
      <trkpt lat="43.54477" lon="1.4897">
        <ele>187.96</ele>
        <time>2019-06-10T14:18:33.999Z</time>
      </trkpt>
      <trkpt lat="43.54484" lon="1.4896">
        <ele>188.13</ele>
        <time>2019-06-10T14:18:36.999Z</time>
      </trkpt>
      <trkpt lat="43.54489" lon="1.48948">
        <ele>188.22</ele>
        <time>2019-06-10T14:18:39.999Z</time>
      </trkpt>
      <trkpt lat="43.54494" lon="1.48936">
        <ele>188.21</ele>
        <time>2019-06-10T14:18:42.999Z</time>
      </trkpt>
      <trkpt lat="43.54499" lon="1.48923">
        <ele>188.11</ele>
        <time>2019-06-10T14:18:45.999Z</time>
      </trkpt>
      <trkpt lat="43.54504" lon="1.48909">
        <ele>187.98</ele>
        <time>2019-06-10T14:18:48.999Z</time>
      </trkpt>
      <trkpt lat="43.54512" lon="1.48898">
        <ele>187.92</ele>
        <time>2019-06-10T14:18:51.999Z</time>
      </trkpt>
      <trkpt lat="43.54517" lon="1.48886">
        <ele>187.91</ele>
        <time>2019-06-10T14:18:54.999Z</time>
      </trkpt>
      <trkpt lat="43.54523" lon="1.48873">
        <ele>188</ele>
        <time>2019-06-10T14:18:57.999Z</time>
      </trkpt>
      <trkpt lat="43.54526" lon="1.48858">
        <ele>188.13</ele>
        <time>2019-06-10T14:19:00.999Z</time>
      </trkpt>
      <trkpt lat="43.54532" lon="1.48846">
        <ele>188.29</ele>
        <time>2019-06-10T14:19:03.999Z</time>
      </trkpt>
      <trkpt lat="43.54535" lon="1.48832">
        <ele>188.43</ele>
        <time>2019-06-10T14:19:06.999Z</time>
      </trkpt>
      <trkpt lat="43.5454" lon="1.48821">
        <ele>188.5</ele>
        <time>2019-06-10T14:19:09.999Z</time>
      </trkpt>
      <trkpt lat="43.54544" lon="1.48807">
        <ele>188.61</ele>
        <time>2019-06-10T14:19:12.999Z</time>
      </trkpt>
      <trkpt lat="43.54548" lon="1.48794">
        <ele>188.77</ele>
        <time>2019-06-10T14:19:15.999Z</time>
      </trkpt>
      <trkpt lat="43.54554" lon="1.48783">
        <ele>188.87</ele>
        <time>2019-06-10T14:19:18.999Z</time>
      </trkpt>
      <trkpt lat="43.54559" lon="1.4877">
        <ele>188.95</ele>
        <time>2019-06-10T14:19:21.999Z</time>
      </trkpt>
      <trkpt lat="43.54564" lon="1.48757">
        <ele>188.99</ele>
        <time>2019-06-10T14:19:24.999Z</time>
      </trkpt>
      <trkpt lat="43.54567" lon="1.48744">
        <ele>189.02</ele>
        <time>2019-06-10T14:19:27.999Z</time>
      </trkpt>
      <trkpt lat="43.54572" lon="1.48732">
        <ele>189.03</ele>
        <time>2019-06-10T14:19:30.999Z</time>
      </trkpt>
      <trkpt lat="43.54577" lon="1.48719">
        <ele>189.06</ele>
        <time>2019-06-10T14:19:33.999Z</time>
      </trkpt>
      <trkpt lat="43.54583" lon="1.48708">
        <ele>189.07</ele>
        <time>2019-06-10T14:19:36.999Z</time>
      </trkpt>
      <trkpt lat="43.5459" lon="1.48697">
        <ele>189.08</ele>
        <time>2019-06-10T14:19:39.999Z</time>
      </trkpt>
      <trkpt lat="43.54595" lon="1.48685">
        <ele>189.05</ele>
        <time>2019-06-10T14:19:42.999Z</time>
      </trkpt>
      <trkpt lat="43.54599" lon="1.4867">
        <ele>189.18</ele>
        <time>2019-06-10T14:19:45.999Z</time>
      </trkpt>
      <trkpt lat="43.54605" lon="1.48657">
        <ele>189.48</ele>
        <time>2019-06-10T14:19:48.999Z</time>
      </trkpt>
      <trkpt lat="43.54611" lon="1.48645">
        <ele>189.81</ele>
        <time>2019-06-10T14:19:51.999Z</time>
      </trkpt>
      <trkpt lat="43.54619" lon="1.48632">
        <ele>190.11</ele>
        <time>2019-06-10T14:19:54.999Z</time>
      </trkpt>
      <trkpt lat="43.54626" lon="1.48622">
        <ele>190.34</ele>
        <time>2019-06-10T14:19:57.999Z</time>
      </trkpt>
      <trkpt lat="43.54633" lon="1.4861">
        <ele>190.57</ele>
        <time>2019-06-10T14:20:00.999Z</time>
      </trkpt>
      <trkpt lat="43.54641" lon="1.486">
        <ele>190.85</ele>
        <time>2019-06-10T14:20:03.999Z</time>
      </trkpt>
      <trkpt lat="43.54651" lon="1.4859">
        <ele>191.9</ele>
        <time>2019-06-10T14:20:06.999Z</time>
      </trkpt>
      <trkpt lat="43.5466" lon="1.48581">
        <ele>194.03</ele>
        <time>2019-06-10T14:20:09.999Z</time>
      </trkpt>
      <trkpt lat="43.5467" lon="1.48571">
        <ele>195.15</ele>
        <time>2019-06-10T14:20:12.999Z</time>
      </trkpt>
      <trkpt lat="43.54681" lon="1.48564">
        <ele>195.72</ele>
        <time>2019-06-10T14:20:15.999Z</time>
      </trkpt>
      <trkpt lat="43.54693" lon="1.48556">
        <ele>195.67</ele>
        <time>2019-06-10T14:20:18.999Z</time>
      </trkpt>
      <trkpt lat="43.54702" lon="1.48548">
        <ele>195.47</ele>
        <time>2019-06-10T14:20:21.999Z</time>
      </trkpt>
      <trkpt lat="43.54713" lon="1.48542">
        <ele>195.34</ele>
        <time>2019-06-10T14:20:24.999Z</time>
      </trkpt>
      <trkpt lat="43.54723" lon="1.48533">
        <ele>195.43</ele>
        <time>2019-06-10T14:20:28.999Z</time>
      </trkpt>
      <trkpt lat="43.54732" lon="1.48525">
        <ele>195.5</ele>
        <time>2019-06-10T14:20:31.999Z</time>
      </trkpt>
      <trkpt lat="43.54742" lon="1.48516">
        <ele>195.63</ele>
        <time>2019-06-10T14:20:35.999Z</time>
      </trkpt>
      <trkpt lat="43.5475" lon="1.4851">
        <ele>195.74</ele>
        <time>2019-06-10T14:20:38.999Z</time>
      </trkpt>
      <trkpt lat="43.54759" lon="1.48498">
        <ele>195.78</ele>
        <time>2019-06-10T14:20:42.999Z</time>
      </trkpt>
      <trkpt lat="43.54767" lon="1.4849">
        <ele>195.73</ele>
        <time>2019-06-10T14:20:45.999Z</time>
      </trkpt>
      <trkpt lat="43.54776" lon="1.48481">
        <ele>195.69</ele>
        <time>2019-06-10T14:20:48.999Z</time>
      </trkpt>
      <trkpt lat="43.54787" lon="1.48472">
        <ele>195.79</ele>
        <time>2019-06-10T14:20:51.999Z</time>
      </trkpt>
      <trkpt lat="43.54797" lon="1.48468">
        <ele>196.03</ele>
        <time>2019-06-10T14:20:54.999Z</time>
      </trkpt>
      <trkpt lat="43.5481" lon="1.48464">
        <ele>196.29</ele>
        <time>2019-06-10T14:20:57.999Z</time>
      </trkpt>
      <trkpt lat="43.54821" lon="1.48461">
        <ele>196.44</ele>
        <time>2019-06-10T14:21:00.999Z</time>
      </trkpt>
      <trkpt lat="43.54831" lon="1.48464">
        <ele>196.48</ele>
        <time>2019-06-10T14:21:03.999Z</time>
      </trkpt>
      <trkpt lat="43.54832" lon="1.48478">
        <ele>196.36</ele>
        <time>2019-06-10T14:21:07.999Z</time>
      </trkpt>
      <trkpt lat="43.54823" lon="1.48477">
        <ele>196.25</ele>
        <time>2019-06-10T14:21:12.999Z</time>
      </trkpt>
      <trkpt lat="43.54827" lon="1.48462">
        <ele>196.62</ele>
        <time>2019-06-10T14:21:19.999Z</time>
      </trkpt>
      <trkpt lat="43.54836" lon="1.48452">
        <ele>197.36</ele>
        <time>2019-06-10T14:21:23.999Z</time>
      </trkpt>
      <trkpt lat="43.54844" lon="1.48445">
        <ele>198.12</ele>
        <time>2019-06-10T14:21:27.999Z</time>
      </trkpt>
      <trkpt lat="43.54853" lon="1.48437">
        <ele>198.71</ele>
        <time>2019-06-10T14:21:31.999Z</time>
      </trkpt>
      <trkpt lat="43.54863" lon="1.4843">
        <ele>199.17</ele>
        <time>2019-06-10T14:21:35.999Z</time>
      </trkpt>
      <trkpt lat="43.54871" lon="1.48423">
        <ele>199.44</ele>
        <time>2019-06-10T14:21:38.999Z</time>
      </trkpt>
      <trkpt lat="43.54881" lon="1.48415">
        <ele>199.68</ele>
        <time>2019-06-10T14:21:41.999Z</time>
      </trkpt>
      <trkpt lat="43.54893" lon="1.48406">
        <ele>199.84</ele>
        <time>2019-06-10T14:21:44.999Z</time>
      </trkpt>
      <trkpt lat="43.54903" lon="1.484">
        <ele>199.93</ele>
        <time>2019-06-10T14:21:47.999Z</time>
      </trkpt>
      <trkpt lat="43.54911" lon="1.48394">
        <ele>200.01</ele>
        <time>2019-06-10T14:21:50.999Z</time>
      </trkpt>
      <trkpt lat="43.54918" lon="1.48387">
        <ele>200.04</ele>
        <time>2019-06-10T14:21:52.999Z</time>
      </trkpt>
      <trkpt lat="43.54928" lon="1.48378">
        <ele>200.14</ele>
        <time>2019-06-10T14:21:55.999Z</time>
      </trkpt>
      <trkpt lat="43.54938" lon="1.4837">
        <ele>200.28</ele>
        <time>2019-06-10T14:21:58.999Z</time>
      </trkpt>
      <trkpt lat="43.54947" lon="1.4836">
        <ele>200.44</ele>
        <time>2019-06-10T14:22:01.999Z</time>
      </trkpt>
      <trkpt lat="43.54956" lon="1.4835">
        <ele>201.1</ele>
        <time>2019-06-10T14:22:04.999Z</time>
      </trkpt>
      <trkpt lat="43.54963" lon="1.4834">
        <ele>201.17</ele>
        <time>2019-06-10T14:22:06.999Z</time>
      </trkpt>
      <trkpt lat="43.54973" lon="1.4833">
        <ele>201.09</ele>
        <time>2019-06-10T14:22:09.999Z</time>
      </trkpt>
      <trkpt lat="43.54982" lon="1.4832">
        <ele>201.03</ele>
        <time>2019-06-10T14:22:12.999Z</time>
      </trkpt>
      <trkpt lat="43.54993" lon="1.48309">
        <ele>200.92</ele>
        <time>2019-06-10T14:22:15.999Z</time>
      </trkpt>
      <trkpt lat="43.55002" lon="1.48299">
        <ele>200.71</ele>
        <time>2019-06-10T14:22:18.999Z</time>
      </trkpt>
      <trkpt lat="43.5501" lon="1.48291">
        <ele>200.56</ele>
        <time>2019-06-10T14:22:20.999Z</time>
      </trkpt>
      <trkpt lat="43.55019" lon="1.48283">
        <ele>200.39</ele>
        <time>2019-06-10T14:22:23.999Z</time>
      </trkpt>
      <trkpt lat="43.55028" lon="1.48273">
        <ele>200.26</ele>
        <time>2019-06-10T14:22:26.999Z</time>
      </trkpt>
      <trkpt lat="43.55037" lon="1.48265">
        <ele>200.13</ele>
        <time>2019-06-10T14:22:29.999Z</time>
      </trkpt>
      <trkpt lat="43.55047" lon="1.48255">
        <ele>199.99</ele>
        <time>2019-06-10T14:22:32.999Z</time>
      </trkpt>
      <trkpt lat="43.55056" lon="1.48245">
        <ele>199.89</ele>
        <time>2019-06-10T14:22:35.999Z</time>
      </trkpt>
      <trkpt lat="43.55067" lon="1.48238">
        <ele>199.76</ele>
        <time>2019-06-10T14:22:38.999Z</time>
      </trkpt>
      <trkpt lat="43.55076" lon="1.48229">
        <ele>199.56</ele>
        <time>2019-06-10T14:22:41.999Z</time>
      </trkpt>
      <trkpt lat="43.55087" lon="1.48224">
        <ele>199.31</ele>
        <time>2019-06-10T14:22:44.999Z</time>
      </trkpt>
      <trkpt lat="43.55097" lon="1.48219">
        <ele>199.12</ele>
        <time>2019-06-10T14:22:47.999Z</time>
      </trkpt>
      <trkpt lat="43.55108" lon="1.48216">
        <ele>198.88</ele>
        <time>2019-06-10T14:22:50.999Z</time>
      </trkpt>
      <trkpt lat="43.55117" lon="1.48211">
        <ele>198.69</ele>
        <time>2019-06-10T14:22:53.999Z</time>
      </trkpt>
      <trkpt lat="43.55127" lon="1.48204">
        <ele>198.43</ele>
        <time>2019-06-10T14:22:56.999Z</time>
      </trkpt>
      <trkpt lat="43.5514" lon="1.48198">
        <ele>198.2</ele>
        <time>2019-06-10T14:22:59.999Z</time>
      </trkpt>
      <trkpt lat="43.55151" lon="1.48196">
        <ele>198.13</ele>
        <time>2019-06-10T14:23:02.999Z</time>
      </trkpt>
      <trkpt lat="43.55162" lon="1.4819">
        <ele>198.15</ele>
        <time>2019-06-10T14:23:05.999Z</time>
      </trkpt>
      <trkpt lat="43.55171" lon="1.48186">
        <ele>198.09</ele>
        <time>2019-06-10T14:23:08.999Z</time>
      </trkpt>
      <trkpt lat="43.5518" lon="1.48183">
        <ele>198.03</ele>
        <time>2019-06-10T14:23:10.999Z</time>
      </trkpt>
      <trkpt lat="43.5519" lon="1.4818">
        <ele>198.02</ele>
        <time>2019-06-10T14:23:12.999Z</time>
      </trkpt>
      <trkpt lat="43.55199" lon="1.48176">
        <ele>197.99</ele>
        <time>2019-06-10T14:23:15.999Z</time>
      </trkpt>
      <trkpt lat="43.55212" lon="1.48173">
        <ele>198.04</ele>
        <time>2019-06-10T14:23:18.999Z</time>
      </trkpt>
      <trkpt lat="43.55225" lon="1.4817">
        <ele>198.24</ele>
        <time>2019-06-10T14:23:21.999Z</time>
      </trkpt>
      <trkpt lat="43.55236" lon="1.48166">
        <ele>198.52</ele>
        <time>2019-06-10T14:23:24.999Z</time>
      </trkpt>
      <trkpt lat="43.55248" lon="1.4816">
        <ele>198.61</ele>
        <time>2019-06-10T14:23:27.999Z</time>
      </trkpt>
      <trkpt lat="43.55258" lon="1.48156">
        <ele>198.56</ele>
        <time>2019-06-10T14:23:30.999Z</time>
      </trkpt>
      <trkpt lat="43.55268" lon="1.48153">
        <ele>198.47</ele>
        <time>2019-06-10T14:23:33.999Z</time>
      </trkpt>
      <trkpt lat="43.55279" lon="1.48151">
        <ele>198.46</ele>
        <time>2019-06-10T14:23:35.999Z</time>
      </trkpt>
      <trkpt lat="43.55293" lon="1.48147">
        <ele>198.51</ele>
        <time>2019-06-10T14:23:38.999Z</time>
      </trkpt>
      <trkpt lat="43.55302" lon="1.48144">
        <ele>198.69</ele>
        <time>2019-06-10T14:23:40.999Z</time>
      </trkpt>
      <trkpt lat="43.55316" lon="1.48141">
        <ele>198.94</ele>
        <time>2019-06-10T14:23:43.999Z</time>
      </trkpt>
      <trkpt lat="43.55325" lon="1.48138">
        <ele>199.11</ele>
        <time>2019-06-10T14:23:45.999Z</time>
      </trkpt>
      <trkpt lat="43.55338" lon="1.48136">
        <ele>199.39</ele>
        <time>2019-06-10T14:23:48.999Z</time>
      </trkpt>
      <trkpt lat="43.5535" lon="1.48132">
        <ele>199.66</ele>
        <time>2019-06-10T14:23:51.999Z</time>
      </trkpt>
      <trkpt lat="43.55362" lon="1.48128">
        <ele>199.77</ele>
        <time>2019-06-10T14:23:54.999Z</time>
      </trkpt>
      <trkpt lat="43.55372" lon="1.48128">
        <ele>199.86</ele>
        <time>2019-06-10T14:23:57.999Z</time>
      </trkpt>
      <trkpt lat="43.55384" lon="1.48127">
        <ele>200.32</ele>
        <time>2019-06-10T14:24:00.999Z</time>
      </trkpt>
      <trkpt lat="43.55397" lon="1.48124">
        <ele>200.33</ele>
        <time>2019-06-10T14:24:03.999Z</time>
      </trkpt>
      <trkpt lat="43.5541" lon="1.48124">
        <ele>200.31</ele>
        <time>2019-06-10T14:24:06.999Z</time>
      </trkpt>
      <trkpt lat="43.55421" lon="1.48125">
        <ele>200.23</ele>
        <time>2019-06-10T14:24:09.999Z</time>
      </trkpt>
      <trkpt lat="43.55432" lon="1.48124">
        <ele>200.1</ele>
        <time>2019-06-10T14:24:12.999Z</time>
      </trkpt>
      <trkpt lat="43.55442" lon="1.48123">
        <ele>199.98</ele>
        <time>2019-06-10T14:24:14.999Z</time>
      </trkpt>
      <trkpt lat="43.55455" lon="1.48122">
        <ele>199.79</ele>
        <time>2019-06-10T14:24:17.999Z</time>
      </trkpt>
      <trkpt lat="43.55467" lon="1.4812">
        <ele>199.77</ele>
        <time>2019-06-10T14:24:20.999Z</time>
      </trkpt>
      <trkpt lat="43.55476" lon="1.48115">
        <ele>199.84</ele>
        <time>2019-06-10T14:24:22.999Z</time>
      </trkpt>
      <trkpt lat="43.55487" lon="1.48112">
        <ele>200.16</ele>
        <time>2019-06-10T14:24:24.999Z</time>
      </trkpt>
      <trkpt lat="43.55497" lon="1.48108">
        <ele>200.58</ele>
        <time>2019-06-10T14:24:26.999Z</time>
      </trkpt>
      <trkpt lat="43.55508" lon="1.48103">
        <ele>200.96</ele>
        <time>2019-06-10T14:24:29.999Z</time>
      </trkpt>
      <trkpt lat="43.55518" lon="1.48099">
        <ele>201.05</ele>
        <time>2019-06-10T14:24:33.999Z</time>
      </trkpt>
      <trkpt lat="43.55529" lon="1.48093">
        <ele>201.23</ele>
        <time>2019-06-10T14:24:36.999Z</time>
      </trkpt>
      <trkpt lat="43.55541" lon="1.48088">
        <ele>201.17</ele>
        <time>2019-06-10T14:24:38.999Z</time>
      </trkpt>
      <trkpt lat="43.55549" lon="1.48085">
        <ele>200.87</ele>
        <time>2019-06-10T14:24:40.999Z</time>
      </trkpt>
      <trkpt lat="43.55561" lon="1.48083">
        <ele>200.53</ele>
        <time>2019-06-10T14:24:43.999Z</time>
      </trkpt>
      <trkpt lat="43.55572" lon="1.48083">
        <ele>200.48</ele>
        <time>2019-06-10T14:24:46.999Z</time>
      </trkpt>
      <trkpt lat="43.55581" lon="1.48076">
        <ele>200.35</ele>
        <time>2019-06-10T14:24:50.999Z</time>
      </trkpt>
      <trkpt lat="43.55591" lon="1.48066">
        <ele>199.84</ele>
        <time>2019-06-10T14:24:55.999Z</time>
      </trkpt>
      <trkpt lat="43.556" lon="1.48061">
        <ele>199.45</ele>
        <time>2019-06-10T14:24:58.999Z</time>
      </trkpt>
      <trkpt lat="43.55609" lon="1.48055">
        <ele>199.09</ele>
        <time>2019-06-10T14:25:01.999Z</time>
      </trkpt>
      <trkpt lat="43.55619" lon="1.48049">
        <ele>198.75</ele>
        <time>2019-06-10T14:25:05.999Z</time>
      </trkpt>
      <trkpt lat="43.55629" lon="1.48042">
        <ele>198.34</ele>
        <time>2019-06-10T14:25:09.999Z</time>
      </trkpt>
      <trkpt lat="43.55638" lon="1.48037">
        <ele>197.96</ele>
        <time>2019-06-10T14:25:12.999Z</time>
      </trkpt>
      <trkpt lat="43.55647" lon="1.48031">
        <ele>197.61</ele>
        <time>2019-06-10T14:25:15.999Z</time>
      </trkpt>
      <trkpt lat="43.55656" lon="1.48024">
        <ele>197.2</ele>
        <time>2019-06-10T14:25:18.999Z</time>
      </trkpt>
      <trkpt lat="43.55664" lon="1.48018">
        <ele>196.74</ele>
        <time>2019-06-10T14:25:21.999Z</time>
      </trkpt>
      <trkpt lat="43.55675" lon="1.48011">
        <ele>196.28</ele>
        <time>2019-06-10T14:25:24.999Z</time>
      </trkpt>
      <trkpt lat="43.55686" lon="1.48003">
        <ele>195.81</ele>
        <time>2019-06-10T14:25:27.999Z</time>
      </trkpt>
      <trkpt lat="43.55697" lon="1.47995">
        <ele>195.42</ele>
        <time>2019-06-10T14:25:30.999Z</time>
      </trkpt>
      <trkpt lat="43.55708" lon="1.47987">
        <ele>195.27</ele>
        <time>2019-06-10T14:25:33.999Z</time>
      </trkpt>
      <trkpt lat="43.55717" lon="1.47979">
        <ele>195.34</ele>
        <time>2019-06-10T14:25:36.999Z</time>
      </trkpt>
      <trkpt lat="43.55727" lon="1.47974">
        <ele>195.6</ele>
        <time>2019-06-10T14:25:39.999Z</time>
      </trkpt>
      <trkpt lat="43.55736" lon="1.47967">
        <ele>196</ele>
        <time>2019-06-10T14:25:42.999Z</time>
      </trkpt>
      <trkpt lat="43.55743" lon="1.47958">
        <ele>196.41</ele>
        <time>2019-06-10T14:25:45.999Z</time>
      </trkpt>
      <trkpt lat="43.55751" lon="1.47948">
        <ele>196.72</ele>
        <time>2019-06-10T14:25:48.999Z</time>
      </trkpt>
      <trkpt lat="43.55759" lon="1.47937">
        <ele>197</ele>
        <time>2019-06-10T14:25:52.999Z</time>
      </trkpt>
      <trkpt lat="43.55769" lon="1.47926">
        <ele>197.21</ele>
        <time>2019-06-10T14:25:55.999Z</time>
      </trkpt>
      <trkpt lat="43.55776" lon="1.47914">
        <ele>197.44</ele>
        <time>2019-06-10T14:25:58.999Z</time>
      </trkpt>
      <trkpt lat="43.55784" lon="1.479">
        <ele>197.64</ele>
        <time>2019-06-10T14:26:01.999Z</time>
      </trkpt>
      <trkpt lat="43.55792" lon="1.47889">
        <ele>197.96</ele>
        <time>2019-06-10T14:26:04.999Z</time>
      </trkpt>
      <trkpt lat="43.558" lon="1.47881">
        <ele>198.28</ele>
        <time>2019-06-10T14:26:06.999Z</time>
      </trkpt>
      <trkpt lat="43.55809" lon="1.4787">
        <ele>198.99</ele>
        <time>2019-06-10T14:26:09.999Z</time>
      </trkpt>
      <trkpt lat="43.55816" lon="1.47857">
        <ele>199.71</ele>
        <time>2019-06-10T14:26:12.999Z</time>
      </trkpt>
      <trkpt lat="43.55826" lon="1.47846">
        <ele>200.38</ele>
        <time>2019-06-10T14:26:15.999Z</time>
      </trkpt>
      <trkpt lat="43.55833" lon="1.47834">
        <ele>200.95</ele>
        <time>2019-06-10T14:26:18.999Z</time>
      </trkpt>
      <trkpt lat="43.55838" lon="1.4782">
        <ele>201.23</ele>
        <time>2019-06-10T14:26:21.999Z</time>
      </trkpt>
      <trkpt lat="43.55846" lon="1.47807">
        <ele>201.4</ele>
        <time>2019-06-10T14:26:24.999Z</time>
      </trkpt>
      <trkpt lat="43.55854" lon="1.47797">
        <ele>201.46</ele>
        <time>2019-06-10T14:26:27.999Z</time>
      </trkpt>
      <trkpt lat="43.55863" lon="1.47785">
        <ele>201.52</ele>
        <time>2019-06-10T14:26:30.999Z</time>
      </trkpt>
      <trkpt lat="43.55871" lon="1.47775">
        <ele>201.66</ele>
        <time>2019-06-10T14:26:33.999Z</time>
      </trkpt>
      <trkpt lat="43.5588" lon="1.47763">
        <ele>201.91</ele>
        <time>2019-06-10T14:26:36.999Z</time>
      </trkpt>
      <trkpt lat="43.55885" lon="1.47753">
        <ele>202.01</ele>
        <time>2019-06-10T14:26:38.999Z</time>
      </trkpt>
      <trkpt lat="43.55893" lon="1.4774">
        <ele>202.11</ele>
        <time>2019-06-10T14:26:41.999Z</time>
      </trkpt>
      <trkpt lat="43.55901" lon="1.47729">
        <ele>202.11</ele>
        <time>2019-06-10T14:26:44.999Z</time>
      </trkpt>
      <trkpt lat="43.5591" lon="1.47719">
        <ele>202.1</ele>
        <time>2019-06-10T14:26:47.999Z</time>
      </trkpt>
      <trkpt lat="43.55916" lon="1.4771">
        <ele>202.04</ele>
        <time>2019-06-10T14:26:49.999Z</time>
      </trkpt>
      <trkpt lat="43.55926" lon="1.47698">
        <ele>201.89</ele>
        <time>2019-06-10T14:26:52.999Z</time>
      </trkpt>
      <trkpt lat="43.55936" lon="1.47687">
        <ele>201.72</ele>
        <time>2019-06-10T14:26:55.999Z</time>
      </trkpt>
      <trkpt lat="43.55947" lon="1.47675">
        <ele>201.52</ele>
        <time>2019-06-10T14:26:58.999Z</time>
      </trkpt>
      <trkpt lat="43.55954" lon="1.47664">
        <ele>201.21</ele>
        <time>2019-06-10T14:27:01.999Z</time>
      </trkpt>
      <trkpt lat="43.55964" lon="1.47654">
        <ele>200.86</ele>
        <time>2019-06-10T14:27:04.999Z</time>
      </trkpt>
      <trkpt lat="43.55971" lon="1.47646">
        <ele>200.57</ele>
        <time>2019-06-10T14:27:06.999Z</time>
      </trkpt>
      <trkpt lat="43.55978" lon="1.47638">
        <ele>200.27</ele>
        <time>2019-06-10T14:27:08.999Z</time>
      </trkpt>
      <trkpt lat="43.55986" lon="1.47628">
        <ele>199.9</ele>
        <time>2019-06-10T14:27:11.999Z</time>
      </trkpt>
      <trkpt lat="43.55996" lon="1.4762">
        <ele>199.68</ele>
        <time>2019-06-10T14:27:14.999Z</time>
      </trkpt>
      <trkpt lat="43.56003" lon="1.47609">
        <ele>199.69</ele>
        <time>2019-06-10T14:27:17.999Z</time>
      </trkpt>
      <trkpt lat="43.56012" lon="1.47601">
        <ele>199.97</ele>
        <time>2019-06-10T14:27:20.999Z</time>
      </trkpt>
      <trkpt lat="43.56021" lon="1.4759">
        <ele>200.52</ele>
        <time>2019-06-10T14:27:23.999Z</time>
      </trkpt>
      <trkpt lat="43.56028" lon="1.47581">
        <ele>201.08</ele>
        <time>2019-06-10T14:27:26.999Z</time>
      </trkpt>
      <trkpt lat="43.56036" lon="1.4757">
        <ele>201.63</ele>
        <time>2019-06-10T14:27:29.999Z</time>
      </trkpt>
      <trkpt lat="43.56045" lon="1.47561">
        <ele>202.13</ele>
        <time>2019-06-10T14:27:32.999Z</time>
      </trkpt>
      <trkpt lat="43.56055" lon="1.47551">
        <ele>202.42</ele>
        <time>2019-06-10T14:27:35.999Z</time>
      </trkpt>
      <trkpt lat="43.56063" lon="1.47541">
        <ele>202.65</ele>
        <time>2019-06-10T14:27:38.999Z</time>
      </trkpt>
      <trkpt lat="43.5607" lon="1.47531">
        <ele>202.9</ele>
        <time>2019-06-10T14:27:41.999Z</time>
      </trkpt>
      <trkpt lat="43.5608" lon="1.4752">
        <ele>203.21</ele>
        <time>2019-06-10T14:27:44.999Z</time>
      </trkpt>
      <trkpt lat="43.56089" lon="1.4751">
        <ele>203.47</ele>
        <time>2019-06-10T14:27:47.999Z</time>
      </trkpt>
      <trkpt lat="43.56097" lon="1.475">
        <ele>203.74</ele>
        <time>2019-06-10T14:27:50.999Z</time>
      </trkpt>
      <trkpt lat="43.56104" lon="1.4749">
        <ele>203.98</ele>
        <time>2019-06-10T14:27:53.999Z</time>
      </trkpt>
      <trkpt lat="43.56114" lon="1.47479">
        <ele>204.31</ele>
        <time>2019-06-10T14:27:56.999Z</time>
      </trkpt>
      <trkpt lat="43.56123" lon="1.47467">
        <ele>204.64</ele>
        <time>2019-06-10T14:27:59.999Z</time>
      </trkpt>
      <trkpt lat="43.56132" lon="1.47456">
        <ele>204.89</ele>
        <time>2019-06-10T14:28:02.999Z</time>
      </trkpt>
      <trkpt lat="43.56141" lon="1.47446">
        <ele>205.1</ele>
        <time>2019-06-10T14:28:05.999Z</time>
      </trkpt>
      <trkpt lat="43.56149" lon="1.47436">
        <ele>205.28</ele>
        <time>2019-06-10T14:28:08.999Z</time>
      </trkpt>
      <trkpt lat="43.56158" lon="1.47425">
        <ele>205.35</ele>
        <time>2019-06-10T14:28:11.999Z</time>
      </trkpt>
      <trkpt lat="43.56167" lon="1.47415">
        <ele>205.33</ele>
        <time>2019-06-10T14:28:14.999Z</time>
      </trkpt>
      <trkpt lat="43.56176" lon="1.47404">
        <ele>205.25</ele>
        <time>2019-06-10T14:28:17.999Z</time>
      </trkpt>
      <trkpt lat="43.56182" lon="1.47393">
        <ele>205.14</ele>
        <time>2019-06-10T14:28:20.999Z</time>
      </trkpt>
      <trkpt lat="43.56191" lon="1.47383">
        <ele>205.08</ele>
        <time>2019-06-10T14:28:23.999Z</time>
      </trkpt>
      <trkpt lat="43.56197" lon="1.47372">
        <ele>205.05</ele>
        <time>2019-06-10T14:28:26.999Z</time>
      </trkpt>
      <trkpt lat="43.56204" lon="1.47359">
        <ele>204.89</ele>
        <time>2019-06-10T14:28:29.999Z</time>
      </trkpt>
      <trkpt lat="43.56214" lon="1.47348">
        <ele>204.65</ele>
        <time>2019-06-10T14:28:33.000Z</time>
      </trkpt>
      <trkpt lat="43.56223" lon="1.47337">
        <ele>204.34</ele>
        <time>2019-06-10T14:28:36.000Z</time>
      </trkpt>
      <trkpt lat="43.56231" lon="1.47325">
        <ele>203.94</ele>
        <time>2019-06-10T14:28:39.000Z</time>
      </trkpt>
      <trkpt lat="43.5624" lon="1.47314">
        <ele>203.45</ele>
        <time>2019-06-10T14:28:42.000Z</time>
      </trkpt>
      <trkpt lat="43.56249" lon="1.47305">
        <ele>203.09</ele>
        <time>2019-06-10T14:28:45.000Z</time>
      </trkpt>
      <trkpt lat="43.56256" lon="1.47296">
        <ele>202.81</ele>
        <time>2019-06-10T14:28:48.000Z</time>
      </trkpt>
      <trkpt lat="43.56264" lon="1.47286">
        <ele>202.5</ele>
        <time>2019-06-10T14:28:51.000Z</time>
      </trkpt>
      <trkpt lat="43.5627" lon="1.47276">
        <ele>202.24</ele>
        <time>2019-06-10T14:28:54.000Z</time>
      </trkpt>
      <trkpt lat="43.56278" lon="1.47263">
        <ele>201.83</ele>
        <time>2019-06-10T14:28:58.000Z</time>
      </trkpt>
      <trkpt lat="43.56284" lon="1.47251">
        <ele>201.28</ele>
        <time>2019-06-10T14:29:01.000Z</time>
      </trkpt>
      <trkpt lat="43.56294" lon="1.4724">
        <ele>200.77</ele>
        <time>2019-06-10T14:29:04.000Z</time>
      </trkpt>
      <trkpt lat="43.56304" lon="1.47231">
        <ele>200.39</ele>
        <time>2019-06-10T14:29:07.000Z</time>
      </trkpt>
      <trkpt lat="43.56311" lon="1.47224">
        <ele>200.16</ele>
        <time>2019-06-10T14:29:10.000Z</time>
      </trkpt>
      <trkpt lat="43.56318" lon="1.47216">
        <ele>199.93</ele>
        <time>2019-06-10T14:29:13.000Z</time>
      </trkpt>
      <trkpt lat="43.56327" lon="1.47207">
        <ele>199.55</ele>
        <time>2019-06-10T14:29:17.000Z</time>
      </trkpt>
      <trkpt lat="43.56339" lon="1.47201">
        <ele>199.16</ele>
        <time>2019-06-10T14:29:20.000Z</time>
      </trkpt>
      <trkpt lat="43.56348" lon="1.47197">
        <ele>198.98</ele>
        <time>2019-06-10T14:29:22.000Z</time>
      </trkpt>
      <trkpt lat="43.5636" lon="1.47192">
        <ele>198.87</ele>
        <time>2019-06-10T14:29:25.000Z</time>
      </trkpt>
      <trkpt lat="43.56369" lon="1.47187">
        <ele>198.77</ele>
        <time>2019-06-10T14:29:27.000Z</time>
      </trkpt>
      <trkpt lat="43.56381" lon="1.47182">
        <ele>198.68</ele>
        <time>2019-06-10T14:29:30.000Z</time>
      </trkpt>
      <trkpt lat="43.56391" lon="1.47179">
        <ele>198.64</ele>
        <time>2019-06-10T14:29:33.000Z</time>
      </trkpt>
      <trkpt lat="43.56401" lon="1.47177">
        <ele>198.52</ele>
        <time>2019-06-10T14:29:36.000Z</time>
      </trkpt>
      <trkpt lat="43.56411" lon="1.47174">
        <ele>198.29</ele>
        <time>2019-06-10T14:29:39.000Z</time>
      </trkpt>
      <trkpt lat="43.56422" lon="1.47173">
        <ele>196.87</ele>
        <time>2019-06-10T14:29:42.000Z</time>
      </trkpt>
      <trkpt lat="43.56433" lon="1.47173">
        <ele>195.67</ele>
        <time>2019-06-10T14:29:44.000Z</time>
      </trkpt>
      <trkpt lat="43.56443" lon="1.47173">
        <ele>195.6</ele>
        <time>2019-06-10T14:29:46.000Z</time>
      </trkpt>
      <trkpt lat="43.56456" lon="1.47175">
        <ele>195.7</ele>
        <time>2019-06-10T14:29:49.000Z</time>
      </trkpt>
      <trkpt lat="43.56465" lon="1.47175">
        <ele>195.83</ele>
        <time>2019-06-10T14:29:51.000Z</time>
      </trkpt>
      <trkpt lat="43.56478" lon="1.47175">
        <ele>196.15</ele>
        <time>2019-06-10T14:29:54.000Z</time>
      </trkpt>
      <trkpt lat="43.56487" lon="1.47176">
        <ele>196.2</ele>
        <time>2019-06-10T14:29:56.000Z</time>
      </trkpt>
      <trkpt lat="43.565" lon="1.47177">
        <ele>196.24</ele>
        <time>2019-06-10T14:29:59.000Z</time>
      </trkpt>
      <trkpt lat="43.56509" lon="1.47173">
        <ele>196.26</ele>
        <time>2019-06-10T14:30:02.000Z</time>
      </trkpt>
      <trkpt lat="43.56519" lon="1.4717">
        <ele>196.24</ele>
        <time>2019-06-10T14:30:05.000Z</time>
      </trkpt>
      <trkpt lat="43.56529" lon="1.47174">
        <ele>195.32</ele>
        <time>2019-06-10T14:30:08.000Z</time>
      </trkpt>
      <trkpt lat="43.56541" lon="1.47177">
        <ele>194.76</ele>
        <time>2019-06-10T14:30:11.000Z</time>
      </trkpt>
      <trkpt lat="43.56551" lon="1.47176">
        <ele>194.64</ele>
        <time>2019-06-10T14:30:14.000Z</time>
      </trkpt>
      <trkpt lat="43.5656" lon="1.47178">
        <ele>194.56</ele>
        <time>2019-06-10T14:30:17.000Z</time>
      </trkpt>
      <trkpt lat="43.56572" lon="1.4718">
        <ele>194.55</ele>
        <time>2019-06-10T14:30:20.000Z</time>
      </trkpt>
      <trkpt lat="43.56583" lon="1.47179">
        <ele>194.62</ele>
        <time>2019-06-10T14:30:23.000Z</time>
      </trkpt>
      <trkpt lat="43.56595" lon="1.47179">
        <ele>194.76</ele>
        <time>2019-06-10T14:30:26.000Z</time>
      </trkpt>
      <trkpt lat="43.56606" lon="1.4718">
        <ele>195.01</ele>
        <time>2019-06-10T14:30:29.000Z</time>
      </trkpt>
      <trkpt lat="43.56616" lon="1.47181">
        <ele>195.27</ele>
        <time>2019-06-10T14:30:32.000Z</time>
      </trkpt>
      <trkpt lat="43.56627" lon="1.47181">
        <ele>195.61</ele>
        <time>2019-06-10T14:30:35.000Z</time>
      </trkpt>
      <trkpt lat="43.56638" lon="1.47181">
        <ele>195.97</ele>
        <time>2019-06-10T14:30:38.000Z</time>
      </trkpt>
      <trkpt lat="43.56648" lon="1.47181">
        <ele>196.33</ele>
        <time>2019-06-10T14:30:41.000Z</time>
      </trkpt>
      <trkpt lat="43.56658" lon="1.47181">
        <ele>196.59</ele>
        <time>2019-06-10T14:30:44.000Z</time>
      </trkpt>
      <trkpt lat="43.5667" lon="1.47181">
        <ele>196.73</ele>
        <time>2019-06-10T14:30:47.000Z</time>
      </trkpt>
      <trkpt lat="43.5668" lon="1.4718">
        <ele>196.83</ele>
        <time>2019-06-10T14:30:49.000Z</time>
      </trkpt>
      <trkpt lat="43.56691" lon="1.4718">
        <ele>197.01</ele>
        <time>2019-06-10T14:30:52.000Z</time>
      </trkpt>
      <trkpt lat="43.56702" lon="1.47179">
        <ele>197.31</ele>
        <time>2019-06-10T14:30:55.000Z</time>
      </trkpt>
      <trkpt lat="43.56713" lon="1.47179">
        <ele>197.55</ele>
        <time>2019-06-10T14:30:58.000Z</time>
      </trkpt>
      <trkpt lat="43.56725" lon="1.47178">
        <ele>197.65</ele>
        <time>2019-06-10T14:31:01.000Z</time>
      </trkpt>
      <trkpt lat="43.56737" lon="1.47178">
        <ele>197.78</ele>
        <time>2019-06-10T14:31:04.000Z</time>
      </trkpt>
      <trkpt lat="43.56748" lon="1.47176">
        <ele>197.93</ele>
        <time>2019-06-10T14:31:07.000Z</time>
      </trkpt>
      <trkpt lat="43.56759" lon="1.47175">
        <ele>198.01</ele>
        <time>2019-06-10T14:31:10.000Z</time>
      </trkpt>
      <trkpt lat="43.5677" lon="1.47175">
        <ele>198.04</ele>
        <time>2019-06-10T14:31:13.000Z</time>
      </trkpt>
      <trkpt lat="43.56783" lon="1.47175">
        <ele>198.08</ele>
        <time>2019-06-10T14:31:16.000Z</time>
      </trkpt>
      <trkpt lat="43.56793" lon="1.47174">
        <ele>198.21</ele>
        <time>2019-06-10T14:31:19.000Z</time>
      </trkpt>
      <trkpt lat="43.56804" lon="1.47173">
        <ele>198.43</ele>
        <time>2019-06-10T14:31:22.000Z</time>
      </trkpt>
      <trkpt lat="43.56817" lon="1.4717">
        <ele>198.86</ele>
        <time>2019-06-10T14:31:25.000Z</time>
      </trkpt>
      <trkpt lat="43.56829" lon="1.47168">
        <ele>199.37</ele>
        <time>2019-06-10T14:31:28.000Z</time>
      </trkpt>
      <trkpt lat="43.56838" lon="1.47167">
        <ele>201.09</ele>
        <time>2019-06-10T14:31:30.000Z</time>
      </trkpt>
      <trkpt lat="43.56849" lon="1.47164">
        <ele>203.06</ele>
        <time>2019-06-10T14:31:32.000Z</time>
      </trkpt>
      <trkpt lat="43.56861" lon="1.4716">
        <ele>203.87</ele>
        <time>2019-06-10T14:31:35.000Z</time>
      </trkpt>
      <trkpt lat="43.5687" lon="1.47153">
        <ele>203.98</ele>
        <time>2019-06-10T14:31:38.000Z</time>
      </trkpt>
      <trkpt lat="43.56878" lon="1.47144">
        <ele>203.88</ele>
        <time>2019-06-10T14:31:41.000Z</time>
      </trkpt>
      <trkpt lat="43.56887" lon="1.47135">
        <ele>203.6</ele>
        <time>2019-06-10T14:31:44.000Z</time>
      </trkpt>
      <trkpt lat="43.569" lon="1.47128">
        <ele>203.34</ele>
        <time>2019-06-10T14:31:47.000Z</time>
      </trkpt>
      <trkpt lat="43.5691" lon="1.4712">
        <ele>203.24</ele>
        <time>2019-06-10T14:31:50.000Z</time>
      </trkpt>
      <trkpt lat="43.56921" lon="1.47113">
        <ele>203.14</ele>
        <time>2019-06-10T14:31:53.000Z</time>
      </trkpt>
      <trkpt lat="43.56929" lon="1.47107">
        <ele>203.05</ele>
        <time>2019-06-10T14:31:56.000Z</time>
      </trkpt>
      <trkpt lat="43.56937" lon="1.47099">
        <ele>202.91</ele>
        <time>2019-06-10T14:31:59.000Z</time>
      </trkpt>
      <trkpt lat="43.56945" lon="1.47092">
        <ele>202.64</ele>
        <time>2019-06-10T14:32:02.000Z</time>
      </trkpt>
      <trkpt lat="43.56955" lon="1.47088">
        <ele>202.43</ele>
        <time>2019-06-10T14:32:04.000Z</time>
      </trkpt>
      <trkpt lat="43.56966" lon="1.4708">
        <ele>202.09</ele>
        <time>2019-06-10T14:32:07.000Z</time>
      </trkpt>
      <trkpt lat="43.56975" lon="1.47073">
        <ele>201.72</ele>
        <time>2019-06-10T14:32:10.000Z</time>
      </trkpt>
      <trkpt lat="43.56984" lon="1.47067">
        <ele>201.39</ele>
        <time>2019-06-10T14:32:13.000Z</time>
      </trkpt>
      <trkpt lat="43.56994" lon="1.4706">
        <ele>200.96</ele>
        <time>2019-06-10T14:32:17.000Z</time>
      </trkpt>
      <trkpt lat="43.57003" lon="1.47053">
        <ele>200.5</ele>
        <time>2019-06-10T14:32:21.000Z</time>
      </trkpt>
      <trkpt lat="43.5701" lon="1.47043">
        <ele>200.01</ele>
        <time>2019-06-10T14:32:25.000Z</time>
      </trkpt>
      <trkpt lat="43.57011" lon="1.47029">
        <ele>199.72</ele>
        <time>2019-06-10T14:32:29.000Z</time>
      </trkpt>
      <trkpt lat="43.57009" lon="1.47017">
        <ele>199.63</ele>
        <time>2019-06-10T14:32:34.000Z</time>
      </trkpt>
      <trkpt lat="43.57018" lon="1.47007">
        <ele>199.65</ele>
        <time>2019-06-10T14:32:41.000Z</time>
      </trkpt>
      <trkpt lat="43.57031" lon="1.46999">
        <ele>199.23</ele>
        <time>2019-06-10T14:32:44.000Z</time>
      </trkpt>
      <trkpt lat="43.57043" lon="1.46996">
        <ele>199.25</ele>
        <time>2019-06-10T14:32:46.000Z</time>
      </trkpt>
      <trkpt lat="43.57052" lon="1.46992">
        <ele>199.35</ele>
        <time>2019-06-10T14:32:48.000Z</time>
      </trkpt>
      <trkpt lat="43.57066" lon="1.46987">
        <ele>199.68</ele>
        <time>2019-06-10T14:32:51.000Z</time>
      </trkpt>
      <trkpt lat="43.57078" lon="1.46986">
        <ele>200.22</ele>
        <time>2019-06-10T14:32:54.000Z</time>
      </trkpt>
      <trkpt lat="43.57089" lon="1.46982">
        <ele>200.79</ele>
        <time>2019-06-10T14:32:57.000Z</time>
      </trkpt>
      <trkpt lat="43.57099" lon="1.4698">
        <ele>201.34</ele>
        <time>2019-06-10T14:33:00.000Z</time>
      </trkpt>
      <trkpt lat="43.57111" lon="1.4698">
        <ele>201.7</ele>
        <time>2019-06-10T14:33:03.000Z</time>
      </trkpt>
      <trkpt lat="43.57122" lon="1.4698">
        <ele>202.01</ele>
        <time>2019-06-10T14:33:06.000Z</time>
      </trkpt>
      <trkpt lat="43.57132" lon="1.46981">
        <ele>202.21</ele>
        <time>2019-06-10T14:33:09.000Z</time>
      </trkpt>
      <trkpt lat="43.57142" lon="1.46981">
        <ele>202.39</ele>
        <time>2019-06-10T14:33:11.000Z</time>
      </trkpt>
      <trkpt lat="43.57151" lon="1.46984">
        <ele>202.62</ele>
        <time>2019-06-10T14:33:13.000Z</time>
      </trkpt>
      <trkpt lat="43.57161" lon="1.46983">
        <ele>202.9</ele>
        <time>2019-06-10T14:33:16.000Z</time>
      </trkpt>
      <trkpt lat="43.57171" lon="1.46983">
        <ele>203.11</ele>
        <time>2019-06-10T14:33:19.000Z</time>
      </trkpt>
      <trkpt lat="43.57183" lon="1.46983">
        <ele>203.43</ele>
        <time>2019-06-10T14:33:23.000Z</time>
      </trkpt>
      <trkpt lat="43.57194" lon="1.46982">
        <ele>203.5</ele>
        <time>2019-06-10T14:33:26.000Z</time>
      </trkpt>
      <trkpt lat="43.57209" lon="1.46981">
        <ele>203.37</ele>
        <time>2019-06-10T14:33:29.000Z</time>
      </trkpt>
      <trkpt lat="43.57218" lon="1.46982">
        <ele>203.19</ele>
        <time>2019-06-10T14:33:31.000Z</time>
      </trkpt>
      <trkpt lat="43.57228" lon="1.46982">
        <ele>203.01</ele>
        <time>2019-06-10T14:33:33.000Z</time>
      </trkpt>
      <trkpt lat="43.57239" lon="1.46981">
        <ele>202.82</ele>
        <time>2019-06-10T14:33:36.000Z</time>
      </trkpt>
      <trkpt lat="43.5725" lon="1.46979">
        <ele>202.67</ele>
        <time>2019-06-10T14:33:39.000Z</time>
      </trkpt>
      <trkpt lat="43.57259" lon="1.46976">
        <ele>202.58</ele>
        <time>2019-06-10T14:33:41.000Z</time>
      </trkpt>
      <trkpt lat="43.57271" lon="1.46972">
        <ele>202.39</ele>
        <time>2019-06-10T14:33:43.000Z</time>
      </trkpt>
      <trkpt lat="43.57281" lon="1.46969">
        <ele>202.21</ele>
        <time>2019-06-10T14:33:45.000Z</time>
      </trkpt>
      <trkpt lat="43.57293" lon="1.46967">
        <ele>202.01</ele>
        <time>2019-06-10T14:33:48.000Z</time>
      </trkpt>
      <trkpt lat="43.57305" lon="1.46964">
        <ele>201.96</ele>
        <time>2019-06-10T14:33:51.000Z</time>
      </trkpt>
      <trkpt lat="43.57316" lon="1.4696">
        <ele>201.97</ele>
        <time>2019-06-10T14:33:54.000Z</time>
      </trkpt>
      <trkpt lat="43.57327" lon="1.46955">
        <ele>202.05</ele>
        <time>2019-06-10T14:33:57.000Z</time>
      </trkpt>
      <trkpt lat="43.57338" lon="1.4695">
        <ele>202.13</ele>
        <time>2019-06-10T14:34:00.000Z</time>
      </trkpt>
      <trkpt lat="43.57347" lon="1.46947">
        <ele>202.21</ele>
        <time>2019-06-10T14:34:02.000Z</time>
      </trkpt>
      <trkpt lat="43.5736" lon="1.46941">
        <ele>202.26</ele>
        <time>2019-06-10T14:34:05.000Z</time>
      </trkpt>
      <trkpt lat="43.57373" lon="1.46935">
        <ele>202.27</ele>
        <time>2019-06-10T14:34:08.000Z</time>
      </trkpt>
      <trkpt lat="43.57385" lon="1.46929">
        <ele>202.26</ele>
        <time>2019-06-10T14:34:11.000Z</time>
      </trkpt>
      <trkpt lat="43.57397" lon="1.46928">
        <ele>202.01</ele>
        <time>2019-06-10T14:34:14.000Z</time>
      </trkpt>
      <trkpt lat="43.5741" lon="1.4692">
        <ele>201.2</ele>
        <time>2019-06-10T14:34:16.000Z</time>
      </trkpt>
      <trkpt lat="43.5742" lon="1.46912">
        <ele>200.07</ele>
        <time>2019-06-10T14:34:18.000Z</time>
      </trkpt>
      <trkpt lat="43.5743" lon="1.46905">
        <ele>199</ele>
        <time>2019-06-10T14:34:20.000Z</time>
      </trkpt>
      <trkpt lat="43.57439" lon="1.46899">
        <ele>198.1</ele>
        <time>2019-06-10T14:34:22.000Z</time>
      </trkpt>
      <trkpt lat="43.57447" lon="1.46893">
        <ele>197.44</ele>
        <time>2019-06-10T14:34:24.000Z</time>
      </trkpt>
      <trkpt lat="43.57456" lon="1.46882">
        <ele>197.37</ele>
        <time>2019-06-10T14:34:27.000Z</time>
      </trkpt>
      <trkpt lat="43.57459" lon="1.46868">
        <ele>197.31</ele>
        <time>2019-06-10T14:34:31.000Z</time>
      </trkpt>
      <trkpt lat="43.57465" lon="1.46854">
        <ele>197.38</ele>
        <time>2019-06-10T14:34:35.000Z</time>
      </trkpt>
      <trkpt lat="43.57471" lon="1.46844">
        <ele>197.56</ele>
        <time>2019-06-10T14:34:38.000Z</time>
      </trkpt>
      <trkpt lat="43.57477" lon="1.46834">
        <ele>197.82</ele>
        <time>2019-06-10T14:34:41.000Z</time>
      </trkpt>
      <trkpt lat="43.57482" lon="1.46823">
        <ele>198.1</ele>
        <time>2019-06-10T14:34:44.000Z</time>
      </trkpt>
      <trkpt lat="43.57489" lon="1.46811">
        <ele>198.37</ele>
        <time>2019-06-10T14:34:47.000Z</time>
      </trkpt>
      <trkpt lat="43.57494" lon="1.46801">
        <ele>198.66</ele>
        <time>2019-06-10T14:34:50.000Z</time>
      </trkpt>
      <trkpt lat="43.57501" lon="1.46789">
        <ele>198.88</ele>
        <time>2019-06-10T14:34:53.000Z</time>
      </trkpt>
      <trkpt lat="43.57508" lon="1.46775">
        <ele>199.01</ele>
        <time>2019-06-10T14:34:56.000Z</time>
      </trkpt>
      <trkpt lat="43.57515" lon="1.46763">
        <ele>200.1</ele>
        <time>2019-06-10T14:34:59.000Z</time>
      </trkpt>
      <trkpt lat="43.57521" lon="1.46749">
        <ele>200.2</ele>
        <time>2019-06-10T14:35:02.000Z</time>
      </trkpt>
      <trkpt lat="43.57526" lon="1.46736">
        <ele>200.26</ele>
        <time>2019-06-10T14:35:05.000Z</time>
      </trkpt>
      <trkpt lat="43.57535" lon="1.46722">
        <ele>199.75</ele>
        <time>2019-06-10T14:35:08.000Z</time>
      </trkpt>
      <trkpt lat="43.57541" lon="1.46711">
        <ele>198.87</ele>
        <time>2019-06-10T14:35:10.000Z</time>
      </trkpt>
      <trkpt lat="43.57546" lon="1.46699">
        <ele>197.5</ele>
        <time>2019-06-10T14:35:12.000Z</time>
      </trkpt>
      <trkpt lat="43.57552" lon="1.46689">
        <ele>196.15</ele>
        <time>2019-06-10T14:35:14.000Z</time>
      </trkpt>
      <trkpt lat="43.57561" lon="1.46675">
        <ele>194.79</ele>
        <time>2019-06-10T14:35:17.000Z</time>
      </trkpt>
      <trkpt lat="43.5757" lon="1.46663">
        <ele>194.15</ele>
        <time>2019-06-10T14:35:20.000Z</time>
      </trkpt>
      <trkpt lat="43.5758" lon="1.46652">
        <ele>193.88</ele>
        <time>2019-06-10T14:35:23.000Z</time>
      </trkpt>
      <trkpt lat="43.57589" lon="1.46643">
        <ele>193.86</ele>
        <time>2019-06-10T14:35:26.000Z</time>
      </trkpt>
      <trkpt lat="43.57596" lon="1.46633">
        <ele>193.78</ele>
        <time>2019-06-10T14:35:29.000Z</time>
      </trkpt>
      <trkpt lat="43.57604" lon="1.46624">
        <ele>193.63</ele>
        <time>2019-06-10T14:35:32.000Z</time>
      </trkpt>
      <trkpt lat="43.57614" lon="1.46615">
        <ele>193.49</ele>
        <time>2019-06-10T14:35:35.000Z</time>
      </trkpt>
      <trkpt lat="43.57625" lon="1.46608">
        <ele>193.41</ele>
        <time>2019-06-10T14:35:38.000Z</time>
      </trkpt>
      <trkpt lat="43.57635" lon="1.46602">
        <ele>193.37</ele>
        <time>2019-06-10T14:35:41.000Z</time>
      </trkpt>
      <trkpt lat="43.57645" lon="1.46597">
        <ele>193.38</ele>
        <time>2019-06-10T14:35:44.000Z</time>
      </trkpt>
      <trkpt lat="43.57657" lon="1.46593">
        <ele>193.45</ele>
        <time>2019-06-10T14:35:47.000Z</time>
      </trkpt>
      <trkpt lat="43.57669" lon="1.46589">
        <ele>193.53</ele>
        <time>2019-06-10T14:35:50.000Z</time>
      </trkpt>
      <trkpt lat="43.5768" lon="1.46586">
        <ele>193.59</ele>
        <time>2019-06-10T14:35:53.000Z</time>
      </trkpt>
      <trkpt lat="43.5769" lon="1.46584">
        <ele>193.72</ele>
        <time>2019-06-10T14:35:56.000Z</time>
      </trkpt>
      <trkpt lat="43.57701" lon="1.46583">
        <ele>193.93</ele>
        <time>2019-06-10T14:35:59.000Z</time>
      </trkpt>
      <trkpt lat="43.57712" lon="1.46582">
        <ele>194.26</ele>
        <time>2019-06-10T14:36:02.000Z</time>
      </trkpt>
      <trkpt lat="43.57723" lon="1.46584">
        <ele>194.7</ele>
        <time>2019-06-10T14:36:05.000Z</time>
      </trkpt>
      <trkpt lat="43.57735" lon="1.46584">
        <ele>195.2</ele>
        <time>2019-06-10T14:36:08.000Z</time>
      </trkpt>
      <trkpt lat="43.57747" lon="1.46584">
        <ele>195.81</ele>
        <time>2019-06-10T14:36:11.000Z</time>
      </trkpt>
      <trkpt lat="43.57756" lon="1.46584">
        <ele>196.21</ele>
        <time>2019-06-10T14:36:13.000Z</time>
      </trkpt>
      <trkpt lat="43.57767" lon="1.46581">
        <ele>197.83</ele>
        <time>2019-06-10T14:36:16.000Z</time>
      </trkpt>
      <trkpt lat="43.57777" lon="1.46578">
        <ele>197.86</ele>
        <time>2019-06-10T14:36:19.000Z</time>
      </trkpt>
      <trkpt lat="43.57788" lon="1.46576">
        <ele>197.68</ele>
        <time>2019-06-10T14:36:22.000Z</time>
      </trkpt>
      <trkpt lat="43.578" lon="1.46574">
        <ele>197.41</ele>
        <time>2019-06-10T14:36:25.000Z</time>
      </trkpt>
      <trkpt lat="43.57808" lon="1.46571">
        <ele>197.22</ele>
        <time>2019-06-10T14:36:27.000Z</time>
      </trkpt>
      <trkpt lat="43.57821" lon="1.46565">
        <ele>196.84</ele>
        <time>2019-06-10T14:36:30.000Z</time>
      </trkpt>
      <trkpt lat="43.5783" lon="1.46565">
        <ele>196.78</ele>
        <time>2019-06-10T14:36:31.000Z</time>
      </trkpt>
      <trkpt lat="43.57842" lon="1.46562">
        <ele>196.64</ele>
        <time>2019-06-10T14:36:34.000Z</time>
      </trkpt>
      <trkpt lat="43.57851" lon="1.46558">
        <ele>196.56</ele>
        <time>2019-06-10T14:36:37.000Z</time>
      </trkpt>
      <trkpt lat="43.57866" lon="1.46554">
        <ele>196.49</ele>
        <time>2019-06-10T14:36:40.000Z</time>
      </trkpt>
      <trkpt lat="43.57875" lon="1.4655">
        <ele>196.51</ele>
        <time>2019-06-10T14:36:42.000Z</time>
      </trkpt>
      <trkpt lat="43.57885" lon="1.46546">
        <ele>196.5</ele>
        <time>2019-06-10T14:36:44.000Z</time>
      </trkpt>
      <trkpt lat="43.57894" lon="1.46543">
        <ele>196.51</ele>
        <time>2019-06-10T14:36:46.000Z</time>
      </trkpt>
      <trkpt lat="43.57907" lon="1.46537">
        <ele>196.57</ele>
        <time>2019-06-10T14:36:49.000Z</time>
      </trkpt>
      <trkpt lat="43.57918" lon="1.46532">
        <ele>196.83</ele>
        <time>2019-06-10T14:36:53.000Z</time>
      </trkpt>
      <trkpt lat="43.57927" lon="1.46527">
        <ele>197.1</ele>
        <time>2019-06-10T14:36:56.000Z</time>
      </trkpt>
      <trkpt lat="43.57936" lon="1.46519">
        <ele>197.24</ele>
        <time>2019-06-10T14:36:59.000Z</time>
      </trkpt>
      <trkpt lat="43.57945" lon="1.46513">
        <ele>197.33</ele>
        <time>2019-06-10T14:37:01.000Z</time>
      </trkpt>
      <trkpt lat="43.57954" lon="1.46507">
        <ele>197.43</ele>
        <time>2019-06-10T14:37:03.000Z</time>
      </trkpt>
      <trkpt lat="43.57962" lon="1.465">
        <ele>197.55</ele>
        <time>2019-06-10T14:37:05.000Z</time>
      </trkpt>
      <trkpt lat="43.57969" lon="1.46492">
        <ele>197.68</ele>
        <time>2019-06-10T14:37:07.000Z</time>
      </trkpt>
      <trkpt lat="43.57979" lon="1.46482">
        <ele>197.88</ele>
        <time>2019-06-10T14:37:10.000Z</time>
      </trkpt>
      <trkpt lat="43.57987" lon="1.46473">
        <ele>198.02</ele>
        <time>2019-06-10T14:37:13.000Z</time>
      </trkpt>
      <trkpt lat="43.57996" lon="1.46463">
        <ele>198.15</ele>
        <time>2019-06-10T14:37:16.000Z</time>
      </trkpt>
      <trkpt lat="43.58005" lon="1.46453">
        <ele>198.26</ele>
        <time>2019-06-10T14:37:19.000Z</time>
      </trkpt>
      <trkpt lat="43.58014" lon="1.46443">
        <ele>198.31</ele>
        <time>2019-06-10T14:37:22.000Z</time>
      </trkpt>
      <trkpt lat="43.58023" lon="1.4643">
        <ele>198.33</ele>
        <time>2019-06-10T14:37:25.000Z</time>
      </trkpt>
      <trkpt lat="43.5803" lon="1.46422">
        <ele>198.35</ele>
        <time>2019-06-10T14:37:27.000Z</time>
      </trkpt>
      <trkpt lat="43.5804" lon="1.46412">
        <ele>198.72</ele>
        <time>2019-06-10T14:37:30.000Z</time>
      </trkpt>
      <trkpt lat="43.58048" lon="1.46402">
        <ele>198.8</ele>
        <time>2019-06-10T14:37:33.000Z</time>
      </trkpt>
      <trkpt lat="43.58056" lon="1.46394">
        <ele>198.81</ele>
        <time>2019-06-10T14:37:36.000Z</time>
      </trkpt>
      <trkpt lat="43.58064" lon="1.46386">
        <ele>198.78</ele>
        <time>2019-06-10T14:37:39.000Z</time>
      </trkpt>
      <trkpt lat="43.58072" lon="1.46377">
        <ele>198.75</ele>
        <time>2019-06-10T14:37:42.000Z</time>
      </trkpt>
      <trkpt lat="43.58081" lon="1.46366">
        <ele>198.61</ele>
        <time>2019-06-10T14:37:45.000Z</time>
      </trkpt>
      <trkpt lat="43.58091" lon="1.46353">
        <ele>198.32</ele>
        <time>2019-06-10T14:37:48.000Z</time>
      </trkpt>
      <trkpt lat="43.58099" lon="1.46344">
        <ele>196.26</ele>
        <time>2019-06-10T14:37:50.000Z</time>
      </trkpt>
      <trkpt lat="43.58107" lon="1.46334">
        <ele>195.29</ele>
        <time>2019-06-10T14:37:52.000Z</time>
      </trkpt>
      <trkpt lat="43.58114" lon="1.46326">
        <ele>194.01</ele>
        <time>2019-06-10T14:37:54.000Z</time>
      </trkpt>
      <trkpt lat="43.58125" lon="1.46317">
        <ele>193.36</ele>
        <time>2019-06-10T14:37:57.000Z</time>
      </trkpt>
      <trkpt lat="43.58135" lon="1.46305">
        <ele>193.34</ele>
        <time>2019-06-10T14:38:00.000Z</time>
      </trkpt>
      <trkpt lat="43.58145" lon="1.46301">
        <ele>193.4</ele>
        <time>2019-06-10T14:38:03.000Z</time>
      </trkpt>
      <trkpt lat="43.58155" lon="1.46301">
        <ele>193.57</ele>
        <time>2019-06-10T14:38:06.000Z</time>
      </trkpt>
      <trkpt lat="43.58164" lon="1.46298">
        <ele>193.91</ele>
        <time>2019-06-10T14:38:09.000Z</time>
      </trkpt>
      <trkpt lat="43.58174" lon="1.46289">
        <ele>194.24</ele>
        <time>2019-06-10T14:38:12.000Z</time>
      </trkpt>
      <trkpt lat="43.58187" lon="1.46282">
        <ele>195.6</ele>
        <time>2019-06-10T14:38:14.000Z</time>
      </trkpt>
      <trkpt lat="43.58196" lon="1.46275">
        <ele>195.69</ele>
        <time>2019-06-10T14:38:16.000Z</time>
      </trkpt>
      <trkpt lat="43.58205" lon="1.46272">
        <ele>195.82</ele>
        <time>2019-06-10T14:38:18.000Z</time>
      </trkpt>
      <trkpt lat="43.58217" lon="1.46265">
        <ele>195.96</ele>
        <time>2019-06-10T14:38:21.000Z</time>
      </trkpt>
      <trkpt lat="43.58227" lon="1.46258">
        <ele>195.95</ele>
        <time>2019-06-10T14:38:24.000Z</time>
      </trkpt>
      <trkpt lat="43.58239" lon="1.46251">
        <ele>195.86</ele>
        <time>2019-06-10T14:38:27.000Z</time>
      </trkpt>
      <trkpt lat="43.58249" lon="1.46245">
        <ele>195.78</ele>
        <time>2019-06-10T14:38:30.000Z</time>
      </trkpt>
      <trkpt lat="43.58258" lon="1.46239">
        <ele>195.85</ele>
        <time>2019-06-10T14:38:33.000Z</time>
      </trkpt>
      <trkpt lat="43.58271" lon="1.46233">
        <ele>195.9</ele>
        <time>2019-06-10T14:38:36.000Z</time>
      </trkpt>
      <trkpt lat="43.5828" lon="1.46229">
        <ele>195.99</ele>
        <time>2019-06-10T14:38:38.000Z</time>
      </trkpt>
      <trkpt lat="43.58291" lon="1.46223">
        <ele>196.19</ele>
        <time>2019-06-10T14:38:41.000Z</time>
      </trkpt>
      <trkpt lat="43.58301" lon="1.46218">
        <ele>196.37</ele>
        <time>2019-06-10T14:38:44.000Z</time>
      </trkpt>
      <trkpt lat="43.5831" lon="1.46213">
        <ele>196.55</ele>
        <time>2019-06-10T14:38:47.000Z</time>
      </trkpt>
      <trkpt lat="43.58319" lon="1.46206">
        <ele>196.7</ele>
        <time>2019-06-10T14:38:50.000Z</time>
      </trkpt>
      <trkpt lat="43.58331" lon="1.462">
        <ele>196.82</ele>
        <time>2019-06-10T14:38:53.000Z</time>
      </trkpt>
      <trkpt lat="43.58342" lon="1.46195">
        <ele>196.97</ele>
        <time>2019-06-10T14:38:56.000Z</time>
      </trkpt>
      <trkpt lat="43.58354" lon="1.4619">
        <ele>197.09</ele>
        <time>2019-06-10T14:38:59.000Z</time>
      </trkpt>
      <trkpt lat="43.58365" lon="1.46183">
        <ele>197.28</ele>
        <time>2019-06-10T14:39:02.000Z</time>
      </trkpt>
      <trkpt lat="43.58377" lon="1.46179">
        <ele>197.43</ele>
        <time>2019-06-10T14:39:05.000Z</time>
      </trkpt>
      <trkpt lat="43.58388" lon="1.46173">
        <ele>197.56</ele>
        <time>2019-06-10T14:39:08.000Z</time>
      </trkpt>
      <trkpt lat="43.58398" lon="1.46168">
        <ele>197.67</ele>
        <time>2019-06-10T14:39:11.000Z</time>
      </trkpt>
      <trkpt lat="43.58407" lon="1.46164">
        <ele>197.79</ele>
        <time>2019-06-10T14:39:14.000Z</time>
      </trkpt>
      <trkpt lat="43.58419" lon="1.46158">
        <ele>197.88</ele>
        <time>2019-06-10T14:39:17.000Z</time>
      </trkpt>
      <trkpt lat="43.58431" lon="1.46153">
        <ele>197.98</ele>
        <time>2019-06-10T14:39:20.000Z</time>
      </trkpt>
      <trkpt lat="43.5844" lon="1.46149">
        <ele>198.14</ele>
        <time>2019-06-10T14:39:23.000Z</time>
      </trkpt>
      <trkpt lat="43.58449" lon="1.46146">
        <ele>198.32</ele>
        <time>2019-06-10T14:39:26.000Z</time>
      </trkpt>
      <trkpt lat="43.5846" lon="1.46141">
        <ele>198.44</ele>
        <time>2019-06-10T14:39:29.000Z</time>
      </trkpt>
      <trkpt lat="43.58471" lon="1.46135">
        <ele>198.59</ele>
        <time>2019-06-10T14:39:32.000Z</time>
      </trkpt>
      <trkpt lat="43.5848" lon="1.46132">
        <ele>198.8</ele>
        <time>2019-06-10T14:39:35.000Z</time>
      </trkpt>
      <trkpt lat="43.58489" lon="1.46128">
        <ele>198.94</ele>
        <time>2019-06-10T14:39:38.000Z</time>
      </trkpt>
      <trkpt lat="43.58499" lon="1.46125">
        <ele>199.04</ele>
        <time>2019-06-10T14:39:41.000Z</time>
      </trkpt>
      <trkpt lat="43.58508" lon="1.46121">
        <ele>199.09</ele>
        <time>2019-06-10T14:39:44.000Z</time>
      </trkpt>
      <trkpt lat="43.58518" lon="1.46118">
        <ele>199.19</ele>
        <time>2019-06-10T14:39:47.000Z</time>
      </trkpt>
      <trkpt lat="43.58526" lon="1.46115">
        <ele>199.3</ele>
        <time>2019-06-10T14:39:50.000Z</time>
      </trkpt>
      <trkpt lat="43.58537" lon="1.46111">
        <ele>199.27</ele>
        <time>2019-06-10T14:39:53.000Z</time>
      </trkpt>
      <trkpt lat="43.58547" lon="1.46107">
        <ele>199.16</ele>
        <time>2019-06-10T14:39:56.000Z</time>
      </trkpt>
      <trkpt lat="43.58557" lon="1.46102">
        <ele>198.94</ele>
        <time>2019-06-10T14:40:00.000Z</time>
      </trkpt>
      <trkpt lat="43.58566" lon="1.46099">
        <ele>198.66</ele>
        <time>2019-06-10T14:40:03.000Z</time>
      </trkpt>
      <trkpt lat="43.58574" lon="1.46095">
        <ele>198.39</ele>
        <time>2019-06-10T14:40:06.000Z</time>
      </trkpt>
      <trkpt lat="43.58585" lon="1.46091">
        <ele>198.18</ele>
        <time>2019-06-10T14:40:09.000Z</time>
      </trkpt>
      <trkpt lat="43.58596" lon="1.46087">
        <ele>197.95</ele>
        <time>2019-06-10T14:40:12.000Z</time>
      </trkpt>
      <trkpt lat="43.58609" lon="1.46081">
        <ele>197.83</ele>
        <time>2019-06-10T14:40:15.000Z</time>
      </trkpt>
      <trkpt lat="43.58618" lon="1.46078">
        <ele>197.84</ele>
        <time>2019-06-10T14:40:17.000Z</time>
      </trkpt>
      <trkpt lat="43.5863" lon="1.46073">
        <ele>197.95</ele>
        <time>2019-06-10T14:40:20.000Z</time>
      </trkpt>
      <trkpt lat="43.58641" lon="1.4607">
        <ele>198.14</ele>
        <time>2019-06-10T14:40:23.000Z</time>
      </trkpt>
      <trkpt lat="43.5865" lon="1.46067">
        <ele>198.24</ele>
        <time>2019-06-10T14:40:26.000Z</time>
      </trkpt>
      <trkpt lat="43.58661" lon="1.4606">
        <ele>198.25</ele>
        <time>2019-06-10T14:40:29.000Z</time>
      </trkpt>
      <trkpt lat="43.58671" lon="1.46058">
        <ele>198.22</ele>
        <time>2019-06-10T14:40:32.000Z</time>
      </trkpt>
      <trkpt lat="43.58683" lon="1.46056">
        <ele>198.27</ele>
        <time>2019-06-10T14:40:35.000Z</time>
      </trkpt>
      <trkpt lat="43.58693" lon="1.46051">
        <ele>198.3</ele>
        <time>2019-06-10T14:40:38.000Z</time>
      </trkpt>
      <trkpt lat="43.58702" lon="1.46046">
        <ele>198.12</ele>
        <time>2019-06-10T14:40:42.000Z</time>
      </trkpt>
      <trkpt lat="43.58711" lon="1.46043">
        <ele>197.82</ele>
        <time>2019-06-10T14:40:47.000Z</time>
      </trkpt>
      <trkpt lat="43.5872" lon="1.46042">
        <ele>198.65</ele>
        <time>2019-06-10T14:41:03.000Z</time>
      </trkpt>
      <trkpt lat="43.5873" lon="1.46041">
        <ele>199.26</ele>
        <time>2019-06-10T14:44:43.000Z</time>
      </trkpt>
      <trkpt lat="43.58741" lon="1.46039">
        <ele>199.64</ele>
        <time>2019-06-10T14:44:46.000Z</time>
      </trkpt>
      <trkpt lat="43.58754" lon="1.46037">
        <ele>199.87</ele>
        <time>2019-06-10T14:44:49.000Z</time>
      </trkpt>
      <trkpt lat="43.58764" lon="1.46035">
        <ele>199.43</ele>
        <time>2019-06-10T14:44:51.000Z</time>
      </trkpt>
      <trkpt lat="43.58774" lon="1.46035">
        <ele>198.84</ele>
        <time>2019-06-10T14:44:53.000Z</time>
      </trkpt>
      <trkpt lat="43.58784" lon="1.46036">
        <ele>198.59</ele>
        <time>2019-06-10T14:44:55.000Z</time>
      </trkpt>
      <trkpt lat="43.58795" lon="1.46033">
        <ele>198.4</ele>
        <time>2019-06-10T14:44:59.000Z</time>
      </trkpt>
      <trkpt lat="43.58803" lon="1.46026">
        <ele>198.21</ele>
        <time>2019-06-10T14:45:02.000Z</time>
      </trkpt>
      <trkpt lat="43.58813" lon="1.4602">
        <ele>197.86</ele>
        <time>2019-06-10T14:45:05.000Z</time>
      </trkpt>
      <trkpt lat="43.58822" lon="1.46019">
        <ele>197.64</ele>
        <time>2019-06-10T14:45:07.000Z</time>
      </trkpt>
      <trkpt lat="43.58831" lon="1.46016">
        <ele>197.47</ele>
        <time>2019-06-10T14:45:09.000Z</time>
      </trkpt>
      <trkpt lat="43.58843" lon="1.46014">
        <ele>196.71</ele>
        <time>2019-06-10T14:45:12.000Z</time>
      </trkpt>
      <trkpt lat="43.58855" lon="1.46013">
        <ele>196.57</ele>
        <time>2019-06-10T14:45:15.000Z</time>
      </trkpt>
      <trkpt lat="43.58867" lon="1.4601">
        <ele>196.07</ele>
        <time>2019-06-10T14:45:18.000Z</time>
      </trkpt>
      <trkpt lat="43.58879" lon="1.46005">
        <ele>196.28</ele>
        <time>2019-06-10T14:45:21.000Z</time>
      </trkpt>
      <trkpt lat="43.58888" lon="1.46003">
        <ele>197.41</ele>
        <time>2019-06-10T14:45:23.000Z</time>
      </trkpt>
      <trkpt lat="43.58901" lon="1.46">
        <ele>199.1</ele>
        <time>2019-06-10T14:45:26.000Z</time>
      </trkpt>
      <trkpt lat="43.58914" lon="1.45999">
        <ele>200.8</ele>
        <time>2019-06-10T14:45:29.000Z</time>
      </trkpt>
      <trkpt lat="43.58924" lon="1.46">
        <ele>201.14</ele>
        <time>2019-06-10T14:45:31.000Z</time>
      </trkpt>
      <trkpt lat="43.58934" lon="1.45997">
        <ele>201.06</ele>
        <time>2019-06-10T14:45:33.000Z</time>
      </trkpt>
      <trkpt lat="43.58945" lon="1.45994">
        <ele>201.07</ele>
        <time>2019-06-10T14:45:36.000Z</time>
      </trkpt>
      <trkpt lat="43.58957" lon="1.45991">
        <ele>201.18</ele>
        <time>2019-06-10T14:45:39.000Z</time>
      </trkpt>
      <trkpt lat="43.58966" lon="1.45989">
        <ele>201.09</ele>
        <time>2019-06-10T14:45:41.000Z</time>
      </trkpt>
      <trkpt lat="43.58979" lon="1.45988">
        <ele>201.09</ele>
        <time>2019-06-10T14:45:44.000Z</time>
      </trkpt>
      <trkpt lat="43.58991" lon="1.45987">
        <ele>201.17</ele>
        <time>2019-06-10T14:45:47.000Z</time>
      </trkpt>
      <trkpt lat="43.59004" lon="1.45985">
        <ele>201.25</ele>
        <time>2019-06-10T14:45:50.000Z</time>
      </trkpt>
      <trkpt lat="43.59017" lon="1.45984">
        <ele>201.47</ele>
        <time>2019-06-10T14:45:53.000Z</time>
      </trkpt>
      <trkpt lat="43.59026" lon="1.45983">
        <ele>201.6</ele>
        <time>2019-06-10T14:45:55.000Z</time>
      </trkpt>
      <trkpt lat="43.59036" lon="1.4598">
        <ele>202.47</ele>
        <time>2019-06-10T14:45:57.000Z</time>
      </trkpt>
      <trkpt lat="43.59044" lon="1.45978">
        <ele>202.47</ele>
        <time>2019-06-10T14:45:59.000Z</time>
      </trkpt>
      <trkpt lat="43.59056" lon="1.45974">
        <ele>202.52</ele>
        <time>2019-06-10T14:46:02.000Z</time>
      </trkpt>
      <trkpt lat="43.59065" lon="1.4597">
        <ele>202.61</ele>
        <time>2019-06-10T14:46:05.000Z</time>
      </trkpt>
      <trkpt lat="43.59075" lon="1.4597">
        <ele>202.67</ele>
        <time>2019-06-10T14:46:08.000Z</time>
      </trkpt>
      <trkpt lat="43.59088" lon="1.45962">
        <ele>203.13</ele>
        <time>2019-06-10T14:46:11.000Z</time>
      </trkpt>
      <trkpt lat="43.591" lon="1.45958">
        <ele>202.31</ele>
        <time>2019-06-10T14:46:13.000Z</time>
      </trkpt>
      <trkpt lat="43.59112" lon="1.45958">
        <ele>201.8</ele>
        <time>2019-06-10T14:46:15.000Z</time>
      </trkpt>
      <trkpt lat="43.59119" lon="1.45949">
        <ele>201.62</ele>
        <time>2019-06-10T14:46:17.000Z</time>
      </trkpt>
      <trkpt lat="43.59128" lon="1.45942">
        <ele>201.49</ele>
        <time>2019-06-10T14:46:20.000Z</time>
      </trkpt>
      <trkpt lat="43.59137" lon="1.4593">
        <ele>199.85</ele>
        <time>2019-06-10T14:46:22.000Z</time>
      </trkpt>
      <trkpt lat="43.59145" lon="1.45922">
        <ele>199.69</ele>
        <time>2019-06-10T14:46:24.000Z</time>
      </trkpt>
      <trkpt lat="43.59152" lon="1.45914">
        <ele>199.53</ele>
        <time>2019-06-10T14:46:26.000Z</time>
      </trkpt>
      <trkpt lat="43.59162" lon="1.45901">
        <ele>199.28</ele>
        <time>2019-06-10T14:46:29.000Z</time>
      </trkpt>
      <trkpt lat="43.59168" lon="1.45892">
        <ele>198.09</ele>
        <time>2019-06-10T14:46:31.000Z</time>
      </trkpt>
      <trkpt lat="43.59179" lon="1.45881">
        <ele>197.67</ele>
        <time>2019-06-10T14:46:34.000Z</time>
      </trkpt>
      <trkpt lat="43.59186" lon="1.45873">
        <ele>197.85</ele>
        <time>2019-06-10T14:46:36.000Z</time>
      </trkpt>
      <trkpt lat="43.59197" lon="1.45863">
        <ele>198.05</ele>
        <time>2019-06-10T14:46:39.000Z</time>
      </trkpt>
      <trkpt lat="43.59206" lon="1.45854">
        <ele>198.14</ele>
        <time>2019-06-10T14:46:42.000Z</time>
      </trkpt>
      <trkpt lat="43.59213" lon="1.45846">
        <ele>198.21</ele>
        <time>2019-06-10T14:46:44.000Z</time>
      </trkpt>
      <trkpt lat="43.59222" lon="1.45839">
        <ele>198.34</ele>
        <time>2019-06-10T14:46:47.000Z</time>
      </trkpt>
      <trkpt lat="43.59232" lon="1.45828">
        <ele>198.48</ele>
        <time>2019-06-10T14:46:50.000Z</time>
      </trkpt>
      <trkpt lat="43.59239" lon="1.4582">
        <ele>198.53</ele>
        <time>2019-06-10T14:46:52.000Z</time>
      </trkpt>
      <trkpt lat="43.5925" lon="1.45811">
        <ele>199.02</ele>
        <time>2019-06-10T14:46:55.000Z</time>
      </trkpt>
      <trkpt lat="43.59261" lon="1.45801">
        <ele>199.08</ele>
        <time>2019-06-10T14:46:58.000Z</time>
      </trkpt>
      <trkpt lat="43.59269" lon="1.45793">
        <ele>199.12</ele>
        <time>2019-06-10T14:47:01.000Z</time>
      </trkpt>
      <trkpt lat="43.59277" lon="1.45784">
        <ele>199.15</ele>
        <time>2019-06-10T14:47:03.000Z</time>
      </trkpt>
      <trkpt lat="43.59286" lon="1.45777">
        <ele>199.12</ele>
        <time>2019-06-10T14:47:05.000Z</time>
      </trkpt>
      <trkpt lat="43.59296" lon="1.45767">
        <ele>199.17</ele>
        <time>2019-06-10T14:47:08.000Z</time>
      </trkpt>
      <trkpt lat="43.59304" lon="1.4576">
        <ele>199.19</ele>
        <time>2019-06-10T14:47:11.000Z</time>
      </trkpt>
      <trkpt lat="43.59315" lon="1.45752">
        <ele>199.47</ele>
        <time>2019-06-10T14:47:14.000Z</time>
      </trkpt>
      <trkpt lat="43.59324" lon="1.45743">
        <ele>199.66</ele>
        <time>2019-06-10T14:47:16.000Z</time>
      </trkpt>
      <trkpt lat="43.5933" lon="1.45735">
        <ele>199.67</ele>
        <time>2019-06-10T14:47:18.000Z</time>
      </trkpt>
      <trkpt lat="43.59336" lon="1.45721">
        <ele>199.9</ele>
        <time>2019-06-10T14:47:20.000Z</time>
      </trkpt>
      <trkpt lat="43.59344" lon="1.45711">
        <ele>200.03</ele>
        <time>2019-06-10T14:47:22.000Z</time>
      </trkpt>
      <trkpt lat="43.59354" lon="1.457">
        <ele>200.16</ele>
        <time>2019-06-10T14:47:25.000Z</time>
      </trkpt>
      <trkpt lat="43.59365" lon="1.4569">
        <ele>200.28</ele>
        <time>2019-06-10T14:47:28.000Z</time>
      </trkpt>
      <trkpt lat="43.59374" lon="1.45683">
        <ele>200.32</ele>
        <time>2019-06-10T14:47:31.000Z</time>
      </trkpt>
      <trkpt lat="43.59383" lon="1.45672">
        <ele>200.27</ele>
        <time>2019-06-10T14:47:34.000Z</time>
      </trkpt>
      <trkpt lat="43.59391" lon="1.45662">
        <ele>200.14</ele>
        <time>2019-06-10T14:47:37.000Z</time>
      </trkpt>
      <trkpt lat="43.59401" lon="1.45652">
        <ele>199.94</ele>
        <time>2019-06-10T14:47:40.000Z</time>
      </trkpt>
      <trkpt lat="43.59407" lon="1.45641">
        <ele>199.74</ele>
        <time>2019-06-10T14:47:43.000Z</time>
      </trkpt>
      <trkpt lat="43.5941" lon="1.45629">
        <ele>199.61</ele>
        <time>2019-06-10T14:47:45.000Z</time>
      </trkpt>
      <trkpt lat="43.59418" lon="1.45617">
        <ele>199.44</ele>
        <time>2019-06-10T14:47:48.000Z</time>
      </trkpt>
      <trkpt lat="43.59427" lon="1.45611">
        <ele>199.31</ele>
        <time>2019-06-10T14:47:50.000Z</time>
      </trkpt>
      <trkpt lat="43.59435" lon="1.45607">
        <ele>198.39</ele>
        <time>2019-06-10T14:47:52.000Z</time>
      </trkpt>
      <trkpt lat="43.59449" lon="1.45601">
        <ele>197.61</ele>
        <time>2019-06-10T14:47:55.000Z</time>
      </trkpt>
      <trkpt lat="43.59457" lon="1.45597">
        <ele>196.83</ele>
        <time>2019-06-10T14:47:57.000Z</time>
      </trkpt>
      <trkpt lat="43.59466" lon="1.45592">
        <ele>195.99</ele>
        <time>2019-06-10T14:47:59.000Z</time>
      </trkpt>
      <trkpt lat="43.59477" lon="1.45586">
        <ele>195.72</ele>
        <time>2019-06-10T14:48:02.000Z</time>
      </trkpt>
      <trkpt lat="43.59488" lon="1.45583">
        <ele>195.78</ele>
        <time>2019-06-10T14:48:05.000Z</time>
      </trkpt>
      <trkpt lat="43.595" lon="1.45579">
        <ele>195.99</ele>
        <time>2019-06-10T14:48:08.000Z</time>
      </trkpt>
      <trkpt lat="43.59512" lon="1.45574">
        <ele>198.23</ele>
        <time>2019-06-10T14:48:11.000Z</time>
      </trkpt>
      <trkpt lat="43.59521" lon="1.4557">
        <ele>199.31</ele>
        <time>2019-06-10T14:48:13.000Z</time>
      </trkpt>
      <trkpt lat="43.59535" lon="1.45571">
        <ele>200.78</ele>
        <time>2019-06-10T14:48:16.000Z</time>
      </trkpt>
      <trkpt lat="43.59546" lon="1.45575">
        <ele>200.97</ele>
        <time>2019-06-10T14:48:19.000Z</time>
      </trkpt>
      <trkpt lat="43.59559" lon="1.45573">
        <ele>201.56</ele>
        <time>2019-06-10T14:48:22.000Z</time>
      </trkpt>
      <trkpt lat="43.59568" lon="1.45573">
        <ele>201.58</ele>
        <time>2019-06-10T14:48:24.000Z</time>
      </trkpt>
      <trkpt lat="43.59582" lon="1.4557">
        <ele>201.55</ele>
        <time>2019-06-10T14:48:27.000Z</time>
      </trkpt>
      <trkpt lat="43.59591" lon="1.45569">
        <ele>201.73</ele>
        <time>2019-06-10T14:48:29.000Z</time>
      </trkpt>
      <trkpt lat="43.59604" lon="1.45568">
        <ele>202.38</ele>
        <time>2019-06-10T14:48:32.000Z</time>
      </trkpt>
      <trkpt lat="43.59614" lon="1.4557">
        <ele>202.61</ele>
        <time>2019-06-10T14:48:34.000Z</time>
      </trkpt>
      <trkpt lat="43.59628" lon="1.45573">
        <ele>202.69</ele>
        <time>2019-06-10T14:48:37.000Z</time>
      </trkpt>
      <trkpt lat="43.59637" lon="1.45575">
        <ele>202.7</ele>
        <time>2019-06-10T14:48:39.000Z</time>
      </trkpt>
      <trkpt lat="43.59651" lon="1.45577">
        <ele>202.61</ele>
        <time>2019-06-10T14:48:42.000Z</time>
      </trkpt>
      <trkpt lat="43.5966" lon="1.45579">
        <ele>202.47</ele>
        <time>2019-06-10T14:48:44.000Z</time>
      </trkpt>
      <trkpt lat="43.59669" lon="1.4558">
        <ele>202.23</ele>
        <time>2019-06-10T14:48:46.000Z</time>
      </trkpt>
      <trkpt lat="43.59681" lon="1.45584">
        <ele>201.82</ele>
        <time>2019-06-10T14:48:49.000Z</time>
      </trkpt>
      <trkpt lat="43.59689" lon="1.45592">
        <ele>201.43</ele>
        <time>2019-06-10T14:48:51.000Z</time>
      </trkpt>
      <trkpt lat="43.59698" lon="1.45597">
        <ele>201.08</ele>
        <time>2019-06-10T14:48:53.000Z</time>
      </trkpt>
      <trkpt lat="43.59707" lon="1.45602">
        <ele>200.78</ele>
        <time>2019-06-10T14:48:55.000Z</time>
      </trkpt>
      <trkpt lat="43.59716" lon="1.45606">
        <ele>200.56</ele>
        <time>2019-06-10T14:48:57.000Z</time>
      </trkpt>
      <trkpt lat="43.59726" lon="1.45606">
        <ele>200.42</ele>
        <time>2019-06-10T14:48:59.000Z</time>
      </trkpt>
      <trkpt lat="43.59739" lon="1.45609">
        <ele>200.34</ele>
        <time>2019-06-10T14:49:02.000Z</time>
      </trkpt>
      <trkpt lat="43.59752" lon="1.4561">
        <ele>200.37</ele>
        <time>2019-06-10T14:49:05.000Z</time>
      </trkpt>
      <trkpt lat="43.59765" lon="1.4561">
        <ele>200.45</ele>
        <time>2019-06-10T14:49:08.000Z</time>
      </trkpt>
      <trkpt lat="43.59778" lon="1.45611">
        <ele>200.49</ele>
        <time>2019-06-10T14:49:11.000Z</time>
      </trkpt>
      <trkpt lat="43.5979" lon="1.45612">
        <ele>200.5</ele>
        <time>2019-06-10T14:49:14.000Z</time>
      </trkpt>
      <trkpt lat="43.59803" lon="1.45614">
        <ele>200.56</ele>
        <time>2019-06-10T14:49:17.000Z</time>
      </trkpt>
      <trkpt lat="43.59817" lon="1.45617">
        <ele>200.64</ele>
        <time>2019-06-10T14:49:20.000Z</time>
      </trkpt>
      <trkpt lat="43.59829" lon="1.45616">
        <ele>200.69</ele>
        <time>2019-06-10T14:49:22.000Z</time>
      </trkpt>
      <trkpt lat="43.59839" lon="1.45618">
        <ele>200.71</ele>
        <time>2019-06-10T14:49:24.000Z</time>
      </trkpt>
      <trkpt lat="43.59848" lon="1.45619">
        <ele>200.74</ele>
        <time>2019-06-10T14:49:26.000Z</time>
      </trkpt>
      <trkpt lat="43.59858" lon="1.45621">
        <ele>200.75</ele>
        <time>2019-06-10T14:49:28.000Z</time>
      </trkpt>
      <trkpt lat="43.59869" lon="1.45624">
        <ele>200.7</ele>
        <time>2019-06-10T14:49:30.000Z</time>
      </trkpt>
      <trkpt lat="43.59882" lon="1.45622">
        <ele>200.67</ele>
        <time>2019-06-10T14:49:32.000Z</time>
      </trkpt>
      <trkpt lat="43.59893" lon="1.45621">
        <ele>200.65</ele>
        <time>2019-06-10T14:49:34.000Z</time>
      </trkpt>
      <trkpt lat="43.59903" lon="1.4562">
        <ele>200.64</ele>
        <time>2019-06-10T14:49:36.000Z</time>
      </trkpt>
      <trkpt lat="43.59915" lon="1.45619">
        <ele>200.61</ele>
        <time>2019-06-10T14:49:39.000Z</time>
      </trkpt>
      <trkpt lat="43.59926" lon="1.45617">
        <ele>200.6</ele>
        <time>2019-06-10T14:49:41.000Z</time>
      </trkpt>
      <trkpt lat="43.59935" lon="1.45616">
        <ele>200.63</ele>
        <time>2019-06-10T14:49:43.000Z</time>
      </trkpt>
      <trkpt lat="43.59948" lon="1.45614">
        <ele>200.59</ele>
        <time>2019-06-10T14:49:46.000Z</time>
      </trkpt>
      <trkpt lat="43.59958" lon="1.45612">
        <ele>200.51</ele>
        <time>2019-06-10T14:49:48.000Z</time>
      </trkpt>
      <trkpt lat="43.5997" lon="1.45611">
        <ele>200.31</ele>
        <time>2019-06-10T14:49:51.000Z</time>
      </trkpt>
      <trkpt lat="43.59979" lon="1.45611">
        <ele>200.25</ele>
        <time>2019-06-10T14:49:53.000Z</time>
      </trkpt>
      <trkpt lat="43.59988" lon="1.45612">
        <ele>200.23</ele>
        <time>2019-06-10T14:49:55.000Z</time>
      </trkpt>
      <trkpt lat="43.59998" lon="1.45613">
        <ele>200.21</ele>
        <time>2019-06-10T14:49:57.000Z</time>
      </trkpt>
      <trkpt lat="43.60008" lon="1.45613">
        <ele>200.17</ele>
        <time>2019-06-10T14:49:59.000Z</time>
      </trkpt>
      <trkpt lat="43.60018" lon="1.45612">
        <ele>200.12</ele>
        <time>2019-06-10T14:50:01.000Z</time>
      </trkpt>
      <trkpt lat="43.60029" lon="1.45612">
        <ele>200.06</ele>
        <time>2019-06-10T14:50:03.000Z</time>
      </trkpt>
      <trkpt lat="43.6004" lon="1.45611">
        <ele>199.98</ele>
        <time>2019-06-10T14:50:05.000Z</time>
      </trkpt>
      <trkpt lat="43.60051" lon="1.45613">
        <ele>199.94</ele>
        <time>2019-06-10T14:50:07.000Z</time>
      </trkpt>
      <trkpt lat="43.60064" lon="1.45615">
        <ele>199.94</ele>
        <time>2019-06-10T14:50:09.000Z</time>
      </trkpt>
      <trkpt lat="43.60075" lon="1.45618">
        <ele>199.9</ele>
        <time>2019-06-10T14:50:11.000Z</time>
      </trkpt>
      <trkpt lat="43.60085" lon="1.45622">
        <ele>199.82</ele>
        <time>2019-06-10T14:50:13.000Z</time>
      </trkpt>
      <trkpt lat="43.60095" lon="1.45624">
        <ele>199.75</ele>
        <time>2019-06-10T14:50:15.000Z</time>
      </trkpt>
      <trkpt lat="43.60106" lon="1.45626">
        <ele>199.69</ele>
        <time>2019-06-10T14:50:17.000Z</time>
      </trkpt>
      <trkpt lat="43.60117" lon="1.45627">
        <ele>199.63</ele>
        <time>2019-06-10T14:50:19.000Z</time>
      </trkpt>
      <trkpt lat="43.6013" lon="1.45629">
        <ele>199.58</ele>
        <time>2019-06-10T14:50:22.000Z</time>
      </trkpt>
      <trkpt lat="43.60141" lon="1.45631">
        <ele>199.57</ele>
        <time>2019-06-10T14:50:25.000Z</time>
      </trkpt>
      <trkpt lat="43.60151" lon="1.45638">
        <ele>199.56</ele>
        <time>2019-06-10T14:50:28.000Z</time>
      </trkpt>
      <trkpt lat="43.6016" lon="1.45641">
        <ele>199.56</ele>
        <time>2019-06-10T14:50:31.000Z</time>
      </trkpt>
      <trkpt lat="43.6017" lon="1.45644">
        <ele>199.57</ele>
        <time>2019-06-10T14:50:35.000Z</time>
      </trkpt>
      <trkpt lat="43.60181" lon="1.45646">
        <ele>199.59</ele>
        <time>2019-06-10T14:50:39.000Z</time>
      </trkpt>
      <trkpt lat="43.6019" lon="1.45647">
        <ele>199.62</ele>
        <time>2019-06-10T14:50:42.000Z</time>
      </trkpt>
      <trkpt lat="43.602" lon="1.4565">
        <ele>199.66</ele>
        <time>2019-06-10T14:50:45.000Z</time>
      </trkpt>
      <trkpt lat="43.6021" lon="1.45653">
        <ele>199.72</ele>
        <time>2019-06-10T14:50:48.000Z</time>
      </trkpt>
      <trkpt lat="43.60222" lon="1.45653">
        <ele>199.81</ele>
        <time>2019-06-10T14:50:51.000Z</time>
      </trkpt>
      <trkpt lat="43.60232" lon="1.45656">
        <ele>199.92</ele>
        <time>2019-06-10T14:50:54.000Z</time>
      </trkpt>
      <trkpt lat="43.60244" lon="1.45659">
        <ele>200.03</ele>
        <time>2019-06-10T14:50:57.000Z</time>
      </trkpt>
      <trkpt lat="43.60256" lon="1.45661">
        <ele>200.15</ele>
        <time>2019-06-10T14:51:00.000Z</time>
      </trkpt>
      <trkpt lat="43.60267" lon="1.45662">
        <ele>200.66</ele>
        <time>2019-06-10T14:51:03.000Z</time>
      </trkpt>
      <trkpt lat="43.60279" lon="1.45662">
        <ele>201.59</ele>
        <time>2019-06-10T14:51:06.000Z</time>
      </trkpt>
      <trkpt lat="43.60291" lon="1.45664">
        <ele>202.15</ele>
        <time>2019-06-10T14:51:09.000Z</time>
      </trkpt>
      <trkpt lat="43.60304" lon="1.45665">
        <ele>202.31</ele>
        <time>2019-06-10T14:51:12.000Z</time>
      </trkpt>
      <trkpt lat="43.60317" lon="1.45665">
        <ele>202.63</ele>
        <time>2019-06-10T14:51:15.000Z</time>
      </trkpt>
      <trkpt lat="43.60328" lon="1.45667">
        <ele>202.65</ele>
        <time>2019-06-10T14:51:18.000Z</time>
      </trkpt>
      <trkpt lat="43.60337" lon="1.45669">
        <ele>202.68</ele>
        <time>2019-06-10T14:51:21.000Z</time>
      </trkpt>
      <trkpt lat="43.60347" lon="1.4567">
        <ele>202.71</ele>
        <time>2019-06-10T14:51:24.000Z</time>
      </trkpt>
      <trkpt lat="43.60357" lon="1.45667">
        <ele>202.73</ele>
        <time>2019-06-10T14:51:27.000Z</time>
      </trkpt>
      <trkpt lat="43.60368" lon="1.45669">
        <ele>202.85</ele>
        <time>2019-06-10T14:51:30.000Z</time>
      </trkpt>
      <trkpt lat="43.60381" lon="1.45672">
        <ele>202.85</ele>
        <time>2019-06-10T14:51:33.000Z</time>
      </trkpt>
      <trkpt lat="43.60392" lon="1.45673">
        <ele>202.85</ele>
        <time>2019-06-10T14:51:36.000Z</time>
      </trkpt>
      <trkpt lat="43.60403" lon="1.45674">
        <ele>202.86</ele>
        <time>2019-06-10T14:51:39.000Z</time>
      </trkpt>
      <trkpt lat="43.60414" lon="1.45675">
        <ele>202.86</ele>
        <time>2019-06-10T14:51:42.000Z</time>
      </trkpt>
      <trkpt lat="43.60427" lon="1.45675">
        <ele>202.87</ele>
        <time>2019-06-10T14:51:45.000Z</time>
      </trkpt>
      <trkpt lat="43.60436" lon="1.45675">
        <ele>202.87</ele>
        <time>2019-06-10T14:51:47.000Z</time>
      </trkpt>
      <trkpt lat="43.60447" lon="1.45674">
        <ele>202.88</ele>
        <time>2019-06-10T14:51:50.000Z</time>
      </trkpt>
      <trkpt lat="43.60459" lon="1.45674">
        <ele>202.88</ele>
        <time>2019-06-10T14:51:53.000Z</time>
      </trkpt>
      <trkpt lat="43.60471" lon="1.45674">
        <ele>202.88</ele>
        <time>2019-06-10T14:51:55.000Z</time>
      </trkpt>
      <trkpt lat="43.60481" lon="1.45674">
        <ele>202.89</ele>
        <time>2019-06-10T14:51:57.000Z</time>
      </trkpt>
      <trkpt lat="43.60493" lon="1.45671">
        <ele>202.9</ele>
        <time>2019-06-10T14:52:00.000Z</time>
      </trkpt>
      <trkpt lat="43.60505" lon="1.45666">
        <ele>202.91</ele>
        <time>2019-06-10T14:52:03.000Z</time>
      </trkpt>
      <trkpt lat="43.60515" lon="1.45663">
        <ele>202.92</ele>
        <time>2019-06-10T14:52:05.000Z</time>
      </trkpt>
      <trkpt lat="43.60525" lon="1.45659">
        <ele>202.92</ele>
        <time>2019-06-10T14:52:07.000Z</time>
      </trkpt>
      <trkpt lat="43.60535" lon="1.45656">
        <ele>202.92</ele>
        <time>2019-06-10T14:52:09.000Z</time>
      </trkpt>
      <trkpt lat="43.60545" lon="1.45652">
        <ele>202.92</ele>
        <time>2019-06-10T14:52:11.000Z</time>
      </trkpt>
      <trkpt lat="43.60557" lon="1.45646">
        <ele>202.92</ele>
        <time>2019-06-10T14:52:14.000Z</time>
      </trkpt>
      <trkpt lat="43.60569" lon="1.4564">
        <ele>202.92</ele>
        <time>2019-06-10T14:52:17.000Z</time>
      </trkpt>
      <trkpt lat="43.60579" lon="1.45635">
        <ele>202.91</ele>
        <time>2019-06-10T14:52:20.000Z</time>
      </trkpt>
      <trkpt lat="43.6059" lon="1.45628">
        <ele>202.9</ele>
        <time>2019-06-10T14:52:23.000Z</time>
      </trkpt>
      <trkpt lat="43.60602" lon="1.45621">
        <ele>202.85</ele>
        <time>2019-06-10T14:52:26.000Z</time>
      </trkpt>
      <trkpt lat="43.60612" lon="1.45616">
        <ele>202.79</ele>
        <time>2019-06-10T14:52:28.000Z</time>
      </trkpt>
      <trkpt lat="43.60625" lon="1.45611">
        <ele>202.74</ele>
        <time>2019-06-10T14:52:30.000Z</time>
      </trkpt>
      <trkpt lat="43.60638" lon="1.45604">
        <ele>202.72</ele>
        <time>2019-06-10T14:52:32.000Z</time>
      </trkpt>
      <trkpt lat="43.60652" lon="1.45595">
        <ele>202.72</ele>
        <time>2019-06-10T14:52:34.000Z</time>
      </trkpt>
      <trkpt lat="43.60664" lon="1.45588">
        <ele>202.73</ele>
        <time>2019-06-10T14:52:36.000Z</time>
      </trkpt>
      <trkpt lat="43.60673" lon="1.45583">
        <ele>202.75</ele>
        <time>2019-06-10T14:52:38.000Z</time>
      </trkpt>
      <trkpt lat="43.60685" lon="1.45577">
        <ele>202.75</ele>
        <time>2019-06-10T14:52:41.000Z</time>
      </trkpt>
      <trkpt lat="43.60696" lon="1.45568">
        <ele>202.75</ele>
        <time>2019-06-10T14:52:44.000Z</time>
      </trkpt>
      <trkpt lat="43.60707" lon="1.4556">
        <ele>202.8</ele>
        <time>2019-06-10T14:52:47.000Z</time>
      </trkpt>
      <trkpt lat="43.6072" lon="1.45554">
        <ele>202.88</ele>
        <time>2019-06-10T14:52:50.000Z</time>
      </trkpt>
      <trkpt lat="43.60732" lon="1.45548">
        <ele>202.89</ele>
        <time>2019-06-10T14:52:52.000Z</time>
      </trkpt>
      <trkpt lat="43.60742" lon="1.45541">
        <ele>202.93</ele>
        <time>2019-06-10T14:52:55.000Z</time>
      </trkpt>
      <trkpt lat="43.60751" lon="1.45533">
        <ele>202.96</ele>
        <time>2019-06-10T14:52:57.000Z</time>
      </trkpt>
      <trkpt lat="43.60759" lon="1.45527">
        <ele>202.99</ele>
        <time>2019-06-10T14:52:59.000Z</time>
      </trkpt>
      <trkpt lat="43.60769" lon="1.45523">
        <ele>203.02</ele>
        <time>2019-06-10T14:53:01.000Z</time>
      </trkpt>
      <trkpt lat="43.60777" lon="1.45518">
        <ele>203.25</ele>
        <time>2019-06-10T14:53:03.000Z</time>
      </trkpt>
      <trkpt lat="43.60787" lon="1.45514">
        <ele>203.48</ele>
        <time>2019-06-10T14:53:05.000Z</time>
      </trkpt>
      <trkpt lat="43.60797" lon="1.45509">
        <ele>203.64</ele>
        <time>2019-06-10T14:53:07.000Z</time>
      </trkpt>
      <trkpt lat="43.60806" lon="1.45505">
        <ele>203.66</ele>
        <time>2019-06-10T14:53:09.000Z</time>
      </trkpt>
      <trkpt lat="43.60817" lon="1.455">
        <ele>203.7</ele>
        <time>2019-06-10T14:53:12.000Z</time>
      </trkpt>
      <trkpt lat="43.60829" lon="1.45497">
        <ele>203.75</ele>
        <time>2019-06-10T14:53:15.000Z</time>
      </trkpt>
      <trkpt lat="43.60838" lon="1.45492">
        <ele>203.97</ele>
        <time>2019-06-10T14:53:17.000Z</time>
      </trkpt>
      <trkpt lat="43.60848" lon="1.45488">
        <ele>204</ele>
        <time>2019-06-10T14:53:19.000Z</time>
      </trkpt>
      <trkpt lat="43.60859" lon="1.45481">
        <ele>204.06</ele>
        <time>2019-06-10T14:53:22.000Z</time>
      </trkpt>
      <trkpt lat="43.60869" lon="1.45473">
        <ele>204.11</ele>
        <time>2019-06-10T14:53:25.000Z</time>
      </trkpt>
      <trkpt lat="43.60879" lon="1.45466">
        <ele>204.14</ele>
        <time>2019-06-10T14:53:27.000Z</time>
      </trkpt>
      <trkpt lat="43.60887" lon="1.45457">
        <ele>204.18</ele>
        <time>2019-06-10T14:53:29.000Z</time>
      </trkpt>
      <trkpt lat="43.60896" lon="1.45444">
        <ele>204.21</ele>
        <time>2019-06-10T14:53:32.000Z</time>
      </trkpt>
      <trkpt lat="43.60905" lon="1.45432">
        <ele>204.22</ele>
        <time>2019-06-10T14:53:35.000Z</time>
      </trkpt>
      <trkpt lat="43.60912" lon="1.45424">
        <ele>204.03</ele>
        <time>2019-06-10T14:53:37.000Z</time>
      </trkpt>
      <trkpt lat="43.60924" lon="1.45421">
        <ele>203.76</ele>
        <time>2019-06-10T14:53:41.000Z</time>
      </trkpt>
      <trkpt lat="43.60931" lon="1.45405">
        <ele>203.53</ele>
        <time>2019-06-10T14:53:48.000Z</time>
      </trkpt>
      <trkpt lat="43.60938" lon="1.4539">
        <ele>203.46</ele>
        <time>2019-06-10T14:53:50.000Z</time>
      </trkpt>
      <trkpt lat="43.60948" lon="1.45385">
        <ele>203.34</ele>
        <time>2019-06-10T14:53:53.000Z</time>
      </trkpt>
      <trkpt lat="43.60954" lon="1.45374">
        <ele>203.22</ele>
        <time>2019-06-10T14:53:57.000Z</time>
      </trkpt>
      <trkpt lat="43.60959" lon="1.45361">
        <ele>203.03</ele>
        <time>2019-06-10T14:54:03.000Z</time>
      </trkpt>
      <trkpt lat="43.60964" lon="1.45346">
        <ele>202.88</ele>
        <time>2019-06-10T14:54:07.000Z</time>
      </trkpt>
      <trkpt lat="43.60972" lon="1.45332">
        <ele>202.72</ele>
        <time>2019-06-10T14:54:10.000Z</time>
      </trkpt>
      <trkpt lat="43.60981" lon="1.45322">
        <ele>202.56</ele>
        <time>2019-06-10T14:54:13.000Z</time>
      </trkpt>
      <trkpt lat="43.6099" lon="1.45314">
        <ele>202.46</ele>
        <time>2019-06-10T14:54:15.000Z</time>
      </trkpt>
      <trkpt lat="43.60999" lon="1.45309">
        <ele>201.94</ele>
        <time>2019-06-10T14:54:17.000Z</time>
      </trkpt>
      <trkpt lat="43.61007" lon="1.45298">
        <ele>201.69</ele>
        <time>2019-06-10T14:54:24.000Z</time>
      </trkpt>
      <trkpt lat="43.61015" lon="1.45292">
        <ele>201.62</ele>
        <time>2019-06-10T14:54:27.000Z</time>
      </trkpt>
      <trkpt lat="43.61026" lon="1.45288">
        <ele>201.58</ele>
        <time>2019-06-10T14:54:30.000Z</time>
      </trkpt>
      <trkpt lat="43.61035" lon="1.45284">
        <ele>201.6</ele>
        <time>2019-06-10T14:54:33.000Z</time>
      </trkpt>
      <trkpt lat="43.61044" lon="1.4528">
        <ele>201.65</ele>
        <time>2019-06-10T14:54:36.000Z</time>
      </trkpt>
      <trkpt lat="43.61056" lon="1.45273">
        <ele>201.73</ele>
        <time>2019-06-10T14:54:39.000Z</time>
      </trkpt>
      <trkpt lat="43.61066" lon="1.45269">
        <ele>201.79</ele>
        <time>2019-06-10T14:54:41.000Z</time>
      </trkpt>
      <trkpt lat="43.61075" lon="1.45265">
        <ele>201.85</ele>
        <time>2019-06-10T14:54:43.000Z</time>
      </trkpt>
      <trkpt lat="43.61084" lon="1.45258">
        <ele>202.2</ele>
        <time>2019-06-10T14:54:45.000Z</time>
      </trkpt>
      <trkpt lat="43.61095" lon="1.45252">
        <ele>202.61</ele>
        <time>2019-06-10T14:54:48.000Z</time>
      </trkpt>
      <trkpt lat="43.61106" lon="1.45246">
        <ele>202.63</ele>
        <time>2019-06-10T14:54:51.000Z</time>
      </trkpt>
      <trkpt lat="43.61115" lon="1.45239">
        <ele>202.68</ele>
        <time>2019-06-10T14:54:54.000Z</time>
      </trkpt>
      <trkpt lat="43.61127" lon="1.45226">
        <ele>202.62</ele>
        <time>2019-06-10T14:55:06.000Z</time>
      </trkpt>
      <trkpt lat="43.61124" lon="1.45211">
        <ele>202.6</ele>
        <time>2019-06-10T14:55:11.000Z</time>
      </trkpt>
      <trkpt lat="43.61117" lon="1.45198">
        <ele>202.6</ele>
        <time>2019-06-10T14:55:14.000Z</time>
      </trkpt>
      <trkpt lat="43.61108" lon="1.45184">
        <ele>202.64</ele>
        <time>2019-06-10T14:55:17.000Z</time>
      </trkpt>
      <trkpt lat="43.61099" lon="1.4517">
        <ele>202.56</ele>
        <time>2019-06-10T14:55:20.000Z</time>
      </trkpt>
      <trkpt lat="43.61094" lon="1.4516">
        <ele>202.47</ele>
        <time>2019-06-10T14:55:22.000Z</time>
      </trkpt>
      <trkpt lat="43.61087" lon="1.4515">
        <ele>202.44</ele>
        <time>2019-06-10T14:55:24.000Z</time>
      </trkpt>
      <trkpt lat="43.6108" lon="1.45139">
        <ele>202.37</ele>
        <time>2019-06-10T14:55:26.000Z</time>
      </trkpt>
      <trkpt lat="43.61075" lon="1.45129">
        <ele>202.35</ele>
        <time>2019-06-10T14:55:28.000Z</time>
      </trkpt>
      <trkpt lat="43.6107" lon="1.45118">
        <ele>202.4</ele>
        <time>2019-06-10T14:55:30.000Z</time>
      </trkpt>
      <trkpt lat="43.61064" lon="1.45106">
        <ele>202.51</ele>
        <time>2019-06-10T14:55:32.000Z</time>
      </trkpt>
      <trkpt lat="43.61058" lon="1.45094">
        <ele>202.62</ele>
        <time>2019-06-10T14:55:34.000Z</time>
      </trkpt>
      <trkpt lat="43.61053" lon="1.45083">
        <ele>202.77</ele>
        <time>2019-06-10T14:55:36.000Z</time>
      </trkpt>
      <trkpt lat="43.61047" lon="1.45073">
        <ele>202.87</ele>
        <time>2019-06-10T14:55:38.000Z</time>
      </trkpt>
      <trkpt lat="43.61042" lon="1.45063">
        <ele>202.97</ele>
        <time>2019-06-10T14:55:40.000Z</time>
      </trkpt>
      <trkpt lat="43.61036" lon="1.45052">
        <ele>202.96</ele>
        <time>2019-06-10T14:55:42.000Z</time>
      </trkpt>
      <trkpt lat="43.6103" lon="1.45043">
        <ele>202.99</ele>
        <time>2019-06-10T14:55:44.000Z</time>
      </trkpt>
      <trkpt lat="43.61021" lon="1.45029">
        <ele>203.2</ele>
        <time>2019-06-10T14:55:47.000Z</time>
      </trkpt>
      <trkpt lat="43.61014" lon="1.45018">
        <ele>203.36</ele>
        <time>2019-06-10T14:55:49.000Z</time>
      </trkpt>
      <trkpt lat="43.61007" lon="1.45008">
        <ele>203.42</ele>
        <time>2019-06-10T14:55:51.000Z</time>
      </trkpt>
      <trkpt lat="43.60998" lon="1.44996">
        <ele>203.48</ele>
        <time>2019-06-10T14:55:54.000Z</time>
      </trkpt>
      <trkpt lat="43.60991" lon="1.44986">
        <ele>203.55</ele>
        <time>2019-06-10T14:55:56.000Z</time>
      </trkpt>
      <trkpt lat="43.60984" lon="1.44974">
        <ele>203.65</ele>
        <time>2019-06-10T14:55:58.000Z</time>
      </trkpt>
      <trkpt lat="43.60979" lon="1.44963">
        <ele>203.63</ele>
        <time>2019-06-10T14:56:00.000Z</time>
      </trkpt>
      <trkpt lat="43.60974" lon="1.4495">
        <ele>203.45</ele>
        <time>2019-06-10T14:56:02.000Z</time>
      </trkpt>
      <trkpt lat="43.60969" lon="1.44938">
        <ele>203.3</ele>
        <time>2019-06-10T14:56:04.000Z</time>
      </trkpt>
      <trkpt lat="43.60963" lon="1.44926">
        <ele>203.23</ele>
        <time>2019-06-10T14:56:07.000Z</time>
      </trkpt>
      <trkpt lat="43.60958" lon="1.44915">
        <ele>203.21</ele>
        <time>2019-06-10T14:56:09.000Z</time>
      </trkpt>
      <trkpt lat="43.60951" lon="1.44901">
        <ele>203.41</ele>
        <time>2019-06-10T14:56:12.000Z</time>
      </trkpt>
      <trkpt lat="43.60943" lon="1.44887">
        <ele>203.73</ele>
        <time>2019-06-10T14:56:15.000Z</time>
      </trkpt>
      <trkpt lat="43.60938" lon="1.44877">
        <ele>203.81</ele>
        <time>2019-06-10T14:56:17.000Z</time>
      </trkpt>
      <trkpt lat="43.6093" lon="1.44863">
        <ele>203.81</ele>
        <time>2019-06-10T14:56:20.000Z</time>
      </trkpt>
      <trkpt lat="43.60922" lon="1.44848">
        <ele>203.71</ele>
        <time>2019-06-10T14:56:23.000Z</time>
      </trkpt>
      <trkpt lat="43.60916" lon="1.44838">
        <ele>203.49</ele>
        <time>2019-06-10T14:56:25.000Z</time>
      </trkpt>
      <trkpt lat="43.60911" lon="1.44828">
        <ele>203.16</ele>
        <time>2019-06-10T14:56:27.000Z</time>
      </trkpt>
      <trkpt lat="43.60905" lon="1.44818">
        <ele>202.75</ele>
        <time>2019-06-10T14:56:29.000Z</time>
      </trkpt>
      <trkpt lat="43.60898" lon="1.44804">
        <ele>202.15</ele>
        <time>2019-06-10T14:56:32.000Z</time>
      </trkpt>
      <trkpt lat="43.60891" lon="1.44792">
        <ele>201.55</ele>
        <time>2019-06-10T14:56:35.000Z</time>
      </trkpt>
      <trkpt lat="43.60883" lon="1.44778">
        <ele>201.23</ele>
        <time>2019-06-10T14:56:38.000Z</time>
      </trkpt>
      <trkpt lat="43.60874" lon="1.44764">
        <ele>201.04</ele>
        <time>2019-06-10T14:56:41.000Z</time>
      </trkpt>
      <trkpt lat="43.60868" lon="1.44754">
        <ele>200.99</ele>
        <time>2019-06-10T14:56:43.000Z</time>
      </trkpt>
      <trkpt lat="43.60863" lon="1.44742">
        <ele>200.89</ele>
        <time>2019-06-10T14:56:45.000Z</time>
      </trkpt>
      <trkpt lat="43.60857" lon="1.4473">
        <ele>200.88</ele>
        <time>2019-06-10T14:56:48.000Z</time>
      </trkpt>
      <trkpt lat="43.60852" lon="1.44719">
        <ele>200.88</ele>
        <time>2019-06-10T14:56:50.000Z</time>
      </trkpt>
      <trkpt lat="43.60845" lon="1.44711">
        <ele>200.91</ele>
        <time>2019-06-10T14:56:52.000Z</time>
      </trkpt>
      <trkpt lat="43.60837" lon="1.44697">
        <ele>201.11</ele>
        <time>2019-06-10T14:56:55.000Z</time>
      </trkpt>
      <trkpt lat="43.60829" lon="1.44685">
        <ele>201.32</ele>
        <time>2019-06-10T14:56:58.000Z</time>
      </trkpt>
      <trkpt lat="43.60824" lon="1.44672">
        <ele>201.29</ele>
        <time>2019-06-10T14:57:00.000Z</time>
      </trkpt>
      <trkpt lat="43.60819" lon="1.4466">
        <ele>201.27</ele>
        <time>2019-06-10T14:57:02.000Z</time>
      </trkpt>
      <trkpt lat="43.60814" lon="1.44648">
        <ele>201.24</ele>
        <time>2019-06-10T14:57:06.000Z</time>
      </trkpt>
      <trkpt lat="43.60814" lon="1.4463">
        <ele>201.21</ele>
        <time>2019-06-10T14:57:09.000Z</time>
      </trkpt>
      <trkpt lat="43.6082" lon="1.44621">
        <ele>201.18</ele>
        <time>2019-06-10T14:57:11.000Z</time>
      </trkpt>
      <trkpt lat="43.6083" lon="1.4461">
        <ele>200.87</ele>
        <time>2019-06-10T14:57:14.000Z</time>
      </trkpt>
      <trkpt lat="43.6084" lon="1.44602">
        <ele>200.79</ele>
        <time>2019-06-10T14:57:17.000Z</time>
      </trkpt>
      <trkpt lat="43.60848" lon="1.4459">
        <ele>200.37</ele>
        <time>2019-06-10T14:57:20.000Z</time>
      </trkpt>
      <trkpt lat="43.60858" lon="1.4458">
        <ele>199.86</ele>
        <time>2019-06-10T14:57:23.000Z</time>
      </trkpt>
      <trkpt lat="43.60867" lon="1.44569">
        <ele>199.35</ele>
        <time>2019-06-10T14:57:26.000Z</time>
      </trkpt>
      <trkpt lat="43.60875" lon="1.44556">
        <ele>198.87</ele>
        <time>2019-06-10T14:57:29.000Z</time>
      </trkpt>
      <trkpt lat="43.60884" lon="1.44545">
        <ele>198.83</ele>
        <time>2019-06-10T14:57:32.000Z</time>
      </trkpt>
      <trkpt lat="43.60894" lon="1.44535">
        <ele>198.65</ele>
        <time>2019-06-10T14:57:35.000Z</time>
      </trkpt>
      <trkpt lat="43.60904" lon="1.44525">
        <ele>198.47</ele>
        <time>2019-06-10T14:57:38.000Z</time>
      </trkpt>
      <trkpt lat="43.60913" lon="1.44515">
        <ele>198.38</ele>
        <time>2019-06-10T14:57:41.000Z</time>
      </trkpt>
      <trkpt lat="43.60922" lon="1.44506">
        <ele>198.33</ele>
        <time>2019-06-10T14:57:44.000Z</time>
      </trkpt>
      <trkpt lat="43.60931" lon="1.44498">
        <ele>198.3</ele>
        <time>2019-06-10T14:57:47.000Z</time>
      </trkpt>
      <trkpt lat="43.60941" lon="1.44489">
        <ele>198.27</ele>
        <time>2019-06-10T14:57:50.000Z</time>
      </trkpt>
      <trkpt lat="43.60951" lon="1.44479">
        <ele>198.25</ele>
        <time>2019-06-10T14:57:53.000Z</time>
      </trkpt>
      <trkpt lat="43.60961" lon="1.4447">
        <ele>198.24</ele>
        <time>2019-06-10T14:57:56.000Z</time>
      </trkpt>
      <trkpt lat="43.60971" lon="1.44461">
        <ele>198.23</ele>
        <time>2019-06-10T14:57:59.000Z</time>
      </trkpt>
      <trkpt lat="43.6098" lon="1.4445">
        <ele>198.2</ele>
        <time>2019-06-10T14:58:02.000Z</time>
      </trkpt>
      <trkpt lat="43.6099" lon="1.4444">
        <ele>198.19</ele>
        <time>2019-06-10T14:58:05.000Z</time>
      </trkpt>
      <trkpt lat="43.61" lon="1.4443">
        <ele>198.18</ele>
        <time>2019-06-10T14:58:08.000Z</time>
      </trkpt>
      <trkpt lat="43.61009" lon="1.4442">
        <ele>198.18</ele>
        <time>2019-06-10T14:58:11.000Z</time>
      </trkpt>
      <trkpt lat="43.61017" lon="1.44409">
        <ele>198.17</ele>
        <time>2019-06-10T14:58:14.000Z</time>
      </trkpt>
      <trkpt lat="43.61027" lon="1.44399">
        <ele>198.16</ele>
        <time>2019-06-10T14:58:17.000Z</time>
      </trkpt>
      <trkpt lat="43.61035" lon="1.44385">
        <ele>198.15</ele>
        <time>2019-06-10T14:58:20.000Z</time>
      </trkpt>
      <trkpt lat="43.61044" lon="1.44373">
        <ele>198.15</ele>
        <time>2019-06-10T14:58:23.000Z</time>
      </trkpt>
      <trkpt lat="43.6105" lon="1.4436">
        <ele>198.15</ele>
        <time>2019-06-10T14:58:26.000Z</time>
      </trkpt>
      <trkpt lat="43.61059" lon="1.44352">
        <ele>198.16</ele>
        <time>2019-06-10T14:58:29.000Z</time>
      </trkpt>
    </trkseg>
  </trk>
</gpx>